[[[{"header":{"parameterUnit":"kt","parameterCategory":2,"dx":1,"dy":1,"la1":29.587661999999998,"la2":31.0,"lo1":-88.76705300000003,"lo2":-86.6583820000003,"nx":115,"ny":88,"refTime":"2022-11-01T18:00:00:Z","depth":0,"parameterNumber":1,"parameterNumberName":"U-component_of_WINDS"},"data":[3.8983,3.8892,3.902,3.9253,3.9232,3.9105,3.9154,3.9147,3.9644,3.995,4.0121,4.0438,4.0566,4.0121,4.0083,4.0462,4.0917,4.1187,4.1202,4.123,4.1453,4.1675,4.18,4.1786,4.223,4.2326,4.2437,4.2548,4.2326,4.2437,4.3291,4.447,4.5548,4.7485,5.0095,5.1034,5.1406,5.2409,5.2706,5.2678,5.3412,5.2961,5.216,5.1991,5.2251,5.2251,5.2571,5.3007,5.3616,5.434,5.4808,5.5033,5.4848,5.4688,5.4763,5.4663,5.4723,5.4743,5.4683,5.4683,5.4642,5.4663,5.4461,5.4039,5.3898,5.3496,5.3549,5.3428,5.3387,5.3246,5.3206,5.3125,5.3105,5.3105,5.3105,5.3105,5.3105,5.3105,5.3105,5.3105,5.3105,5.3105,5.3105,5.3105,5.3105,5.3105,5.3105,5.3105,5.3362,5.495,5.6624,5.8557,6.0479,6.2328,6.3837,6.4598,6.5721,6.5967,6.6213,6.662,6.6863,6.6863,6.6863,6.6863,6.6863,6.6863,6.6863,6.6863,6.6863,6.6863,6.6863,6.6944,6.7051,6.7373,6.7855,3.7746,3.7788,3.8404,3.8827,3.9211,3.877,3.8632,3.8585,3.8693,3.875,3.8855,3.9302,3.9443,3.9565,3.9871,4.0235,4.0576,4.1045,4.1202,4.123,4.123,4.1341,4.1453,4.1327,4.1478,4.1574,4.1646,4.1661,4.1546,4.1531,4.1959,4.2835,4.4376,4.6169,4.7409,4.8595,4.9956,5.0664,5.1113,5.1363,5.1134,5.0847,5.0838,5.0145,4.9431,4.8807,4.9363,5.0197,5.137,5.2488,5.392,5.3996,5.3878,5.3757,5.375,5.3791,5.3851,5.3791,5.369,5.377,5.369,5.3569,5.3347,5.3267,5.3307,5.3206,5.3206,5.3166,5.3166,5.3125,5.3125,5.3105,5.3105,5.3105,5.3105,5.3105,5.3105,5.3105,5.3105,5.3105,5.3105,5.3105,5.3105,5.3105,5.3105,5.3105,5.3105,5.3105,5.3454,5.4677,5.5904,5.7673,5.9348,6.1083,6.2813,6.4182,6.5721,6.5967,6.6401,6.662,6.6863,6.6863,6.6863,6.6863,6.6863,6.6863,6.6863,6.6863,6.6863,6.6863,6.6863,6.697,6.7131,6.7348,6.791,3.7461,3.7504,3.7876,3.8059,3.8229,3.8016,3.799,3.7987,3.8353,3.8296,3.8044,3.8239,3.8659,3.9346,3.9502,3.9979,4.086,4.1088,4.1074,4.1173,4.123,4.1159,4.123,4.1216,4.1017,4.0889,4.1003,4.096,4.069,4.069,4.0571,4.0799,4.1711,4.3165,4.4849,4.5231,4.627,4.8657,4.8932,4.9192,4.9145,5.0426,5.0909,5.0986,5.0659,5.0814,5.0893,5.1315,5.2021,5.2686,5.3104,5.3088,5.2948,5.29,5.2993,5.3013,5.3105,5.3105,5.3146,5.3206,5.3226,5.3267,5.3125,5.3125,5.3105,5.3105,5.3105,5.3105,5.3105,5.3105,5.3105,5.3105,5.3105,5.3105,5.3105,5.3105,5.3105,5.3105,5.3085,5.3085,5.3178,5.3178,5.3178,5.3178,5.3105,5.3105,5.3105,5.3105,5.3178,5.3965,5.5111,5.6534,5.7717,5.9283,6.144,6.3244,6.4888,6.6005,6.6564,6.6498,6.6406,6.6635,6.6838,6.6812,6.6812,6.6812,6.6838,6.6863,6.6863,6.6863,6.697,6.7051,6.7212,6.7428,6.7894,3.7461,3.7461,3.7461,3.7461,3.7475,3.7461,3.7475,3.7532,3.8041,3.7927,3.7561,3.7575,3.8087,3.894,3.9097,3.9595,4.0419,4.0476,4.0732,4.0661,4.0633,4.0491,4.069,4.0519,4.031,4.0348,4.0377,4.0419,4.0027,4.0007,3.9915,3.9849,4.0501,4.2055,4.369,4.3407,4.4453,4.6544,4.6755,4.6675,4.7006,4.8872,4.9774,4.9641,4.909,4.8802,4.9355,5.0209,5.0923,5.1559,5.1745,5.2025,5.2045,5.2324,5.2437,5.2622,5.2808,5.2993,5.3105,5.3105,5.3105,5.3105,5.3105,5.3105,5.3105,5.3105,5.3105,5.3105,5.3105,5.3105,5.3105,5.3105,5.3105,5.3105,5.3105,5.3105,5.3105,5.3085,5.3178,5.3178,5.3178,5.3178,5.3178,5.3178,5.3085,5.3105,5.3085,5.3085,5.327,5.3333,5.4552,5.4788,5.6011,5.7827,5.9984,6.1868,6.3368,6.4453,6.5325,6.5717,6.5898,6.572,6.5542,6.605,6.6609,6.6685,6.6685,6.6736,6.6812,6.6863,6.7025,6.7454,6.7615,6.7163,6.7708,3.7461,3.7461,3.7461,3.7461,3.7461,3.7461,3.7433,3.749,3.7447,3.749,3.7419,3.7433,3.7746,3.8243,3.8471,3.8926,3.9438,3.9637,3.9666,3.9495,3.9538,3.9481,3.9481,3.9346,3.919,3.9275,3.9467,3.9523,3.9303,3.9488,3.9989,4.0821,4.0764,4.1362,4.2653,4.2596,4.3242,4.4723,4.4786,4.4945,4.5262,4.5142,4.5039,4.5331,4.4828,4.4146,4.465,4.5331,4.6123,4.7069,4.7931,4.9131,4.9736,5.0415,5.1091,5.1485,5.2509,5.29,5.3178,5.3085,5.3105,5.3105,5.3105,5.3085,5.3085,5.3085,5.3105,5.3105,5.3178,5.327,5.3362,5.3362,5.3434,5.3434,5.3434,5.3434,5.3434,5.3434,5.3526,5.3618,5.3618,5.3618,5.3618,5.3342,5.327,5.3178,5.3085,5.3105,5.3117,5.3027,5.328,5.3045,5.4533,5.6423,5.853,6.0491,6.1944,6.2975,6.3707,6.4221,6.4729,6.4602,6.4297,6.4983,6.5695,6.6025,6.6355,6.6482,6.6533,6.6537,6.6727,6.7569,6.7556,6.6953,6.7056,3.7461,3.7461,3.7461,3.7461,3.7461,3.7461,3.7077,3.6436,3.6276,3.6334,3.6338,3.6382,3.6679,3.7333,3.7689,3.813,3.8699,3.8684,3.8656,3.8542,3.8386,3.8272,3.8201,3.8172,3.8147,3.8059,3.8201,3.8675,3.8446,3.8768,3.9344,3.9949,3.9801,4.0428,4.1132,4.1703,4.2063,4.2872,4.3577,4.428,4.5154,4.593,4.6184,4.6666,4.6745,4.6552,4.6763,4.7051,4.7435,4.7722,4.7817,4.877,4.983,5.0227,5.0716,5.1765,5.2602,5.288,5.3157,5.3178,5.327,5.327,5.327,5.3189,5.3169,5.3007,5.2956,5.2935,5.3108,5.3373,5.3486,5.3598,5.3741,5.3792,5.3812,5.3812,5.3812,5.3792,5.3883,5.3954,5.3934,5.4005,5.3883,5.3618,5.3414,5.3119,5.3038,5.2926,5.2856,5.2622,5.2351,5.1997,5.3403,5.4793,5.7231,5.9301,6.0952,6.2294,6.2821,6.3103,6.3535,6.3612,6.3459,6.3967,6.4653,6.5136,6.5517,6.5796,6.5669,6.565,6.5683,6.5948,6.5866,6.5863,6.618,3.6991,3.6935,3.6935,3.6921,3.6935,3.6921,3.6437,3.5612,3.5614,3.5599,3.5598,3.5563,3.6071,3.6508,3.6793,3.7276,3.7575,3.7717,3.7762,3.7663,3.7392,3.7377,3.7433,3.7504,3.7318,3.7462,3.7822,3.8313,3.8241,3.8647,3.914,3.9319,3.9554,3.9997,4.0221,4.0008,4.06,4.136,4.2139,4.2571,4.3277,4.4186,4.469,4.5117,4.5186,4.5393,4.5507,4.578,4.6088,4.6377,4.6666,4.7243,4.8712,4.8807,4.9471,5.0884,5.2098,5.2655,5.2973,5.3085,5.3362,5.371,5.2987,5.3007,5.2774,5.2591,5.239,5.2318,5.2347,5.2266,5.2425,5.2646,5.2825,5.2894,5.2894,5.2894,5.2894,5.2894,5.3073,5.3162,5.3382,5.3382,5.3334,5.312,5.2994,5.2985,5.2874,5.2661,5.2417,5.2141,5.1829,5.1463,5.235,5.3181,5.5343,5.7492,5.9628,6.1492,6.1836,6.2138,6.2265,6.2316,6.2494,6.2773,6.3154,6.3764,6.4424,6.4221,6.3916,6.402,6.4149,6.4168,6.4298,6.4939,6.5405,3.572,3.5669,3.5641,3.5683,3.5655,3.5669,3.5612,3.5541,3.5484,3.5456,3.5499,3.5442,3.5573,3.6167,3.5883,3.6039,3.655,3.6136,3.6342,3.6405,3.6444,3.6659,3.6903,3.6991,3.7197,3.7677,3.812,3.8334,3.8914,3.9222,3.9438,3.969,3.9791,4.0076,4.0196,3.9984,3.9632,3.9783,4.0356,4.0642,4.1008,4.1616,4.2195,4.2439,4.2799,4.3047,4.3114,4.3049,4.3213,4.3262,4.3426,4.3786,4.4129,4.4179,4.5154,4.6919,4.9773,5.0986,5.1966,5.2642,5.316,5.3651,5.2742,5.1777,5.1608,5.1962,5.18,5.167,5.1888,5.1663,5.1608,5.1953,5.2386,5.2386,5.2365,5.2345,5.2324,5.2324,5.252,5.2757,5.2907,5.3015,5.3053,5.2598,5.2371,5.233,5.2102,5.1912,5.1653,5.1372,5.1229,5.0813,5.1277,5.1877,5.3139,5.5224,5.7311,5.9541,6.0078,6.1024,6.0741,6.0715,6.1147,6.1528,6.1708,6.2114,6.2773,6.2722,6.2367,6.2338,6.2612,6.262,6.2612,6.3507,6.4406,3.512,3.5117,3.5378,3.557,3.5456,3.4674,3.4347,3.4332,3.4332,3.4332,3.4361,3.4361,3.4531,3.4716,3.483,3.5266,3.5732,3.553,3.5755,3.6152,3.5814,3.594,3.6122,3.627,3.6884,3.6997,3.7546,3.8169,3.8579,3.925,3.957,3.9869,4.0175,4.0051,3.9597,3.9384,3.8996,3.8904,3.8921,3.9046,3.9344,3.9738,4.015,4.0309,4.0579,4.0947,4.0899,4.0962,4.1058,4.1216,4.1597,4.2451,4.4206,4.5233,4.6271,4.8182,5.0325,5.0904,5.1571,5.2147,5.24,5.3263,5.2365,5.1864,5.193,5.1636,5.1396,5.1438,5.1992,5.2079,5.2166,5.2512,5.2814,5.2814,5.2793,5.2751,5.2622,5.2559,5.2666,5.2858,5.3008,5.2986,5.2921,5.2345,5.1815,5.1587,5.1317,5.1067,5.0813,5.0687,5.0622,5.0749,5.1122,5.1696,5.2618,5.3951,5.549,5.7388,5.8734,5.9949,5.9867,6.0306,6.0306,6.0385,6.0842,6.1175,6.1505,6.1733,6.1809,6.1728,6.1536,6.1345,6.1108,6.2049,6.3201,3.422,3.4216,3.4769,3.4944,3.483,3.4019,3.3601,3.3601,3.3601,3.3616,3.3692,3.3874,3.3874,3.4065,3.4622,3.5073,3.5301,3.5364,3.5563,3.5964,3.5742,3.5653,3.6151,3.677,3.7039,3.7521,3.8049,3.8681,3.8569,3.9308,3.9619,3.952,3.9522,3.9439,3.8916,3.8436,3.8204,3.808,3.8158,3.8235,3.8328,3.8997,3.9435,3.9451,3.9737,4.01,4.0305,3.9865,4.0036,4.0455,4.051,4.1576,4.3476,4.4243,4.538,4.7154,4.8122,4.9062,5.0081,5.084,5.1038,5.1506,5.136,5.1254,5.1506,5.1272,5.1081,5.0892,5.1086,5.1318,5.1633,5.1888,5.2036,5.2162,5.2184,5.2162,5.2162,5.2162,5.2162,5.2184,5.2162,5.1908,5.1845,5.1297,5.1087,5.0961,5.0411,5.0068,5.0237,5.0213,5.0124,5.04,5.0648,5.1342,5.2157,5.3089,5.4611,5.6225,5.7514,5.8858,5.9695,6.0233,6.0306,6.0306,6.0309,6.0385,6.0461,6.0515,6.0896,6.1171,6.0976,6.0733,6.0949,6.1645,6.2293,3.3083,3.3033,3.349,3.3672,3.3715,3.3601,3.3601,3.3601,3.3601,3.3601,3.3692,3.407,3.4266,3.4462,3.4688,3.5048,3.523,3.5367,3.5563,3.597,3.5955,3.6561,3.714,3.7571,3.7769,3.9269,3.9292,3.9149,3.9338,3.9399,3.9188,3.9007,3.8729,3.8451,3.8576,3.8034,3.7399,3.6827,3.7291,3.7534,3.7782,3.8481,3.8839,3.8998,3.9133,3.9416,3.9493,3.9121,3.918,3.9667,3.9816,4.0687,4.2314,4.2745,4.3458,4.442,4.4492,4.5253,4.6547,4.7682,4.8799,4.9642,5.005,4.9968,4.9908,4.9908,4.9887,4.9375,4.9702,4.9989,5.0071,5.005,5.0213,5.0294,5.0294,5.0294,5.0294,5.0294,5.0294,5.0294,5.0294,5.0358,5.0379,5.0443,5.0446,5.0001,4.9381,4.9461,4.9785,4.9763,4.9594,4.9678,4.9738,5.0224,5.0738,5.1995,5.3375,5.4939,5.643,5.7914,5.9006,5.9622,6.0087,6.0306,6.0284,6.0309,5.9928,5.9445,5.9703,6.0131,6.0111,6.0353,6.0937,6.1411,6.1574,3.2146,3.2534,3.2991,3.3328,3.3601,3.3601,3.3601,3.3601,3.3601,3.3601,3.3692,3.3769,3.407,3.4357,3.4615,3.4991,3.5548,3.5729,3.5999,3.6179,3.6344,3.6541,3.6939,3.7447,3.7941,3.8282,3.87,3.9025,3.8929,3.9025,3.8808,3.839,3.7756,3.7385,3.7322,3.7346,3.755,3.7555,3.7791,3.7865,3.7881,3.8299,3.8485,3.8444,3.8498,3.8658,3.861,3.8397,3.8408,3.8572,3.8949,3.9661,4.0647,4.1593,4.2267,4.3305,4.418,4.4875,4.5236,4.5765,4.637,4.7928,4.8438,4.8496,4.8348,4.8348,4.8623,4.8181,4.8275,4.8426,4.8348,4.8559,4.8702,4.8893,4.885,4.8914,4.8872,4.8935,4.8829,4.8787,4.9063,4.9381,4.9487,4.9742,4.9407,4.8681,4.832,4.8632,4.8914,4.8935,4.885,4.8872,4.885,4.902,4.9291,5.0349,5.1538,5.3114,5.4572,5.6302,5.7869,5.8932,5.9449,5.939,5.9656,6.0131,5.9826,5.9166,5.909,5.9043,5.939,5.9661,6.0065,5.9933,6.041,3.1787,3.2364,3.2873,3.32,3.3419,3.351,3.3601,3.3601,3.3601,3.3601,3.3692,3.4056,3.4419,3.472,3.4991,3.5624,3.6089,3.6179,3.6344,3.6508,3.6569,3.6783,3.7092,3.7493,3.7787,3.8251,3.8483,3.8653,3.8375,3.8344,3.8251,3.7833,3.7349,3.6823,3.703,3.7497,3.7734,3.8075,3.8148,3.8326,3.8326,3.8503,3.8462,3.825,3.8081,3.7896,3.774,3.7431,3.7415,3.7485,3.7485,3.8356,3.934,4.0123,4.078,4.157,4.2797,4.3448,4.3812,4.3717,4.4316,4.6064,4.7247,4.7683,4.781,4.7683,4.7619,4.7632,4.7704,4.7853,4.7619,4.7577,4.7471,4.7654,4.776,4.7845,4.7853,4.798,4.798,4.8164,4.8355,4.8504,4.8759,4.8993,4.8185,4.7407,4.7534,4.7739,4.793,4.7916,4.8044,4.8086,4.8107,4.8256,4.8362,4.9016,4.9824,5.116,5.2459,5.406,5.5545,5.6837,5.7667,5.8251,5.8439,5.876,5.8853,5.8617,5.8378,5.8048,5.8277,5.8607,5.8571,5.8457,5.9036,3.1907,3.2262,3.2791,3.3083,3.3194,3.3447,3.3601,3.3601,3.3601,3.3601,3.3783,3.4615,3.4977,3.5353,3.5894,3.6254,3.6508,3.6508,3.6508,3.6508,3.6539,3.6906,3.7153,3.7416,3.774,3.8157,3.8142,3.7895,3.7694,3.7554,3.7121,3.6672,3.679,3.7077,3.7176,3.7338,3.7665,3.7769,3.8104,3.8344,3.852,3.8766,3.8845,3.831,3.7972,3.7639,3.743,3.6859,3.6691,3.7131,3.7179,3.7644,3.8398,3.9013,3.93,3.9794,4.0775,4.1617,4.228,4.2364,4.3015,4.4608,4.61,4.6906,4.6876,4.7271,4.7398,4.7219,4.6909,4.7079,4.7152,4.7343,4.6919,4.6812,4.6643,4.6664,4.6685,4.6855,4.7143,4.742,4.7526,4.7624,4.7816,4.7725,4.6998,4.673,4.6815,4.6944,4.7062,4.6911,4.7125,4.7058,4.7165,4.7271,4.7377,4.7914,4.847,4.9586,5.0723,5.2079,5.3158,5.3974,5.4907,5.5499,5.6228,5.7024,5.7492,5.6704,5.6244,5.6524,5.66,5.6448,5.6405,5.6804,5.7616,3.2276,3.2484,3.2887,3.3236,3.3645,3.3617,3.3601,3.3601,3.3601,3.3601,3.3783,3.4252,3.5097,3.5654,3.5999,3.6359,3.6508,3.6508,3.6508,3.6508,3.6539,3.6737,3.6891,3.6906,3.7014,3.7092,3.7292,3.7061,3.6842,3.668,3.653,3.6279,3.6337,3.6294,3.6385,3.6823,3.7177,3.7246,3.7656,3.7946,3.8167,3.8303,3.8353,3.8369,3.8367,3.8299,3.8212,3.7762,3.7594,3.7822,3.7628,3.7479,3.7782,3.8133,3.8163,3.8423,3.867,3.9632,4.0681,4.1409,4.2678,4.3803,4.4864,4.5338,4.5528,4.5726,4.5915,4.6035,4.5887,4.5602,4.5454,4.5539,4.5666,4.573,4.5687,4.5496,4.5432,4.556,4.5751,4.6218,4.6623,4.6709,4.6482,4.6423,4.6216,4.5956,4.6072,4.6202,4.6108,4.5876,4.5722,4.5482,4.5515,4.557,4.5931,4.6527,4.7198,4.8051,4.9104,5.004,5.05,5.1169,5.1912,5.283,5.3715,5.4237,5.4433,5.4087,5.3831,5.4096,5.4324,5.4237,5.4507,5.5301,5.5945,3.1463,3.1834,3.2496,3.282,3.2828,3.3222,3.3342,3.3433,3.351,3.3601,3.3692,3.3979,3.4629,3.5533,3.6074,3.6344,3.6508,3.6508,3.6508,3.6508,3.6508,3.6523,3.6492,3.6508,3.6508,3.669,3.6582,3.644,3.621,3.6093,3.5973,3.6011,3.6033,3.598,3.6306,3.6696,3.6914,3.7131,3.7397,3.7746,3.8078,3.8161,3.8107,3.7963,3.7911,3.7705,3.7563,3.769,3.7813,3.7769,3.7866,3.769,3.773,3.771,3.756,3.7614,3.7528,3.8306,3.9673,3.9978,4.1275,4.2678,4.338,4.3808,4.4762,4.5208,4.5373,4.5287,4.4949,4.4847,4.4796,4.4711,4.4711,4.4753,4.5008,4.4923,4.4923,4.4732,4.4706,4.5221,4.5674,4.533,4.5093,4.4924,4.4776,4.4598,4.4637,4.4789,4.4741,4.4692,4.4482,4.4136,4.4194,4.4159,4.4642,4.4868,4.5525,4.5607,4.6739,4.7125,4.7609,4.8212,4.8792,4.9627,5.0835,5.1237,5.1066,5.0999,5.0879,5.1371,5.1965,5.2015,5.2078,5.3045,5.4286,2.9597,3.0656,3.1821,3.2029,3.1803,3.268,3.3096,3.3188,3.351,3.3601,3.3601,3.3769,3.4328,3.5248,3.6074,3.6418,3.6508,3.6508,3.6508,3.6551,3.6338,3.635,3.6428,3.6428,3.6223,3.6249,3.6342,3.6116,3.5885,3.5741,3.5681,3.5784,3.602,3.6269,3.6106,3.6501,3.7328,3.7508,3.7639,3.7803,3.8031,3.8161,3.8059,3.7774,3.7645,3.755,3.7305,3.7469,3.7483,3.7406,3.7555,3.7608,3.7656,3.7936,3.7602,3.7352,3.7259,3.7741,3.9016,3.9111,3.9729,4.1182,4.1892,4.3009,4.3873,4.4422,4.5122,4.5295,4.5071,4.4791,4.4578,4.4549,4.4413,4.4265,4.3989,4.4074,4.4159,4.3628,4.3995,4.4443,4.4503,4.4159,4.409,4.3762,4.341,4.3254,4.3186,4.3317,4.3426,4.3644,4.3528,4.3522,4.3515,4.333,4.3557,4.3247,4.3402,4.3081,4.363,4.4067,4.4654,4.5365,4.5831,4.6638,4.7993,4.8769,4.8217,4.7985,4.7908,4.8556,4.9612,4.9857,4.995,5.1186,5.2699,2.6742,2.8628,3.0859,3.1958,3.2243,3.2753,3.3174,3.3524,3.3601,3.3601,3.3692,3.4056,3.4524,3.5157,3.5804,3.6223,3.6508,3.6446,3.6385,3.6366,3.6011,3.5779,3.5697,3.5575,3.5701,3.5897,3.598,3.5895,3.5803,3.5596,3.55,3.5436,3.5252,3.5341,3.552,3.5989,3.6054,3.6291,3.6466,3.6641,3.6939,3.7393,3.7876,3.8405,3.8387,3.8274,3.8003,3.8119,3.8254,3.8086,3.8065,3.8021,3.7903,3.7739,3.7854,3.8103,3.775,3.8196,3.8862,3.8845,3.8898,3.9739,4.0063,4.078,4.1889,4.3358,4.466,4.5779,4.5646,4.4929,4.4415,4.3903,4.3422,4.306,4.2827,4.2656,4.2736,4.289,4.3183,4.3119,4.3349,4.3449,4.3653,4.3408,4.3121,4.2924,4.3145,4.3189,4.319,4.3256,4.3387,4.3254,4.312,4.2852,4.2672,4.2538,4.2449,4.2344,4.255,4.2728,4.2834,4.3019,4.3106,4.3732,4.5065,4.5921,4.5267,4.4859,4.5567,4.6412,4.732,4.8188,4.898,5.0117,5.1406,2.4736,2.7126,2.8747,2.9984,3.0897,3.1644,3.214,3.2584,3.3146,3.3433,3.3692,3.3965,3.4419,3.4978,3.5249,3.5286,3.5481,3.5609,3.5594,3.5578,3.5356,3.5428,3.6374,3.5541,3.5672,3.63,3.6546,3.6616,3.6277,3.5622,3.525,3.5119,3.5046,3.5145,3.538,3.5676,3.61,3.6644,3.6894,3.7127,3.759,3.7881,3.8246,3.8705,3.8858,3.8788,3.8623,3.8718,3.8773,3.8435,3.8287,3.8249,3.8324,3.8549,3.9054,3.9631,3.9389,3.9239,3.9181,3.8986,3.8788,3.8829,3.9065,3.9645,4.0735,4.1894,4.3221,4.4455,4.4722,4.5336,4.4817,4.4099,4.3509,4.2927,4.2406,4.2167,4.2014,4.2036,4.1864,4.1593,4.1941,4.2353,4.2782,4.2955,4.2799,4.2868,4.3091,4.3138,4.3205,4.3474,4.3808,4.372,4.3631,4.3387,4.3187,4.2964,4.2742,4.2442,4.2311,4.224,4.2291,4.242,4.2245,4.1935,4.2043,4.3066,4.2921,4.3569,4.388,4.4356,4.5621,4.6873,4.7868,4.901,5.0298,2.305,2.5418,2.618,2.7501,2.8935,2.9838,3.0736,3.1576,3.252,3.3174,3.351,3.3587,3.4089,3.4592,3.4371,3.4343,3.4666,3.5217,3.5223,3.5208,3.5377,3.6034,3.6964,3.655,3.6829,3.7764,3.7884,3.7501,3.6826,3.6066,3.5638,3.5179,3.5224,3.538,3.5693,3.5988,3.6532,3.7211,3.7442,3.7845,3.8381,3.8745,3.9012,3.8979,3.9336,3.9034,3.8579,3.8788,3.8808,3.8101,3.8268,3.8412,3.8434,3.8845,3.9492,4.0001,3.9983,3.9501,3.924,3.8887,3.8904,3.8834,3.8879,3.9417,4.0081,4.1024,4.2272,4.3296,4.4543,4.5445,4.5479,4.4417,4.3916,4.3305,4.2499,4.1767,4.1657,4.1469,4.1092,4.0745,4.0775,4.0977,4.1516,4.186,4.1905,4.2106,4.2348,4.2501,4.2546,4.2907,4.3469,4.3715,4.3871,4.3652,4.3454,4.3013,4.2618,4.2178,4.1803,4.1723,4.1668,4.1823,4.1749,4.1458,4.147,4.1743,4.2087,4.2535,4.2995,4.3438,4.4437,4.5474,4.6858,4.8292,4.9454,2.0996,2.194,2.3617,2.5595,2.7303,2.8037,2.9417,3.1288,3.214,3.2598,3.3082,3.3524,3.3502,3.3752,3.3958,3.414,3.4428,3.5088,3.5402,3.5604,3.6008,3.693,3.7802,3.8085,3.8814,4.0358,3.9504,3.8439,3.7885,3.7424,3.6437,3.5363,3.571,3.6022,3.6005,3.6394,3.7039,3.7548,3.7854,3.8177,3.8637,3.9242,3.9446,3.9435,3.9575,3.9242,3.8636,3.8583,3.8576,3.8408,3.8478,3.8365,3.8183,3.8097,3.8151,3.8737,3.9436,3.9344,3.9065,3.9154,3.9037,3.8286,3.8752,3.9258,3.9477,4.0324,4.1409,4.2664,4.3578,4.4216,4.4239,4.3675,4.3124,4.2457,4.1735,4.1242,4.0831,4.0277,4.0405,4.0196,4.057,4.0818,4.1066,4.1212,4.1212,4.1318,4.1593,4.1762,4.1762,4.201,4.2511,4.2871,4.3019,4.2895,4.2744,4.2396,4.2085,4.1704,4.1309,4.1151,4.0996,4.1212,4.1335,4.1066,4.1128,4.1397,4.1765,4.1987,4.2292,4.274,4.3569,4.4558,4.5956,4.7443,4.9021,1.9467,2.1092,2.193,2.3353,2.5147,2.645,2.7932,2.951,3.0854,3.1808,3.247,3.2684,3.2867,3.3067,3.3132,3.3291,3.3602,3.4091,3.4312,3.464,3.5462,3.6624,3.7798,3.9712,4.129,4.2182,4.0897,3.9789,3.8879,3.8057,3.7158,3.6161,3.6411,3.66,3.6842,3.7074,3.7499,3.7967,3.8194,3.827,3.8505,3.8887,3.9,3.9089,3.9328,3.9096,3.8543,3.8581,3.8566,3.8159,3.7355,3.6976,3.7279,3.7626,3.8174,3.888,3.9553,3.9756,3.9404,3.9654,3.9586,3.8277,3.8794,3.8566,3.825,3.8581,3.9635,4.0379,4.1541,4.2492,4.2799,4.2363,4.1561,4.086,4.0424,4.0149,4.017,4.0186,4.0258,4.0405,4.0606,4.0915,4.1044,4.1212,4.1251,4.1205,4.1433,4.2144,4.2053,4.2258,4.253,4.2478,4.2497,4.2288,4.2139,4.1942,4.1694,4.1516,4.1316,4.1209,4.0925,4.0982,4.1044,4.1229,4.1352,4.1559,4.1419,4.1335,4.1559,4.2048,4.2786,4.3734,4.493,4.6275,4.7907,1.83,2.0128,2.0337,2.1346,2.2839,2.4239,2.5745,2.7383,2.9069,3.0357,3.143,3.1804,3.2053,3.2241,3.2325,3.2311,3.246,3.265,3.268,3.2983,3.4468,3.6308,3.8156,4.1161,4.3181,4.3453,4.2088,4.1227,4.0531,3.9242,3.7923,3.7363,3.724,3.7287,3.7367,3.7373,3.7787,3.8227,3.8168,3.8155,3.8429,3.8461,3.8634,3.8888,3.9277,3.9174,3.8977,3.8781,3.844,3.7698,3.6698,3.6406,3.6945,3.7489,3.7991,3.872,3.97,4.0159,3.9651,4.0166,4.0365,3.9139,3.9242,3.8788,3.7525,3.7811,3.7945,3.8581,3.9475,4.0789,4.1573,4.0648,4.0568,4.06,4.0189,3.9848,3.9621,3.977,3.9721,3.991,4.0154,4.0541,4.0557,4.0483,4.0732,4.1154,4.1722,4.2466,4.2824,4.3069,4.3035,4.2847,4.2664,4.2142,4.2016,4.1868,4.1753,4.1663,4.1726,4.1703,4.1447,4.1352,4.1329,4.1452,4.1575,4.1413,4.1335,4.1212,4.1251,4.1559,4.2048,4.3051,4.4034,4.5118,4.6485,1.7243,1.751,1.8266,1.9355,2.0588,2.0749,2.2649,2.5075,2.6479,2.81,2.9749,3.0805,3.099,3.1117,3.1859,3.2006,3.1566,3.2198,3.2998,3.431,3.6075,3.8079,3.8918,4.1886,4.3412,4.3911,4.4327,4.2958,4.1551,4.1604,4.0416,3.8491,3.8104,3.7828,3.7612,3.7459,3.7396,3.7771,3.7913,3.8037,3.8275,3.8495,3.8821,3.9155,3.9639,3.9928,3.9827,3.903,3.8073,3.7298,3.7076,3.6938,3.6981,3.7147,3.7352,3.7645,3.897,3.9738,3.9137,4.0509,4.1192,4.055,4.0454,4.0379,3.9588,3.8849,3.8822,3.9302,3.9444,3.9771,4.0439,4.1311,4.1038,4.0677,4.092,4.0521,3.9578,3.8501,3.8024,3.803,3.8412,3.8664,3.8828,3.8978,3.9183,4.0223,4.0537,4.1289,4.1882,4.217,4.2298,4.2445,4.216,4.1829,4.1711,4.1632,4.1453,4.1256,4.1245,4.1442,4.1121,4.1462,4.1507,4.1575,4.1514,4.1413,4.1273,4.1212,4.1251,4.1497,4.162,4.2451,4.3378,4.4461,4.5366,1.5865,1.6682,1.7197,1.8062,1.887,1.9725,2.0896,2.2567,2.4167,2.5958,2.7598,2.8614,2.9495,3.0393,3.1279,3.167,3.1672,3.2202,3.2775,3.3617,3.4922,3.7466,4.0409,4.2752,4.3981,4.401,4.3669,4.2768,4.1848,4.1216,4.0246,3.894,3.882,3.8904,3.8571,3.8326,3.8178,3.8482,3.7883,3.767,3.7891,3.7985,3.8252,3.8681,3.8915,3.9124,3.919,3.844,3.8303,3.8538,3.7834,3.7223,3.7244,3.7738,3.7803,3.7404,3.8642,3.9436,3.9436,4.0452,4.1117,4.0877,4.1282,4.0804,3.9808,3.918,3.8651,3.8845,3.885,3.8477,3.8411,3.8875,3.9312,3.945,3.8894,3.8209,3.7469,3.773,3.7917,3.7886,3.8045,3.8386,3.8672,3.8707,3.8969,3.933,3.9583,4.0189,4.0846,4.085,4.0985,4.0989,4.0874,4.0556,4.0398,4.0279,4.0144,3.9729,3.9774,4.0416,4.0687,4.1396,4.1653,4.1919,4.1636,4.1413,4.1167,4.1066,4.1016,4.1011,4.1374,4.1995,4.2934,4.396,4.4655,1.42,1.5743,1.6382,1.6901,1.7531,1.8598,1.9516,2.0462,2.2037,2.3723,2.5464,2.6684,2.8055,2.9466,3.0546,3.1417,3.1882,3.2282,3.2536,3.2775,3.3316,3.6463,4.0409,4.2894,4.3861,4.3632,4.3183,4.2486,4.1813,4.1392,4.0685,3.9783,4.0021,4.0029,3.9795,3.9103,3.8942,3.8842,3.7944,3.7611,3.7694,3.7548,3.7557,3.7946,3.8263,3.8346,3.8113,3.8467,3.9142,3.9291,3.7867,3.7108,3.7266,3.7734,3.7847,3.7659,3.8399,3.9062,3.9309,4.0259,4.0726,4.053,4.112,4.1106,3.9632,3.9254,3.8768,3.828,3.8051,3.7778,3.672,3.6666,3.6924,3.7157,3.7023,3.6463,3.6047,3.6606,3.721,3.6999,3.7222,3.7625,3.788,3.7991,3.8244,3.8715,3.9097,3.9455,4.0222,4.0467,4.0454,4.0249,4.0043,3.9531,3.9138,3.9058,3.8855,3.8491,3.853,3.9206,3.9547,4.0138,4.0874,4.1902,4.1026,4.0958,4.0836,4.091,4.0587,4.0365,4.0793,4.1419,4.2406,4.3358,4.4094,1.2456,1.4168,1.5337,1.611,1.6624,1.6971,1.7977,1.9274,2.0048,2.1563,2.3611,2.5313,2.6892,2.8246,2.9857,3.1081,3.1882,3.2282,3.268,3.3316,3.3915,3.5679,3.8677,4.1002,4.2426,4.298,4.3341,4.2947,4.2068,4.2411,4.2623,4.1739,4.1405,4.1,4.034,3.972,3.8978,3.8287,3.7976,3.7875,3.788,3.79,3.778,3.7404,3.8256,3.8571,3.8442,3.9636,3.963,3.7366,3.7049,3.6984,3.7015,3.7009,3.7309,3.7293,3.8223,3.8429,3.8382,3.9653,4.0461,3.9945,4.0608,4.1026,4.0284,3.9782,3.9431,3.9079,3.8029,3.7259,3.6867,3.6105,3.5329,3.5347,3.5669,3.5557,3.4845,3.4695,3.4951,3.4949,3.5362,3.6141,3.6739,3.6821,3.7218,3.7716,3.8045,3.8734,3.948,3.9918,4.0091,4.0116,4.0096,3.9479,3.8652,3.8542,3.8267,3.7847,3.7345,3.7547,3.7614,3.7965,3.844,3.966,4.013,4.033,4.0497,4.0761,4.0736,4.042,4.0576,4.1055,4.1835,4.2757,4.3416,1.1023,1.2335,1.3908,1.4997,1.5855,1.6438,1.7127,1.7723,1.8741,2.0085,2.185,2.3865,2.5841,2.7553,2.9357,3.0744,3.1867,3.2042,3.2744,3.3884,3.3841,3.5346,3.8085,3.9368,4.0708,4.2487,4.3546,4.3346,4.2416,4.2866,4.2805,4.2254,4.2162,4.2131,4.203,4.0346,3.9564,3.9393,3.7735,3.6779,3.6901,3.6759,3.6733,3.7,3.739,3.7607,3.7629,3.8436,3.8395,3.7362,3.774,3.8139,3.8271,3.8211,3.8189,3.8033,3.8156,3.8343,3.8436,3.9104,3.9383,3.9608,4.0042,4.0096,3.9606,3.9253,3.898,3.8646,3.7703,3.7094,3.6894,3.6258,3.5483,3.4529,3.4311,3.3967,3.3993,3.3844,3.3814,3.4009,3.4492,3.5267,3.6077,3.6517,3.6982,3.7417,3.775,3.837,3.8746,3.9093,3.9088,3.9177,3.9528,3.9255,3.8406,3.8033,3.7765,3.7135,3.634,3.598,3.6002,3.6261,3.6312,3.7563,3.8463,3.8579,3.8735,3.9447,4.0057,4.0624,4.0525,4.0826,4.1066,4.2038,4.2438,0.9211,1.1031,1.2416,1.3798,1.5185,1.5941,1.6445,1.6872,1.7731,1.8911,2.0253,2.2436,2.459,2.6626,2.8531,3.0246,3.1772,3.1402,3.2058,3.3423,3.344,3.48,3.7087,3.8069,3.9452,4.1485,4.2943,4.3289,4.2879,4.3148,4.3162,4.2911,4.3128,4.3527,4.3642,4.1604,4.0488,4.0867,3.8258,3.683,3.6947,3.6522,3.6213,3.6464,3.6651,3.6763,3.6808,3.7113,3.7075,3.6944,3.79,3.8542,3.8715,3.8793,3.8653,3.8471,3.8277,3.8434,3.8745,3.8937,3.9236,3.9518,3.9993,3.9918,3.9432,3.9365,3.9128,3.8593,3.7699,3.7145,3.6815,3.6377,3.5598,3.4666,3.3793,3.3628,3.3662,3.3381,3.3305,3.3577,3.4148,3.5033,3.6107,3.6649,3.7113,3.7625,3.7929,3.8283,3.8658,3.8906,3.8784,3.8784,3.8784,3.8877,3.8461,3.8141,3.7672,3.6973,3.5446,3.4451,3.4688,3.491,3.4789,3.5327,3.6062,3.6493,3.6724,3.7186,3.7731,3.8324,3.8903,3.96,4.0295,4.0858,4.1262,0.6692,1.0158,1.0945,1.2416,1.4327,1.5006,1.5863,1.6624,1.7143,1.7995,1.9174,2.1095,2.3321,2.531,2.7226,2.9329,3.1098,3.0279,3.0734,3.2509,3.3067,3.4242,3.5939,3.7249,3.8466,3.9662,4.1596,4.2725,4.3209,4.3522,4.3939,4.4389,4.4683,4.4849,4.4927,4.3519,4.2517,4.1539,3.9663,3.8504,3.8366,3.74,3.6584,3.6021,3.6433,3.6634,3.6244,3.6505,3.6731,3.6708,3.6962,3.7413,3.8091,3.8193,3.8252,3.8529,3.8732,3.8733,3.8654,3.9311,3.9611,3.9654,4.0484,4.0541,4.0084,4.0162,3.9965,3.9106,3.8088,3.7367,3.6849,3.5823,3.5086,3.5493,3.4971,3.4438,3.4009,3.3272,3.302,3.3739,3.4309,3.532,3.6419,3.6959,3.7346,3.8006,3.8258,3.8433,3.9032,3.9107,3.9032,3.9181,3.9255,3.9032,3.8609,3.8158,3.7424,3.6499,3.4661,3.3414,3.3765,3.3209,3.3123,3.2996,3.3787,3.418,3.4404,3.5445,3.5931,3.6312,3.6634,3.7218,3.8424,3.9584,4.0031,0.4266,0.7219,0.8696,1.0609,1.2772,1.362,1.4821,1.6197,1.6973,1.7825,1.8911,2.0709,2.2477,2.4092,2.5841,2.8031,3.0043,2.9507,3.0517,3.2893,3.2788,3.3621,3.5237,3.5995,3.7245,3.9147,4.0761,4.2451,4.3939,4.459,4.4942,4.5176,4.5699,4.6045,4.5809,4.4067,4.3065,4.2448,4.0072,3.8445,3.7872,3.7075,3.6358,3.6231,3.6927,3.7183,3.6701,3.7062,3.7239,3.7165,3.7523,3.7828,3.8081,3.8258,3.8435,3.8684,3.8684,3.8684,3.8782,3.8898,3.8991,3.8918,3.9304,3.9446,3.9194,3.903,3.8873,3.844,3.7486,3.6897,3.6805,3.6493,3.6234,3.6338,3.5681,3.4971,3.4781,3.3544,3.2944,3.3163,3.3718,3.4896,3.6286,3.7085,3.7675,3.8158,3.8459,3.8833,3.9379,3.9551,3.9551,3.9501,3.96,3.928,3.8562,3.7487,3.6571,3.5627,3.3998,3.3209,3.2897,3.1848,3.1293,3.1142,3.1333,3.1753,3.2508,3.3662,3.4212,3.456,3.4811,3.5304,3.6704,3.8098,3.8827,0.1742,0.4094,0.6441,0.8696,1.0863,1.1893,1.327,1.4992,1.5941,1.7058,1.8572,2.0354,2.1945,2.3416,2.4402,2.5777,2.755,2.8205,2.9501,3.1398,3.2082,3.3114,3.4504,3.528,3.6869,3.9105,4.0566,4.2489,4.4649,4.5259,4.5608,4.5897,4.6471,4.6673,4.6395,4.4784,4.4017,4.3914,4.1486,4.0077,4.0273,3.8629,3.7974,3.841,3.9046,3.8774,3.7553,3.7855,3.798,3.7753,3.8057,3.8208,3.8258,3.8559,3.8908,3.928,3.9255,3.9279,3.9403,3.9279,3.918,3.9205,3.9328,3.9354,3.8958,3.8856,3.8654,3.8281,3.7597,3.7546,3.7726,3.7675,3.7369,3.6908,3.6205,3.5523,3.494,3.3976,3.3054,3.2944,3.336,3.4523,3.6211,3.7448,3.8182,3.8709,3.9032,3.928,3.9625,3.9918,3.9967,3.9844,3.9697,3.923,3.8094,3.665,3.5511,3.4472,3.3308,3.2238,3.1227,3.0144,2.9501,2.933,2.9102,2.9384,2.9268,3.0331,3.0966,3.154,3.288,3.3532,3.4848,3.6047,3.712,-0.0608,0.1128,0.4084,0.6689,0.8861,0.9999,1.1468,1.3178,1.4122,1.5833,1.802,1.9672,2.1413,2.2918,2.2629,2.312,2.4419,2.6521,2.7918,2.9041,3.1101,3.2647,3.357,3.5126,3.7107,3.9399,4.0792,4.2791,4.5293,4.5525,4.5897,4.6497,4.7046,4.7066,4.6647,4.602,4.5664,4.5507,4.3791,4.3408,4.432,4.2221,4.1713,4.2771,4.2615,4.1326,3.9231,3.8933,3.8883,3.8635,3.8635,3.8585,3.8659,3.9107,3.955,4.0013,4.0256,4.0423,4.0423,4.0391,4.0339,4.0398,4.0349,4.0179,3.9672,3.9799,3.9528,3.8659,3.8409,3.8535,3.9131,3.8509,3.7855,3.7113,3.6748,3.5996,3.4971,3.4416,3.3825,3.3305,3.3489,3.4545,3.6275,3.7681,3.8784,3.9672,3.9743,3.9644,3.9836,4.0054,3.9927,3.961,3.9174,3.8342,3.6121,3.4633,3.3738,3.2821,3.163,3.0236,2.933,2.8432,2.7877,2.7437,2.7246,2.6972,2.6639,2.7024,2.7966,2.8904,3.0278,3.1264,3.2221,3.3714,3.5221,-0.1829,-0.0417,0.1353,0.3949,0.7049,0.8354,0.9999,1.1715,1.3006,1.485,1.6936,1.7831,1.8902,2.0112,2.0794,2.2363,2.4427,2.5438,2.7176,2.9592,3.0623,3.2156,3.3789,3.4872,3.6695,3.921,4.0376,4.2238,4.4859,4.593,4.6674,4.7077,4.7805,4.8202,4.8269,4.7916,4.7734,4.7598,4.6782,4.6269,4.6525,4.7793,4.8646,4.8602,4.62,4.4064,4.2645,4.1291,4.0423,4.0156,4.0037,3.9891,3.9891,4.0184,4.0452,4.0571,4.0693,4.0693,4.0741,4.0737,4.0711,4.0715,4.0733,4.0516,4.0111,4.0189,4.0092,3.9525,3.8584,3.8208,3.8659,3.8156,3.7726,3.7753,3.7369,3.6523,3.5289,3.5372,3.4874,3.376,3.403,3.463,3.5086,3.694,3.9131,4.0343,3.9851,3.929,3.9873,3.9456,3.8682,3.7689,3.799,3.6944,3.438,3.2723,3.1767,3.095,3.039,2.9087,2.7437,2.703,2.6547,2.4675,2.5148,2.5089,2.4631,2.5566,2.669,2.7198,2.8046,2.9118,2.9917,3.1883,3.3573,-0.3101,-0.1553,-0.0331,0.2098,0.5088,0.6875,0.873,1.0658,1.1698,1.3446,1.5548,1.5789,1.6652,1.8165,1.9488,2.1292,2.3507,2.4722,2.6677,2.8953,3.0365,3.1799,3.3503,3.4654,3.6824,3.9565,4.0456,4.2252,4.4718,4.6217,4.7128,4.7694,4.8577,4.8858,4.8645,4.8782,4.8937,4.9061,4.9103,4.9494,5.0362,5.2386,5.3109,5.2017,4.9202,4.6894,4.5204,4.3311,4.219,4.2004,4.1865,4.1725,4.1631,4.1845,4.1898,4.1643,4.1596,4.1523,4.1313,4.1265,4.1287,4.1313,4.0906,4.0423,3.9942,3.9746,3.9672,3.9574,3.8734,3.8208,3.8585,3.8107,3.7777,3.7702,3.7601,3.6936,3.5553,3.5793,3.5561,3.4385,3.4492,3.4865,3.5425,3.6861,3.8809,4.0703,4.0061,3.9207,3.9495,3.9032,3.7949,3.6613,3.5636,3.4221,3.1656,3.0217,2.8965,2.7825,2.7291,2.6383,2.412,2.3589,2.3125,2.1725,2.2027,2.2283,2.2315,2.2899,2.3529,2.4663,2.5491,2.6447,2.8112,2.9837,3.1138,-0.4131,-0.2517,-0.1222,0.0734,0.3179,0.5472,0.7598,0.9372,1.0218,1.1888,1.3895,1.3659,1.4705,1.6761,1.8394,1.9997,2.1695,2.4276,2.6197,2.7676,2.9868,3.1664,3.2997,3.4834,3.7148,3.9712,4.0972,4.2638,4.4835,4.6217,4.7323,4.822,4.926,4.9286,4.8573,4.931,4.9836,4.998,5.1195,5.2879,5.5098,5.5927,5.5498,5.3621,5.1709,4.9524,4.7025,4.5001,4.3982,4.3893,4.3804,4.3687,4.3509,4.3732,4.3581,4.305,4.3005,4.2776,4.2363,4.2224,4.2084,4.1971,4.1127,4.0406,3.9844,3.8983,3.8636,3.866,3.8435,3.8134,3.856,3.8234,3.778,3.7448,3.7574,3.7165,3.595,3.6055,3.5973,3.5024,3.5024,3.5425,3.6471,3.7145,3.8462,4.0711,3.9717,3.8898,3.8764,3.8379,3.7524,3.5399,3.3159,3.0634,2.8185,2.6594,2.5165,2.3949,2.2746,2.1457,1.9971,1.9074,1.8702,1.789,1.8493,1.8678,1.8628,1.885,1.9394,2.1192,2.2116,2.3094,2.6138,2.7895,2.8432,-0.4875,-0.3258,-0.1739,-0.0319,0.1037,0.4212,0.5793,0.6593,0.9305,1.0953,1.1666,1.2367,1.3501,1.5211,1.7407,1.9182,2.0872,2.32,2.5333,2.7365,2.9438,3.1374,3.3351,3.5362,3.7361,3.9316,4.0994,4.2781,4.4635,4.6314,4.7496,4.833,5.0119,5.0747,5.0158,5.1547,5.2029,5.1755,5.4101,5.5638,5.6215,5.7254,5.6848,5.4936,5.3843,5.1949,4.9011,4.7019,4.5635,4.4999,4.4611,4.4452,4.4409,4.4655,4.4741,4.4611,4.4568,4.4524,4.435,4.3732,4.3068,4.2363,4.1878,4.1313,4.0548,3.9131,3.7831,3.6837,3.6373,3.6246,3.6763,3.6528,3.6626,3.7546,3.7648,3.7165,3.6153,3.7038,3.7271,3.5553,3.5921,3.6442,3.6683,3.7631,3.871,3.9321,3.8659,3.8043,3.7755,3.7144,3.5525,3.2943,3.06,2.7744,2.483,2.2682,2.0794,1.9277,1.8738,1.7291,1.5563,1.456,1.4086,1.3328,1.3708,1.4465,1.4924,1.6085,1.7449,1.7997,1.8876,2.018,2.296,2.518,2.6698,-0.6309,-0.4348,-0.2937,-0.1322,0.0389,0.252,0.4273,0.6005,0.791,0.9195,1.0121,1.0801,1.2301,1.4398,1.6242,1.7997,1.9694,2.1659,2.3834,2.6027,2.7949,2.9998,3.2399,3.4823,3.6861,3.8531,4.0999,4.3068,4.4552,4.6516,4.8002,4.9153,5.0672,5.1812,5.2342,5.3386,5.3884,5.3582,5.2571,5.2195,5.2478,5.2344,5.1444,4.9784,5.0511,4.961,4.7104,4.5149,4.3842,4.3093,4.2954,4.3376,4.4445,4.4415,4.495,4.6129,4.5848,4.5625,4.5525,4.4914,4.4306,4.3804,4.2859,4.2236,4.2117,4.0612,3.881,3.6968,3.5927,3.538,3.541,3.5508,3.595,3.6908,3.7444,3.7291,3.6673,3.7652,3.778,3.639,3.6753,3.7421,3.7655,3.836,3.8928,3.9161,3.9684,3.9243,3.8066,3.2924,2.9209,3.0719,2.5004,2.0683,2.0297,1.8066,1.5056,1.2142,1.1601,1.0724,0.9252,0.9824,0.965,0.9021,1.0011,1.0976,1.1501,1.2711,1.3852,1.4546,1.5897,1.7149,1.911,2.1981,2.3514,-0.7521,-0.5247,-0.3884,-0.183,0.0535,0.1069,0.3277,0.6247,0.6323,0.7386,0.9209,0.9803,1.1461,1.3883,1.5269,1.6891,1.8648,2.0497,2.2502,2.4584,2.6559,2.8606,3.0799,3.3726,3.5913,3.7646,4.0678,4.2987,4.4528,4.6491,4.8445,5.0117,5.109,5.2442,5.4307,5.4941,5.5256,5.5214,5.0426,4.8346,4.9186,4.7619,4.5839,4.3928,4.6138,4.6064,4.3236,4.2134,4.1052,3.9988,4.0116,4.1241,4.335,4.2848,4.3887,4.6573,4.5935,4.5563,4.5799,4.5436,4.5332,4.5664,4.4134,4.3233,4.3613,4.2415,4.063,3.8137,3.6171,3.5011,3.4395,3.4555,3.5033,3.6025,3.6856,3.7291,3.701,3.7905,3.8134,3.7165,3.7625,3.8484,3.9181,3.95,3.9624,3.9793,4.0656,4.1033,3.757,2.9601,2.6411,2.7248,1.7469,1.0215,0.9701,0.9314,0.5404,0.2841,0.2008,0.1733,0.2173,0.3962,0.5079,0.5149,0.6207,0.7374,0.8162,0.8236,0.9517,1.1444,1.2711,1.3987,1.5625,1.7518,1.9049,-0.6923,-0.4726,-0.2513,-0.0991,0.0229,0.168,0.3205,0.465,0.0,0.0,0.0,1.1003,1.2144,1.3208,1.5657,1.7279,1.8375,2.143,2.3517,2.4658,2.7361,2.9062,2.9917,3.2554,3.4635,3.6353,3.9265,4.1813,4.4092,4.5895,4.8063,5.0327,5.1194,5.2743,5.5065,5.5927,5.5845,5.4936,5.4417,5.5082,5.6812,5.5694,5.2284,4.6487,4.833,4.6141,3.9478,4.1684,4.1422,3.7793,3.7967,3.8724,3.9731,3.862,3.9593,4.3059,4.2002,4.2163,4.4426,4.3851,4.4595,4.7377,4.627,4.4899,4.3495,4.3083,4.1645,3.8882,3.5815,3.3868,3.3609,3.2444,3.2676,3.5425,3.5666,3.6032,3.6833,3.8033,3.8485,3.7929,3.8933,4.0037,4.023,4.1182,4.1495,4.0549,4.1289,4.086,3.903,3.868,3.4696,2.2225,0.7339,-0.4642,-0.7702,-1.0401,-1.1828,-0.918,-0.8576,-0.6812,-0.3233,-0.1608,-0.0878,0.0,0.0907,0.214,0.3507,0.4803,0.6356,0.785,0.888,1.0293,1.2829,1.2654,1.2251,-0.8211,0.0,-0.3963,-0.2363,0.0,0.0229,0.2136,0.465,0.5487,0.723,0.9506,1.0621,1.1987,1.3508,1.5657,1.6992,1.7869,2.0456,2.2257,2.3423,2.5812,2.7646,2.8932,3.1665,3.3599,3.4882,3.7966,4.055,4.2574,4.4413,4.6312,4.8356,4.9092,4.9662,5.0031,5.204,5.3198,5.3646,5.3398,5.3662,5.4396,5.2212,4.8862,4.4697,4.6894,0.0,0.0,0.0,0.0,0.0,0.0,0.0,0.0,0.0,0.0,4.0429,3.7751,3.6803,3.842,3.876,4.0256,4.3398,4.3105,4.2082,4.0612,4.0726,3.9834,3.7403,3.5049,3.3496,3.3193,3.2382,3.2183,3.2874,3.4244,3.5275,3.577,3.7451,3.8385,3.803,3.9427,4.0876,4.1417,4.2358,4.268,4.2368,4.3162,4.3217,4.1696,4.3843,3.8536,1.9151,0.0482,-1.2841,-1.5615,-1.8662,-2.0349,-2.094,-1.822,-1.5237,-1.3099,-0.9284,-0.6121,-0.5328,-0.3749,-0.2459,-0.1425,0.0649,0.2665,0.3699,0.5127,0.661,0.6709,0.7094,0.7617,-0.935,-0.6323,-0.5185,-0.3431,-0.1373,-0.1215,0.1133,0.4812,0.6312,0.7739,0.9163,1.0012,1.1672,1.3941,1.5481,1.6634,1.7573,1.9525,2.1154,2.2345,2.4437,2.6308,2.8026,3.0725,3.2576,3.3675,3.6755,3.9402,4.144,4.2915,4.4745,4.6757,4.7769,4.7522,4.6268,0.0,0.0,0.0,5.1861,5.2055,5.2213,4.8705,4.5506,4.3053,4.5556,0.0,4.3164,4.3762,4.3586,4.2398,4.1997,0.0,0.0,0.0,0.0,0.0,0.0,0.0,0.0,0.0,0.0,0.0,3.8298,3.7814,3.7687,3.8118,3.7385,3.5058,3.4386,3.3561,3.2264,3.182,3.1305,3.0633,3.2619,3.4191,3.4617,3.6763,3.8284,3.8131,3.9891,4.1631,4.2705,4.3576,4.4173,4.4433,4.57,4.6094,4.507,4.7322,4.0609,1.9824,0.0756,-1.457,-2.2429,-2.7386,-3.1683,-3.169,-2.8422,-2.48,-2.2734,-1.6879,-1.2775,-1.0322,-0.8568,-0.7021,-0.6388,-0.4147,-0.1949,-0.0649,0.1233,0.2142,0.0195,0.162,0.3819,-0.8509,-0.5414,-0.3122,-0.1449,-0.0229,-0.0672,0.1167,0.4357,0.507,0.6711,0.907,1.035,1.1827,1.3431,1.494,1.6254,1.7522,2.0739,2.2326,2.2636,2.5338,2.6747,2.7094,2.9438,3.1499,3.3205,3.5754,3.873,4.1977,4.2435,4.468,4.8716,5.0425,5.1172,5.1107,4.9971,4.9469,4.9674,5.3911,5.725,5.9388,5.559,5.1438,4.7181,4.7731,4.5908,4.1168,4.3496,4.3482,4.0301,3.9843,4.0158,4.1144,3.7738,3.4839,0.0,2.986,0.0,0.0,0.0,0.0,0.0,0.0,0.0,0.0,3.7383,3.5837,3.2302,3.4325,3.4101,2.9863,2.7649,2.7691,3.0755,3.0484,3.1316,3.4661,3.6585,3.8111,3.9328,4.1234,4.2841,4.3793,4.5509,4.6293,4.5943,4.7451,4.8868,5.0184,5.1851,4.5625,2.3977,0.9498,-1.0093,-3.5526,-4.6531,-4.7831,-4.4334,-4.1372,-3.7386,-2.7888,-2.4518,-2.1463,-1.5986,-1.3952,-1.2802,-1.0807,-0.9289,-0.7236,-0.4723,-0.3308,-0.2986,-0.4207,-0.3241,-0.0909,-0.9374,-0.6423,-0.4768,-0.2474,0.0073,0.1519,0.3431,0.5655,0.6997,0.8685,1.0715,1.1335,1.2661,1.4554,1.6641,1.767,1.8099,2.1369,2.2828,2.3044,2.611,2.7879,2.8414,3.0349,3.2055,3.3535,3.5731,3.8059,4.0314,4.1435,4.3061,4.5278,4.6841,4.7054,4.6106,4.9137,5.171,5.3436,5.6777,5.9571,6.1608,5.8159,5.5101,5.2884,5.2175,5.0524,4.7779,4.9067,4.8926,4.6969,4.6209,4.5686,4.5129,3.7477,3.294,0.0,0.0,0.0,0.0,0.0,0.0,0.0,0.0,0.0,0.0,0.0,3.3028,3.3588,3.6967,3.6346,2.969,2.8533,2.7846,2.7126,2.683,2.7558,2.9945,3.3587,3.5982,3.6193,3.9681,4.2526,4.369,4.5309,4.655,4.7041,4.8534,4.9403,4.9183,5.1833,4.8254,3.178,1.7723,-0.0829,-2.6618,-4.3731,-5.3401,-5.1825,-4.8206,-4.3902,-3.9014,-3.3071,-2.7743,-2.424,-2.0326,-1.7305,-1.6625,-1.4426,-1.1864,-1.01,-0.9602,-0.9481,-0.9097,-0.7305,-0.48,-0.9926,-0.6969,-0.5198,-0.2263,0.1307,0.3916,0.5994,0.7552,0.9141,1.101,1.2969,1.3072,1.4136,1.5974,1.7857,1.8624,1.8477,2.1531,2.3087,2.3537,2.6758,2.8759,2.9653,3.143,3.2861,3.4073,3.6136,3.7881,3.918,4.0289,4.0974,4.128,4.2819,4.3001,4.2085,4.8105,5.316,5.6867,5.8976,6.0519,6.1419,5.8524,5.6825,5.6604,5.5374,5.4386,5.3742,5.3683,5.3443,5.2958,5.0601,4.8839,4.7755,3.6897,0.0,0.0,0.0,0.0,0.0,0.0,0.0,0.0,0.0,2.801,2.3192,0.0,3.0703,0.0,3.8192,3.7687,3.1598,3.0255,0.0,0.0,2.4184,2.4193,2.5747,3.0172,3.3173,3.3146,3.7587,4.1303,4.2838,4.4487,4.6115,4.7777,4.9456,4.974,4.7665,5.0728,4.8976,3.6628,2.2801,0.7064,-1.2815,-3.4557,-5.1113,-5.6567,-5.3035,-4.908,-4.834,-4.109,-3.4555,-3.1383,-2.6671,-2.3229,-2.1739,-1.8952,-1.6593,-1.6263,-1.6305,-1.5826,-1.3201,-1.0458,-0.7641,-0.8955,-0.5759,-0.1584,0.1843,0.4528,0.5973,0.7915,0.9997,1.0572,1.2597,1.5624,1.5909,1.6482,1.7282,1.7287,0.0,1.8592,2.12,2.294,2.3979,2.7065,2.8894,2.9634,3.1928,3.3468,3.4428,3.6833,3.8685,3.9864,3.9051,3.8535,3.8468,4.057,4.2456,4.4127,4.7683,5.1976,5.672,5.9607,6.023,5.8532,5.6681,5.5653,5.557,5.5173,5.4767,5.4338,5.3909,5.3692,5.3528,4.7383,4.3948,4.404,0.0,0.0,0.0,0.0,0.0,0.0,0.0,0.0,0.0,0.0,0.0,0.0,0.0,0.0,0.0,3.5907,0.0,3.6189,3.1452,0.0,0.0,0.0,2.21,2.4536,2.7365,2.9895,3.21,0.0,0.0,4.1288,4.3242,4.5246,4.7531,5.0725,5.1947,4.9676,5.0821,4.8126,3.7018,2.4224,0.9251,-0.8346,-2.6324,-4.244,-5.5581,-5.8801,-5.5733,-5.0755,-4.8325,-4.4189,-3.5035,-3.3177,-3.1491,-2.5112,-2.2932,-2.2155,-2.3335,-2.2243,-1.9821,-1.5731,-1.2592,-0.9523,-0.7093,-0.2227,0.1201,0.3671,0.5488,0.7564,0.9774,1.195,1.3859,1.5526,1.7007,1.7927,1.8305,1.8282,1.8046,0.0,0.0,0.0,2.292,2.3706,2.7625,3.009,3.1516,3.3836,3.5425,3.6494,3.8335,3.9745,4.0733,4.1396,3.8306,3.1844,0.0,0.0,3.6246,4.311,4.8978,5.3575,5.8557,6.0482,5.9183,5.8606,5.775,5.6618,5.5965,5.5254,5.4562,5.4096,5.2078,4.8247,4.5149,4.1748,0.0,0.0,0.0,0.0,0.0,0.0,0.0,0.0,0.0,0.0,0.0,2.4127,2.1496,0.0,0.0,0.0,2.841,2.7369,2.7917,2.9458,0.0,0.0,0.0,0.0,0.0,0.0,0.0,3.0211,3.4456,3.835,4.1361,4.2844,4.4133,4.5422,4.733,4.7681,4.5124,0.0,4.7373,4.2376,3.025,1.6971,0.3497,-1.395,-3.1154,-4.6409,-5.3635,-5.6415,-5.4053,-5.235,-4.8618,-4.1684,-3.7867,-3.4488,-2.8605,-2.7211,-2.6887,-2.628,-2.3618,-2.0091,-1.6169,-1.3299,-1.0583,-0.3506,0.0,0.0,0.0,0.0,0.9946,1.1934,1.3716,1.6096,1.7634,1.8501,1.9601,0.0,0.0,0.0,0.0,0.0,0.0,2.3091,2.3609,2.8302,3.1223,3.2423,3.4872,3.6278,3.6909,3.8604,3.9285,3.9138,4.0798,3.7043,2.8218,0.0,0.0,0.0,0.0,4.604,5.0381,5.6666,5.968,5.9171,5.9323,5.883,5.768,5.67,5.5789,5.481,5.2709,4.9404,4.48,4.1007,0.0,0.0,0.0,0.0,0.0,0.0,0.0,0.0,0.0,0.0,0.0,0.0,0.0,0.0,0.0,0.0,0.0,0.0,0.0,2.4853,2.8957,2.9728,0.0,0.0,0.0,0.0,0.0,0.0,0.0,0.0,0.0,4.0317,4.2365,4.4073,0.0,0.0,4.7206,4.4344,4.5327,4.5652,4.3839,3.3356,0.0,1.1809,-0.4413,-2.1129,-3.6644,-4.7449,-5.4175,-5.4679,-5.3253,-5.0116,-4.4073,-4.0872,-3.709,-3.166,-3.0016,-2.8851,-2.6538,-2.3364,-1.9784,-1.6003,-1.3604,-1.1392,0.0,0.0,0.0,0.0,0.0,0.0,0.0,0.0,1.6754,1.839,0.0,2.0833,0.0,0.0,0.0,0.0,0.0,2.2154,0.0,0.0,2.9195,3.1922,3.1838,3.4328,3.5326,3.5026,3.6964,3.653,3.4017,3.5452,0.0,0.0,0.0,0.0,0.0,0.0,4.3578,4.7438,5.4074,5.7475,5.7461,5.7817,5.8103,5.8267,5.7278,5.6179,5.4969,4.9113,4.5603,4.5064,3.4029,0.0,0.0,0.0,0.0,0.0,0.0,0.0,0.0,0.0,0.0,0.0,0.0,0.0,0.0,0.0,0.0,0.0,0.0,0.0,0.0,3.1247,0.0,0.0,0.0,0.0,0.0,0.0,0.0,0.0,0.0,0.0,3.755,4.1719,4.5699,4.8359,0.0,0.0,0.0,0.0,4.2753,3.8554,3.1207,2.2506,1.1533,-0.045,-1.3955,-3.0158,0.0,0.0,-5.044,-5.1708,-4.9786,-4.1899,-4.1489,-4.0194,-3.2952,-2.9817,-2.7764,-2.4175,-2.1779,-1.9291,-1.5427,-1.3252,-1.1781,0.0,0.0,0.0,0.0,0.0,0.0,0.0,0.0,0.0,2.0702,0.0,2.1437,0.0,0.0,0.0,0.0,0.0,0.0,0.0,0.0,2.6987,2.897,2.8921,3.2045,3.3477,0.0,3.4653,3.2743,0.0,0.0,0.0,0.0,0.0,0.0,0.0,0.0,4.1416,4.4421,5.2773,5.7405,5.7707,5.8004,5.8308,5.855,5.7875,5.4927,4.9541,4.5826,4.2021,0.0,0.0,0.0,0.0,0.0,0.0,0.0,0.0,0.0,0.0,0.0,0.0,0.0,0.0,0.0,0.0,0.0,0.0,0.0,0.0,0.0,0.0,0.0,3.2226,0.0,0.0,0.0,0.0,0.0,0.0,0.0,0.0,0.0,3.7876,4.0516,4.3526,4.745,4.9686,5.1019,5.1182,0.0,0.0,0.0,0.0,0.0,0.0,0.0,-0.2767,-1.7014,-2.6363,-3.4338,-4.1602,-4.657,-4.7578,-4.161,0.0,0.0,-2.2775,-1.9692,-1.8835,-1.7308,-1.5934,-1.3969,-1.0636,-0.914,-0.7835,0.0,0.0,0.0,0.0,0.0,0.0,0.0,0.0,0.0,2.1624,2.0838,0.0,0.0,0.0,0.0,0.0,0.0,0.0,0.0,0.0,0.0,0.0,2.7303,3.0043,0.0,0.0,0.0,0.0,0.0,0.0,0.0,0.0,0.0,0.0,0.0,0.0,4.0884,4.2993,5.2285,5.748,5.7928,5.8323,5.8573,5.8779,5.8285,5.4465,4.6952,0.0,0.0,0.0,0.0,0.0,0.0,0.0,0.0,0.0,0.0,0.0,0.0,0.0,0.0,0.0,0.0,0.0,0.0,0.0,0.0,0.0,0.0,0.0,0.0,0.0,3.3227,0.0,0.0,0.0,0.0,0.0,0.0,0.0,0.0,0.0,0.0,0.0,4.2004,4.5601,4.8536,5.0818,5.1996,4.9624,4.8177,0.0,0.0,0.0,0.0,0.0,0.0,0.0,0.0,0.0,0.0,0.0,0.0,0.0,0.0,-2.6035,-1.2965,-1.0141,-0.9616,-0.9218,0.0,0.0,0.0,0.0,0.0,0.0,0.0,0.0,0.0,0.0,0.0,0.0,0.0,0.0,0.0,0.0,0.0,0.0,2.2304,0.0,0.0,0.0,0.0,0.0,0.0,0.0,0.0,0.0,0.0,0.0,0.0,0.0,0.0,0.0,0.0,0.0,0.0,0.0,0.0,0.0,0.0,4.1966,4.284,5.2514,5.7694,5.7961,5.856,5.8908,5.8908,5.8367,5.4767,4.769,0.0,0.0,0.0,0.0,0.0,0.0,0.0,0.0,0.0,0.0,0.0,0.0,0.0,0.0,0.0,0.0,0.0,0.0,0.0,0.0,0.0,0.0,0.0,0.0,0.0,0.0,3.058,3.2462,3.3288,0.0,0.0,0.0,0.0,0.0,0.0,0.0,0.0,0.0,0.0,4.8905,5.2915,5.2674,4.7402,4.3816,4.3827,3.5098,2.7155,2.3857,1.7827,0.9001,0.0,0.0,0.0,0.0,0.0,0.0,0.0,0.0,0.0,0.0,0.0,0.0,0.0,0.0,0.0,0.0,0.0,0.0,0.0,0.0,0.0,0.0,0.0,0.0,0.0,0.0,0.0,0.0,0.0,0.0,0.0,0.0,0.0,0.0,0.0,0.0,0.0,0.0,0.0,0.0,0.0,0.0,0.0,0.0,0.0,0.0,0.0,0.0,0.0,0.0,0.0,0.0,0.0,0.0,4.2086,4.3096,5.2596,5.7778,5.8345,5.8692,5.8908,5.8871,5.7385,5.3316,0.0,0.0,0.0,0.0,0.0,0.0,0.0,0.0,0.0,0.0,0.0,0.0,0.0,0.0,0.0,0.0,0.0,0.0,0.0,0.0,0.0,0.0,0.0,0.0,0.0,0.0,0.0,0.0,3.641,3.6435,3.3203,0.0,0.0,0.0,0.0,0.0,0.0,0.0,0.0,0.0,0.0,5.1407,5.2866,5.0615,4.8728,4.8799,4.0481,3.3001,2.9759,2.3599,1.6411,0.8388,0.0,0.0,0.0,0.0,0.0,0.0,0.0,0.0,0.0,0.0,0.0,0.0,0.0,0.0,0.0,0.0,0.0,0.0,0.0,0.0,0.0,0.0,0.0,0.0,0.0,0.0,0.0,0.0,0.0,0.0,0.0,0.0,0.0,0.0,0.0,0.0,0.0,0.0,0.0,0.0,0.0,0.0,0.0,0.0,0.0,0.0,0.0,0.0,0.0,0.0,0.0,0.0,0.0,4.2152,4.3237,5.2679,5.7882,5.8395,5.8807,5.8945,5.8908,5.7045,5.2224,0.0,0.0,0.0,0.0,0.0,0.0,0.0,0.0,0.0,0.0,0.0,0.0,0.0,0.0,0.0,0.0,0.0,0.0,0.0,0.0,0.0,0.0,0.0,0.0,0.0,0.0,0.0,0.0,3.4585,3.5386,3.3003,0.0,0.0,0.0,0.0,0.0,0.0,0.0,0.0,0.0,0.0,5.007,5.1914,4.9938,0.0,0.0,4.1691,3.44,3.1888,2.8087,2.3081,1.609,1.4008,0.0,0.0,0.0,0.0,0.0,0.0,0.0,0.0,0.0,0.0,0.0,0.0,0.0,0.0,0.0,0.0,0.0,0.0,0.0,0.0,0.0,0.0,0.0,0.0,0.0,0.0,0.0,0.0,0.0,0.0,0.0,0.0,0.0,0.0,0.0,0.0,0.0,0.0,0.0,0.0,0.0,0.0,0.0,0.0,0.0,0.0,0.0,0.0,0.0,0.0,0.0,0.0,0.0,4.347,5.278,5.7932,5.833,5.8797,5.9042,5.8859,5.7071,5.1467,0.0,0.0,0.0,0.0,0.0,0.0,0.0,0.0,0.0,0.0,0.0,0.0,0.0,0.0,0.0,0.0,0.0,0.0,0.0,0.0,0.0,0.0,0.0,0.0,0.0,0.0,0.0,0.0,0.0,0.0,0.0,0.0,0.0,0.0,0.0,0.0,0.0,0.0,0.0,0.0,0.0,4.891,5.0313,4.6683,4.4759,0.0,0.0,3.2392,3.0486,3.0978,2.8761,2.006,0.0,0.0,0.0,0.0,0.0,0.0,0.0,0.0,0.0,0.0,0.0,0.0,0.0,0.0,0.0,0.0,0.0,0.0,0.0,0.0,0.0,0.0,0.0,0.0,0.0,0.0,0.0,0.0,0.0,0.0,0.0,0.0,0.0,0.0,0.0,0.0,0.0,0.0,0.0,0.0,0.0,0.0,0.0,0.0,0.0,0.0,0.0,0.0,0.0,0.0,0.0,0.0,0.0,0.0,4.3579,5.2776,5.7965,5.8718,5.8884,5.8896,5.8845,5.6193,0.0,0.0,0.0,0.0,0.0,0.0,0.0,0.0,0.0,0.0,0.0,0.0,0.0,0.0,0.0,0.0,0.0,0.0,0.0,0.0,0.0,0.0,0.0,0.0,0.0,0.0,0.0,2.3986,0.0,0.0,0.0,0.0,0.0,0.0,0.0,0.0,0.0,0.0,0.0,0.0,0.0,0.0,4.8723,5.0331,4.6967,4.4329,0.0,0.0,3.1943,2.754,2.9744,3.0214,0.0,0.0,0.0,0.0,0.0,0.0,0.0,0.0,0.0,0.0,0.0,0.0,0.0,0.0,0.0,0.0,0.0,0.0,0.0,0.0,0.0,0.0,0.0,0.0,0.0,0.0,0.0,0.0,0.0,0.0,0.0,0.0,0.0,0.0,0.0,0.0,0.0,0.0,0.0,0.0,0.0,0.0,0.0,0.0,0.0,0.0,0.0,0.0,0.0,0.0,0.0,0.0,0.0,0.0,4.0568,4.4632,5.117,5.5994,5.8784,5.897,5.8981,5.8979,5.5886,5.0662,0.0,0.0,0.0,0.0,0.0,0.0,0.0,0.0,0.0,0.0,0.0,0.0,0.0,0.0,0.0,0.0,0.0,0.0,0.0,0.0,0.0,0.0,0.0,0.0,0.0,0.0,0.0,0.0,0.0,0.0,0.0,0.0,0.0,0.0,0.0,0.0,0.0,0.0,0.0,0.0,0.0,0.0,5.0053,4.6559,0.0,0.0,0.0,3.3994,2.9789,0.0,0.0,0.0,0.0,0.0,0.0,0.0,0.0,0.0,0.0,0.0,0.0,0.0,0.0,0.0,0.0,0.0,0.0,0.0,0.0,0.0,0.0,0.0,0.0,0.0,0.0,0.0,0.0,0.0,0.0,0.0,0.0,0.0,0.0,0.0,0.0,0.0,0.0,0.0,0.0,0.0,0.0,0.0,0.0,0.0,0.0,0.0,0.0,0.0,0.0,0.0,0.0,0.0,0.0,0.0,0.0,0.0,4.5666,4.944,5.3765,5.8598,5.903,5.9089,5.9052,5.6035,5.124,0.0,0.0,0.0,0.0,0.0,0.0,0.0,0.0,0.0,0.0,0.0,0.0,0.0,0.0,0.0,0.0,0.0,0.0,0.0,0.0,0.0,0.0,0.0,0.0,0.0,0.0,0.0,0.0,0.0,0.0,0.0,0.0,0.0,0.0,0.0,0.0,0.0,0.0,0.0,0.0,0.0,4.7949,4.9678,4.5951,4.2816,0.0,0.0,3.6807,3.3971,3.6282,0.0,0.0,0.0,0.0,0.0,0.0,0.0,0.0,0.0,0.0,0.0,0.0,0.0,0.0,0.0,0.0,0.0,0.0,0.0,0.0,0.0,0.0,0.0,0.0,0.0,0.0,0.0,0.0,0.0,0.0,0.0,0.0,0.0,0.0,0.0,0.0,0.0,0.0,0.0,0.0,0.0,0.0,0.0,0.0,0.0,0.0,0.0,0.0,0.0,0.0,0.0,0.0,0.0,0.0,0.0,0.0,4.59,5.162,5.6001,5.8747,5.8908,5.8945,5.8881,5.676,5.2093,0.0,0.0,0.0,0.0,0.0,0.0,0.0,0.0,0.0,0.0,0.0,0.0,0.0,0.0,0.0,0.0,0.0,0.0,0.0,0.0,0.0,0.0,0.0,0.0,0.0,0.0,0.0,0.0,0.0,0.0,0.0,0.0,0.0,0.0,0.0,0.0,0.0,0.0,0.0,0.0,0.0,4.6512,4.9501,4.6648,0.0,0.0,0.0,0.0,3.3597,3.455,0.0,0.0,0.0,0.0,0.0,0.0,0.0,0.0,0.0,0.0,0.0,0.0,0.0,0.0,0.0,0.0,0.0,0.0,0.0,0.0,0.0,0.0,0.0,0.0,0.0,0.0,0.0,0.0,0.0,0.0,0.0,0.0,0.0,0.0,0.0,0.0,0.0,0.0,0.0,0.0,0.0,0.0,0.0,0.0,0.0,0.0,0.0,0.0,0.0,0.0,0.0,0.0,0.0,0.0,0.0,0.0,4.7845,5.0703,5.4236,5.8709,5.8846,5.8846,5.8869,5.7006,5.2251,0.0,0.0,0.0,0.0,0.0,0.0,0.0,0.0,0.0,0.0,0.0,0.0,0.0,0.0,0.0,0.0,0.0,0.0,0.0,0.0,0.0,0.0,0.0,0.0,0.0,0.0,0.0,0.0,0.0,0.0,0.0,0.0,0.0,0.0,0.0,0.0,0.0,0.0,0.0,0.0,4.3864,4.4751,4.7958,0.0,0.0,0.0,0.0,0.0,0.0,3.6311,3.638,0.0,0.0,0.0,0.0,0.0,0.0,0.0,0.0,0.0,0.0,0.0,0.0,0.0,0.0,0.0,0.0,0.0,0.0,0.0,0.0,0.0,0.0,0.0,0.0,0.0,0.0,0.0,0.0,0.0,0.0,0.0,0.0,0.0,0.0,0.0,0.0,0.0,0.0,0.0,0.0,0.0,0.0,0.0,0.0,0.0,0.0,0.0,0.0,0.0,0.0,0.0,0.0,0.0,0.0,0.0,4.9557,4.9016,5.1831,5.8287,5.8608,5.8746,5.8809,5.6896,5.2019,4.4106,0.0,0.0,0.0,0.0,0.0,0.0,0.0,0.0,0.0,0.0,0.0,0.0,0.0,0.0,0.0,0.0,0.0,0.0,0.0,0.0,0.0,0.0,0.0,0.0,0.0,0.0,0.0,0.0,0.0,0.0,0.0,0.0,0.0,0.0,0.0,0.0,0.0,0.0,0.0,4.2302,4.2813,0.0,0.0,0.0,0.0,0.0,0.0,0.0,0.0,3.8429,0.0,0.0,0.0,0.0,0.0,0.0,0.0,0.0,0.0,0.0,0.0,0.0,0.0,0.0,0.0,0.0,0.0,0.0,0.0,0.0,0.0,0.0,0.0,0.0,0.0,0.0,0.0,0.0,0.0,0.0,0.0,0.0,0.0,0.0,0.0,0.0,0.0,0.0,0.0,0.0,0.0,0.0,0.0,0.0,0.0,0.0,0.0,0.0,0.0,0.0,0.0,0.0,0.0,0.0,0.0,0.0,4.9111,5.2543,5.6586,5.8024,5.8718,5.8692,5.6546,5.1552,4.3738,0.0,0.0,0.0,0.0,0.0,0.0,0.0,0.0,0.0,0.0,0.0,0.0,0.0,0.0,0.0,0.0,0.0,0.0,0.0,0.0,0.0,0.0,0.0,0.0,0.0,0.0,0.0,0.0,0.0,0.0,0.0,0.0,0.0,0.0,0.0,0.0,0.0,0.0,3.8182,3.9357,0.0,0.0,0.0,0.0,0.0,0.0,0.0,0.0,3.843,0.0,0.0,0.0,0.0,0.0,0.0,0.0,0.0,0.0,0.0,0.0,0.0,0.0,0.0,0.0,0.0,0.0,0.0,0.0,0.0,0.0,0.0,0.0,0.0,0.0,0.0,0.0,0.0,0.0,0.0,0.0,0.0,0.0,0.0,0.0,0.0,0.0,0.0,0.0,0.0,0.0,0.0,0.0,0.0,0.0,0.0,0.0,0.0,0.0,0.0,0.0,0.0,0.0,0.0,0.0,0.0,0.0,0.0,5.2569,5.6227,5.7887,5.8638,5.8378,5.461,4.9658,0.0,0.0,0.0,0.0,0.0,0.0,0.0,0.0,0.0,0.0,0.0,0.0,0.0,0.0,0.0,0.0,0.0,0.0,0.0,0.0,0.0,0.0,0.0,0.0,0.0,0.0,0.0,0.0,0.0,0.0,0.0,0.0,0.0,0.0,0.0,0.0,0.0,0.0,0.0,0.0,0.0,0.0,0.0,0.0,0.0,0.0,0.0,0.0,0.0,0.0,0.0,0.0,0.0,0.0,0.0,0.0,0.0,0.0,0.0,0.0,0.0,0.0,0.0,0.0,0.0,0.0,0.0,0.0,0.0,0.0,0.0,0.0,0.0,0.0,0.0,0.0,0.0,0.0,0.0,0.0,0.0,0.0,0.0,0.0,0.0,0.0,0.0,0.0,0.0,0.0,0.0,0.0,0.0,0.0,0.0,0.0,0.0,0.0,0.0,0.0,0.0,0.0,0.0,0.0,0.0,0.0,0.0,0.0,5.195,5.5731,5.7699,5.8555,5.8256,5.3012,4.8021,0.0,0.0,0.0,0.0,0.0,0.0,0.0,0.0,0.0,0.0,0.0,0.0,0.0,0.0,0.0,0.0,0.0,0.0,0.0,0.0,0.0,0.0,0.0,0.0,0.0,0.0,0.0,0.0,0.0,0.0,0.0,0.0,0.0,0.0,0.0,0.0,0.0,0.0,0.0,0.0,0.0,0.0,0.0,0.0,0.0,0.0,0.0,0.0,3.9038,0.0,0.0,0.0,0.0,0.0,0.0,0.0,0.0,0.0,0.0,0.0,0.0,0.0,0.0,0.0,0.0,0.0,0.0,0.0,0.0,0.0,0.0,0.0,0.0,0.0,0.0,0.0,0.0,0.0,0.0,0.0,0.0,0.0,0.0,0.0,0.0,0.0,0.0,0.0,0.0,0.0,0.0,0.0,0.0,0.0,0.0,0.0,0.0,0.0,0.0,0.0,0.0,0.0,0.0,0.0,0.0,0.0,0.0,0.0,5.027,5.4033,5.7128,5.8498,5.7999,5.2934,4.805,0.0,0.0,0.0,0.0,0.0,0.0,0.0,0.0,0.0,0.0,0.0,0.0,0.0,0.0,0.0,0.0,0.0,0.0,0.0,0.0,0.0,0.0,0.0,0.0,0.0,0.0,0.0,0.0,0.0,0.0,0.0,0.0,0.0,0.0,0.0,0.0,0.0,0.0,0.0,0.0,0.0,0.0,0.0,0.0,0.0,0.0,0.0,0.0,0.0,0.0,0.0,0.0,0.0,0.0,0.0,0.0,0.0,0.0,0.0,0.0,0.0,0.0,0.0,0.0,0.0,0.0,0.0,0.0,0.0,0.0,0.0,0.0,0.0,0.0,0.0,0.0,0.0,0.0,0.0,0.0,0.0,0.0,0.0,0.0,0.0,0.0,0.0,0.0,0.0,0.0,0.0,0.0,0.0,0.0,0.0,0.0,0.0,0.0,0.0,0.0,0.0,0.0,0.0,0.0,0.0,0.0,0.0,0.0,4.8586,5.2325,5.5593,5.6687,5.5469,5.0486,4.6045,0.0,0.0,0.0,0.0,0.0,0.0,0.0,0.0,0.0,0.0,0.0,0.0,0.0,0.0,0.0,0.0,0.0,0.0,0.0,0.0,0.0,0.0,0.0,0.0,0.0,0.0,0.0,0.0,0.0,0.0,0.0,0.0,0.0,0.0,0.0,0.0,0.0,0.0,0.0,0.0,0.0,0.0,0.0,0.0,0.0,0.0,0.0,0.0,0.0,0.0,0.0,0.0,0.0,0.0,0.0,0.0,0.0,0.0,0.0,0.0,0.0,0.0,0.0,0.0,0.0,0.0,0.0,0.0,0.0,0.0,0.0,0.0,0.0,0.0,0.0,0.0,0.0,0.0,0.0,0.0,0.0,0.0,0.0,0.0,0.0,0.0,0.0,0.0,0.0,0.0,0.0,0.0,0.0,0.0,0.0,0.0,0.0,0.0,0.0,0.0,0.0,0.0,0.0,0.0,0.0,0.0,0.0,0.0,0.0,5.0605,5.3463,5.4069,5.2186,4.8239,4.4454,0.0,0.0,0.0,0.0,0.0,0.0,0.0,0.0,0.0,0.0,0.0,0.0,0.0,0.0,0.0,0.0,0.0,0.0,0.0,0.0,0.0,0.0,0.0,0.0,0.0,0.0,0.0,0.0,0.0,0.0,0.0,0.0,0.0,0.0,0.0,0.0,0.0,0.0,0.0,0.0,0.0,0.0,0.0,0.0,0.0,0.0,0.0,0.0,0.0,0.0,0.0,0.0,0.0,0.0,0.0,0.0,0.0,0.0,0.0,0.0,0.0,0.0,0.0,0.0,0.0,0.0,0.0,0.0,0.0,0.0,0.0,0.0,0.0,0.0,0.0,0.0,0.0,0.0,0.0,0.0,0.0,0.0,0.0,0.0,0.0,0.0,0.0,0.0,0.0,0.0,0.0,0.0,0.0,0.0,0.0,0.0,0.0,0.0,0.0,0.0,0.0,0.0,0.0,0.0,0.0,0.0,0.0,0.0,0.0,4.9105,5.0831,5.0825,4.8903,4.7115,4.4045,0.0,0.0,0.0,0.0,0.0,0.0,0.0,0.0,0.0,0.0,0.0,0.0,0.0,0.0,0.0,0.0,0.0,0.0,0.0,0.0,0.0,0.0,0.0,0.0,0.0,0.0,0.0,0.0,0.0,0.0,0.0,0.0,0.0,0.0,0.0,0.0,0.0,0.0,0.0,0.0,0.0,0.0,0.0,0.0,0.0,0.0,0.0,0.0,0.0,0.0,0.0,0.0,0.0,0.0,0.0,0.0,0.0,0.0,0.0,0.0,0.0,0.0,0.0,0.0,0.0,0.0,0.0,0.0,0.0,0.0,0.0,0.0,0.0,0.0,0.0,0.0,0.0,0.0,0.0,0.0,0.0,0.0,0.0,0.0,0.0,0.0,0.0,0.0,0.0,0.0,0.0,0.0,0.0,0.0,0.0,0.0,0.0,0.0,0.0,0.0,0.0,0.0,0.0,0.0,0.0,0.0,0.0,0.0,0.0,4.4404,4.5868,4.6881,4.7376,4.3864,4.1165,3.9413,0.0,0.0,0.0,0.0,0.0,0.0,0.0,0.0,0.0,0.0,0.0,0.0,0.0,0.0,0.0,0.0,0.0,0.0,0.0,0.0,0.0,0.0,0.0,0.0,0.0,0.0,0.0,0.0,0.0,0.0,0.0,0.0,0.0,0.0,0.0,0.0,0.0,0.0,0.0,0.0,0.0,0.0,0.0,0.0,0.0,0.0,0.0,0.0,0.0,0.0,0.0,0.0,0.0,0.0,0.0,0.0,0.0,0.0,0.0,0.0,0.0,0.0,0.0,0.0,0.0,0.0,0.0,0.0,0.0,0.0,0.0,0.0,0.0,0.0,0.0,0.0,0.0,0.0,0.0,0.0,0.0,0.0,0.0,0.0,0.0,0.0,0.0,0.0,0.0,0.0,0.0,0.0,0.0,0.0,0.0,0.0,0.0,0.0,0.0,0.0,0.0,0.0,0.0,0.0,0.0,0.0,0.0,0.0,4.2092,4.3743,4.4992,4.5692,4.3158,4.059,0.0,0.0,0.0,0.0,0.0,0.0,0.0,0.0,0.0,0.0,0.0,0.0,0.0,0.0,0.0,0.0,0.0,0.0,0.0,0.0,0.0,0.0,0.0,0.0,0.0,0.0,0.0,0.0,0.0,0.0,0.0,0.0,0.0,0.0,0.0,0.0,0.0,0.0,0.0,0.0,0.0,0.0,0.0,0.0,0.0,0.0,0.0,0.0,0.0,0.0,0.0,0.0,0.0,0.0,0.0,0.0,0.0,0.0,0.0,0.0,0.0,0.0,0.0,0.0,0.0,0.0,0.0,0.0,0.0,0.0,0.0,0.0,0.0,0.0,0.0,0.0,0.0,0.0,0.0,0.0,0.0,0.0,0.0,0.0,0.0,0.0,0.0,0.0,0.0,0.0,0.0,0.0,0.0,0.0,0.0,0.0,0.0,0.0,0.0,0.0,0.0,0.0,0.0,0.0,0.0,0.0,0.0,0.0,3.9643,4.2968,4.5268,4.57,4.417,4.5606,4.2873,0.0,0.0,0.0,0.0,0.0,0.0,0.0,0.0,0.0,0.0,0.0,0.0,0.0,0.0,0.0,0.0,0.0,0.0,0.0,0.0,0.0,0.0,0.0,0.0,0.0,0.0,0.0,0.0,0.0,0.0,0.0,0.0,0.0,0.0,0.0,0.0,0.0,0.0,0.0,0.0,0.0,0.0,0.0,0.0,0.0,0.0,0.0,0.0,0.0,0.0,0.0,0.0,0.0,0.0,0.0,0.0,0.0,0.0,0.0,0.0,0.0,0.0,0.0,0.0,0.0,0.0,0.0,0.0,0.0,0.0,0.0,0.0,0.0,0.0,0.0,0.0,0.0,0.0,0.0,0.0,0.0,0.0,0.0,0.0,0.0,0.0,0.0,0.0,0.0,0.0,0.0,0.0,0.0,0.0,0.0,0.0,0.0,0.0,0.0,0.0,0.0,0.0,0.0,0.0,0.0,0.0,0.0,0.0,0.0,3.9876,4.2164,4.5244,4.8672,4.4402,4.1167,0.0,0.0,0.0,0.0,0.0,0.0,0.0,0.0,0.0,0.0,0.0,0.0,0.0,0.0,0.0,0.0,0.0,0.0,0.0,0.0,0.0,0.0,0.0,0.0,0.0,0.0,0.0,0.0,0.0,0.0,0.0,0.0,0.0,0.0,0.0,0.0,0.0,0.0,0.0,0.0,0.0,0.0,0.0,0.0,0.0,0.0,0.0,0.0,0.0,0.0,0.0,0.0,0.0,0.0,0.0,0.0,0.0,0.0,0.0,0.0,0.0,0.0,0.0,0.0,0.0,0.0,0.0,0.0,0.0,0.0,0.0,0.0,0.0,0.0,0.0,0.0,0.0,0.0,0.0,0.0,0.0,0.0,0.0,0.0,0.0,0.0,0.0,0.0,0.0,0.0,0.0,0.0,0.0,0.0,0.0,0.0,0.0,0.0,0.0,0.0,0.0,0.0,0.0,0.0,0.0,0.0,0.0,0.0,0.0,3.9933,4.08,4.369,4.8401,4.505,4.2092,0.0,0.0,0.0,0.0,0.0,0.0,0.0,0.0,0.0,0.0,0.0,0.0,0.0,0.0,0.0,0.0,0.0,0.0,0.0,0.0,0.0,0.0,0.0,0.0,0.0,0.0,0.0,0.0,0.0,0.0,0.0,0.0,0.0,0.0,0.0,0.0,0.0,0.0,0.0,0.0,0.0,0.0,0.0,0.0,0.0,0.0,0.0,0.0,0.0,0.0,0.0,0.0,0.0,0.0,0.0,0.0,0.0,0.0,0.0,0.0,0.0,0.0,0.0,0.0,0.0,0.0,0.0,0.0,0.0,0.0,0.0,0.0,0.0,0.0,0.0,0.0,0.0,0.0,0.0,0.0,0.0,0.0,0.0,0.0,0.0,0.0,0.0,0.0,0.0,0.0,0.0,0.0,0.0,0.0,0.0,0.0,0.0,0.0,0.0,0.0,0.0,0.0,0.0,0.0,0.0,0.0,0.0,0.0,0.0,4.2422,4.117,4.1508,4.391,4.7073,4.5231,0.0,0.0,0.0,0.0,0.0,0.0,0.0,0.0,0.0,0.0,0.0,0.0,0.0,0.0,0.0,0.0,0.0,0.0,0.0,0.0,0.0,0.0,0.0,0.0,0.0,0.0,0.0,0.0,0.0,0.0,0.0,0.0,0.0,0.0,0.0,0.0,0.0,0.0,0.0,0.0,0.0,0.0,0.0,0.0,0.0,0.0,0.0,0.0,0.0,0.0,0.0,0.0,0.0,0.0,0.0,0.0,0.0,0.0,0.0,0.0,0.0,0.0,0.0,0.0,0.0,0.0,0.0,0.0,0.0,0.0,0.0,0.0,0.0,0.0,0.0,0.0,0.0,0.0,0.0,0.0,0.0,0.0,0.0,0.0,0.0,0.0,0.0,0.0,0.0,0.0,0.0,0.0,0.0,0.0,0.0,0.0,0.0,0.0,0.0,0.0,0.0,0.0,0.0,0.0,0.0,0.0,0.0,0.0,0.0,0.0,4.1331,4.2319,4.228,4.3294,4.2244,3.8835,0.0,0.0,0.0,0.0,0.0,0.0,0.0,0.0,0.0,0.0,0.0,0.0,0.0,0.0,0.0,0.0,0.0,0.0,0.0,0.0,0.0,0.0,0.0,0.0,0.0,0.0,0.0,0.0,0.0,0.0,0.0,0.0,0.0,0.0,0.0,0.0,0.0,0.0,0.0,0.0,0.0,0.0,0.0,0.0,0.0,0.0,0.0,0.0,0.0,0.0,0.0,0.0,0.0,0.0,0.0,0.0,0.0,0.0,0.0,0.0,0.0,0.0,0.0,0.0,0.0,0.0,0.0,0.0,0.0,0.0,0.0,0.0,0.0,0.0,0.0,0.0,0.0,0.0,0.0,0.0,0.0,0.0,0.0,0.0,0.0,0.0,0.0,0.0,0.0,0.0,0.0,0.0,0.0,0.0,0.0,0.0,0.0,0.0,0.0,0.0,0.0,0.0,0.0,0.0,0.0,0.0,0.0,0.0,0.0,0.0,4.112,4.1514,4.1584,4.0627,0.0,0.0,0.0,0.0,0.0,0.0,0.0,0.0,0.0,0.0,0.0,0.0,0.0,0.0,0.0,0.0,0.0,0.0,0.0,0.0,0.0,0.0,0.0,0.0,0.0,0.0,0.0,0.0,0.0,0.0,0.0,0.0,0.0,0.0,0.0,0.0,0.0,0.0,0.0,0.0,0.0,0.0,0.0,0.0,0.0,0.0,0.0,0.0,0.0,0.0,0.0,0.0,0.0,0.0,0.0,0.0,0.0,0.0,0.0,0.0,0.0,0.0,0.0,0.0,0.0,0.0,0.0,0.0,0.0,0.0,0.0,0.0,0.0,0.0,0.0,0.0,0.0,0.0,0.0,0.0,0.0,0.0,0.0,0.0,0.0,0.0,0.0,0.0,0.0,0.0,0.0,0.0,0.0,0.0,0.0,0.0,0.0,0.0,0.0,0.0,0.0,0.0,0.0,0.0,0.0,0.0,0.0,0.0,0.0,0.0,0.0,3.8993,4.1083,4.1452,0.0,3.7736,0.0,0.0,0.0,0.0,0.0,0.0,0.0,0.0,0.0,0.0,0.0,0.0,0.0,0.0,0.0,0.0,0.0,0.0,0.0,0.0,0.0,0.0,0.0,0.0,0.0,0.0,0.0,0.0,0.0,0.0,0.0,0.0,0.0,0.0,0.0,0.0,0.0,0.0,0.0,0.0,0.0,0.0,0.0,0.0,0.0,0.0,0.0,0.0,0.0,0.0,0.0,0.0,0.0,0.0,0.0,0.0,0.0,0.0,0.0,0.0,0.0,0.0,0.0,0.0,0.0,0.0,0.0,0.0,0.0,0.0,0.0,0.0,0.0,0.0,0.0,0.0,0.0,0.0,0.0,0.0,0.0,0.0,0.0,0.0,0.0,0.0,0.0,0.0,0.0,0.0,0.0,0.0,0.0,0.0,0.0,0.0,0.0,0.0,0.0,0.0,0.0,0.0,0.0,0.0,0.0,0.0,0.0,0.0,0.0,0.0,0.0,0.0,4.1876,4.1852,3.9131,0.0,0.0,0.0,0.0,0.0,0.0,0.0,0.0,0.0,0.0,0.0,0.0,0.0,0.0,0.0,0.0,0.0,0.0,0.0,0.0,0.0,0.0,0.0,0.0,0.0,0.0,0.0,0.0,0.0,0.0,0.0,0.0,0.0,0.0,0.0,0.0,0.0,0.0,0.0,0.0,0.0,0.0,0.0,0.0,0.0,0.0,0.0,0.0,0.0,0.0,0.0,0.0,0.0,0.0,0.0,0.0,0.0,0.0,0.0,0.0,0.0,0.0,0.0,0.0,0.0,0.0,0.0,0.0,0.0,0.0,0.0,0.0,0.0,0.0,0.0,0.0,0.0,0.0,0.0,0.0,0.0,0.0,0.0,0.0,0.0,0.0,0.0,0.0,0.0,0.0,0.0,0.0,0.0,0.0,0.0,0.0,0.0,0.0,0.0,0.0,0.0,0.0,0.0,0.0,0.0,0.0,0.0,0.0,0.0,0.0,3.9924,3.8879,4.1316,4.1635,3.9392,0.0,0.0,0.0,0.0,0.0,0.0,0.0,0.0,0.0,0.0,0.0,0.0,0.0,0.0,0.0,0.0,0.0,0.0,0.0,0.0,0.0,0.0,0.0,0.0,0.0,0.0,0.0,0.0,0.0,0.0,0.0,0.0,0.0,0.0,0.0,0.0,0.0,0.0,0.0,0.0,0.0,0.0,0.0,0.0,0.0,0.0,0.0,0.0,0.0,0.0,0.0,0.0,0.0,0.0,0.0,0.0,0.0,0.0,0.0,0.0,0.0,0.0,0.0,0.0,0.0,0.0,0.0,0.0,0.0,0.0,0.0,0.0,0.0,0.0,0.0,0.0,0.0,0.0,0.0,0.0,0.0,0.0,0.0,0.0,0.0,0.0,0.0,0.0,0.0,0.0,0.0,0.0,0.0,0.0,0.0,0.0,0.0,0.0,0.0,0.0,0.0,0.0,0.0,0.0,0.0,0.0,0.0,0.0,0.0,0.0,3.9948,0.0,0.0,0.0,3.9476,0.0,0.0,0.0,0.0,0.0,0.0,0.0,0.0,0.0,0.0,0.0,0.0,0.0,0.0,0.0,0.0,0.0,0.0,0.0,0.0,0.0,0.0,0.0,0.0,0.0,0.0,0.0,0.0,0.0,0.0,0.0,0.0,0.0,0.0,0.0,0.0,0.0,0.0,0.0,0.0,0.0,0.0,0.0,0.0,0.0,0.0,0.0,0.0,0.0,0.0,0.0,0.0,0.0,0.0,0.0,0.0,0.0,0.0,0.0,0.0,0.0,0.0,0.0,0.0,0.0,0.0,0.0,0.0,0.0,0.0,0.0,0.0,0.0,0.0,0.0,0.0,0.0,0.0,0.0,0.0,0.0,0.0,0.0,0.0,0.0,0.0,0.0,0.0,0.0,0.0,0.0,0.0,0.0,0.0,0.0,0.0,0.0,0.0,0.0,0.0,0.0,0.0,0.0,0.0,0.0,0.0,0.0,0.0,0.0,0.0,0.0,0.0,0.0,0.0,0.0,0.0,0.0,0.0,0.0,0.0,0.0,0.0,0.0,0.0,0.0,0.0,0.0,0.0,0.0,0.0,0.0,0.0,0.0,0.0,0.0,0.0,0.0,0.0,0.0,0.0,0.0,0.0,0.0,0.0,0.0,0.0,0.0,0.0,0.0,0.0,0.0,0.0,0.0,0.0,0.0,0.0,0.0,0.0,0.0,0.0,0.0,0.0,0.0,0.0,0.0,0.0,0.0,0.0,0.0,0.0,0.0,0.0,0.0,0.0,0.0,0.0,0.0,0.0,0.0,0.0,0.0,0.0,0.0,0.0,0.0,0.0,0.0,0.0,0.0,0.0,0.0,0.0,0.0,0.0,0.0,0.0,0.0,0.0,0.0,0.0,0.0,0.0,0.0,0.0,0.0,0.0,0.0,0.0,0.0,0.0,0.0,0.0,0.0,0.0,0.0,0.0,0.0,0.0,0.0,0.0,0.0,0.0,0.0,0.0,0.0,0.0,0.0,0.0,0.0,0.0,0.0,0.0,0.0,0.0,0.0,0.0,0.0,0.0,0.0,0.0,0.0,0.0,0.0,0.0,0.0,0.0,0.0,0.0,0.0,0.0,0.0,0.0,0.0,0.0,0.0,0.0,0.0,0.0,0.0,0.0,0.0,0.0,0.0,0.0,0.0,0.0,0.0,0.0,0.0,0.0,0.0,0.0,0.0,0.0,0.0,0.0,0.0,0.0,0.0,0.0,0.0,0.0,0.0,0.0,0.0,0.0,0.0,0.0,0.0,0.0,0.0,0.0,0.0,0.0,0.0,0.0,0.0,0.0,0.0,0.0,0.0,0.0,0.0,0.0,0.0,0.0,0.0,0.0,0.0,0.0,0.0,0.0,0.0,0.0,0.0,0.0,0.0,0.0,0.0,0.0,0.0,0.0,0.0,0.0,0.0,0.0,0.0,0.0,0.0,0.0,0.0,0.0,0.0,0.0,0.0,0.0,0.0,0.0,0.0,0.0,0.0,0.0,0.0,0.0,0.0,0.0,0.0,0.0,0.0,0.0,0.0,0.0,0.0,0.0,0.0,0.0,0.0,0.0,0.0,0.0,0.0,0.0,0.0,0.0,0.0,0.0,0.0,0.0,0.0,0.0,0.0,0.0,0.0,0.0,0.0,0.0,0.0,0.0,0.0,0.0,0.0,0.0,0.0,0.0,0.0,0.0,0.0,0.0,0.0,0.0,0.0,0.0,0.0,0.0,0.0,0.0,0.0,0.0,0.0,0.0,0.0,0.0,0.0,0.0,0.0,0.0,0.0,0.0,0.0,0.0,0.0,0.0,0.0,0.0,0.0,0.0,0.0,0.0,0.0,0.0,0.0,0.0,0.0,0.0,0.0,0.0,0.0,0.0,0.0,0.0,0.0,0.0,0.0,0.0,0.0,0.0,0.0,0.0,0.0,0.0,0.0,0.0,0.0,0.0,0.0,0.0,0.0,0.0,0.0,0.0,0.0,0.0,0.0,0.0,0.0,0.0,0.0,0.0,0.0,0.0,0.0,0.0,0.0,0.0,0.0,0.0,0.0,0.0,0.0,0.0,0.0,0.0,0.0,0.0,0.0,0.0,0.0,0.0,0.0,0.0,0.0,0.0,0.0,0.0,0.0,0.0,0.0,0.0,0.0,0.0,0.0,0.0,0.0,0.0,0.0,0.0,0.0,0.0,0.0,0.0,0.0,0.0,0.0,0.0,0.0,0.0,0.0,0.0,0.0,0.0,0.0,0.0,0.0,0.0,0.0,0.0,0.0,0.0,0.0,0.0,0.0,0.0,0.0,0.0,0.0,0.0,0.0,0.0,0.0,0.0,0.0,0.0,0.0,0.0,0.0,0.0,0.0,0.0,0.0,0.0,0.0,0.0,0.0,0.0,0.0,0.0,0.0,0.0,0.0,0.0,0.0,0.0,0.0,0.0,0.0,0.0,0.0,0.0,0.0,0.0,0.0,0.0,0.0,0.0,0.0,0.0,0.0,0.0,0.0,0.0,0.0,0.0,0.0,0.0,0.0,0.0,0.0,0.0,0.0,0.0,0.0,0.0,0.0,0.0,0.0,0.0,0.0,0.0,0.0,0.0,0.0,0.0,0.0,0.0,0.0,0.0,0.0,0.0,0.0,0.0,0.0,0.0,0.0,0.0,0.0,0.0,0.0,0.0,0.0,0.0,0.0,0.0,0.0,0.0,0.0,0.0,0.0,0.0,0.0,0.0,0.0,0.0,0.0,0.0,0.0,0.0,0.0,0.0,0.0,0.0,0.0,0.0,0.0,0.0,0.0,0.0,0.0,0.0,0.0,0.0,0.0,0.0,0.0,0.0,0.0,0.0,0.0,0.0,0.0,0.0,0.0,0.0,0.0,0.0,0.0,0.0,0.0,0.0,0.0,0.0,0.0,0.0,0.0,0.0,0.0,0.0,0.0,0.0,0.0,0.0,0.0,0.0,0.0,0.0,0.0,0.0,0.0,0.0,0.0,0.0,0.0,0.0,0.0,0.0,0.0,0.0,0.0,0.0,0.0,0.0,0.0,0.0,0.0,0.0,0.0,0.0,0.0,0.0,0.0,0.0,0.0,0.0,0.0,0.0,0.0,0.0,0.0,0.0,0.0,0.0,0.0,0.0,0.0,0.0,0.0,0.0,0.0,0.0,0.0,0.0,0.0,0.0,0.0,0.0,0.0,0.0,0.0,0.0,0.0,0.0,0.0,0.0,0.0,0.0,0.0,0.0,0.0,0.0,0.0,0.0,0.0,0.0,0.0,0.0,0.0,0.0,0.0,0.0,0.0,0.0,0.0,0.0,0.0,0.0,0.0,0.0,0.0,0.0,0.0,0.0,0.0,0.0,0.0,0.0,0.0,0.0,0.0,0.0,0.0,0.0,0.0,0.0,0.0,0.0,0.0,0.0,0.0,0.0,0.0,0.0,0.0,0.0,0.0,0.0,0.0,0.0,0.0,0.0,0.0,0.0,0.0,0.0,0.0,0.0,0.0,0.0,0.0,0.0,0.0,0.0,0.0,0.0,0.0,0.0,0.0,0.0,0.0,0.0,0.0,0.0,0.0,0.0,0.0,0.0,0.0,0.0,0.0,0.0,0.0,0.0,0.0,0.0,0.0,0.0,0.0,0.0,0.0,0.0,0.0,0.0,0.0,0.0,0.0,0.0,0.0,0.0,0.0,0.0,0.0,0.0,0.0,0.0,0.0,0.0,0.0,0.0,0.0,0.0,0.0,0.0,0.0,0.0,0.0,0.0,0.0,0.0,0.0,0.0,0.0,0.0,0.0,0.0,0.0,0.0,0.0,0.0,0.0,0.0,0.0,0.0,0.0,0.0,0.0,0.0,0.0,0.0,0.0,0.0,0.0,0.0,0.0,0.0,0.0,0.0,0.0,0.0,0.0,0.0,0.0,0.0,0.0,0.0,0.0,0.0,0.0,0.0,0.0,0.0,0.0,0.0,0.0,0.0,0.0,0.0,0.0,0.0,0.0,0.0,0.0,0.0,0.0,0.0,0.0,0.0,0.0,0.0,0.0,0.0,0.0,0.0,0.0,0.0,0.0,0.0,0.0,0.0,0.0,0.0,0.0,0.0,0.0,0.0,0.0,0.0,0.0,0.0,0.0,0.0,0.0,0.0,0.0,0.0,0.0,0.0,0.0,0.0,0.0,0.0,0.0,0.0,0.0,0.0,0.0,0.0,0.0,0.0,0.0,0.0,0.0,0.0,0.0,0.0,0.0,0.0,0.0,0.0,0.0,0.0,0.0,0.0,0.0,0.0,0.0,0.0,0.0,0.0,0.0,0.0,0.0,0.0,0.0,0.0,0.0,0.0,0.0,0.0,0.0,0.0]}],[{"header":{"parameterUnit":"kt","parameterCategory":2,"dx":1,"dy":1,"la1":29.587661999999998,"la2":31.0,"lo1":-88.76705300000003,"lo2":-86.6583820000003,"nx":115,"ny":88,"refTime":"2022-11-01T18:00:00:Z","depth":0,"parameterNumber":2,"parameterNumberName":"V-component_of_WINDS"},"data":[9.6486,9.6564,9.6881,9.7155,9.7409,9.7092,9.6909,9.7198,9.843,9.888,9.9302,10.0403,10.0719,9.9302,9.9522,10.0147,10.1274,10.1942,10.1978,10.2048,10.1958,10.1867,10.1857,10.1822,10.1638,10.1557,10.1511,10.1465,10.1557,10.1511,10.1067,10.0471,9.9945,9.8997,9.7788,9.7515,9.7449,9.6524,9.6319,9.5771,9.4406,9.3134,9.1493,9.1196,9.0959,9.0959,9.0599,9.0213,8.9897,8.955,8.922,8.85,8.7989,8.7731,8.7639,8.7478,8.7575,8.7607,8.7511,8.7511,8.7446,8.7478,8.7156,8.648,8.6255,8.5611,8.5488,8.5295,8.5231,8.5006,8.4941,8.4813,8.478,8.478,8.478,8.478,8.478,8.478,8.478,8.478,8.478,8.478,8.478,8.478,8.478,8.478,8.478,8.478,8.4574,8.3415,8.2196,8.0783,7.9354,7.8007,7.6926,7.6138,7.5272,7.5056,7.484,7.4478,7.4259,7.4259,7.4259,7.4259,7.4259,7.4259,7.4259,7.4259,7.4259,7.4259,7.4259,7.4186,7.4141,7.3848,7.3405,9.3424,9.3529,9.4755,9.6099,9.7049,9.5958,9.5318,9.5501,9.6071,9.6212,9.6169,9.8199,9.8552,9.8544,9.8994,9.9584,10.0429,10.159,10.1978,10.2048,10.2048,10.2003,10.1958,10.1968,10.1702,10.1621,10.1797,10.1832,10.1551,10.1516,10.1299,10.122,10.0554,9.9576,9.9118,9.8542,9.7518,9.6552,9.5627,9.4846,9.3933,9.2922,9.1714,9.1878,9.2479,9.2767,9.1869,9.1026,9.0107,8.9329,8.8205,8.7044,8.6223,8.603,8.581,8.5874,8.5971,8.5874,8.5713,8.5842,8.5713,8.552,8.5166,8.5038,8.5102,8.4941,8.4941,8.4877,8.4877,8.4813,8.4813,8.478,8.478,8.478,8.478,8.478,8.478,8.478,8.478,8.478,8.478,8.478,8.478,8.478,8.478,8.478,8.478,8.478,8.4516,8.3594,8.2687,8.1416,8.0204,7.889,7.7568,7.6489,7.5272,7.5056,7.4724,7.4478,7.4259,7.4259,7.4259,7.4259,7.4259,7.4259,7.4259,7.4259,7.4259,7.4259,7.4259,7.4214,7.4068,7.382,7.3304,9.272,9.2825,9.3453,9.4198,9.4621,9.4093,9.3734,9.4022,9.5226,9.5085,9.4163,9.4944,9.6289,9.7691,9.8078,9.895,10.1133,10.1696,10.1661,10.1907,10.2048,10.1872,10.2048,10.2013,10.152,10.1203,10.1485,10.1379,10.071,10.071,10.0103,9.9108,9.8563,9.781,9.7007,9.6998,9.6464,9.5495,9.4501,9.3251,9.1943,8.9813,8.8622,8.8534,8.8634,8.8457,8.8149,8.7772,8.7223,8.6823,8.6657,8.5373,8.5147,8.4864,8.4806,8.4838,8.478,8.478,8.4845,8.4941,8.4973,8.5038,8.4813,8.4813,8.478,8.478,8.478,8.478,8.478,8.478,8.478,8.478,8.478,8.478,8.478,8.478,8.478,8.478,8.4748,8.4748,8.469,8.469,8.469,8.469,8.478,8.478,8.478,8.478,8.469,8.41,8.3263,8.2257,8.1478,8.0299,7.7937,7.6381,7.514,7.477,7.4579,7.4179,7.3751,7.4005,7.4231,7.4203,7.4203,7.4203,7.4231,7.4259,7.4259,7.4259,7.4214,7.4141,7.3995,7.3746,7.2332,9.272,9.272,9.272,9.272,9.2755,9.272,9.2755,9.2896,9.4451,9.4169,9.2966,9.3001,9.4269,9.6381,9.6768,9.8,10.0042,10.0182,10.0816,10.064,10.057,10.0218,10.071,10.0288,10.0086,9.9866,9.9936,10.0042,9.9381,9.9021,9.8484,9.7405,9.7177,9.6721,9.5869,9.608,9.5601,9.4643,9.3266,9.1605,9.0539,8.7941,8.6647,8.6854,8.721,8.7589,8.7235,8.6527,8.6021,8.5597,8.5484,8.5314,8.5347,8.5176,8.5151,8.5036,8.4921,8.4806,8.478,8.478,8.478,8.478,8.478,8.478,8.478,8.478,8.478,8.478,8.478,8.478,8.478,8.478,8.478,8.478,8.478,8.478,8.478,8.4748,8.469,8.469,8.469,8.469,8.469,8.469,8.4748,8.478,8.4748,8.4748,8.4632,8.4323,8.3404,8.2384,8.1879,8.0327,7.782,7.5891,7.4194,7.3657,7.3191,7.3146,7.3187,7.299,7.2792,7.3356,7.3977,7.4062,7.4062,7.4118,7.4203,7.4259,7.4113,7.3774,7.3627,7.2339,7.0729,9.272,9.272,9.272,9.272,9.272,9.272,9.2649,9.279,9.2685,9.279,9.2614,9.2649,9.3424,9.4656,9.5219,9.6345,9.7613,9.8106,9.8176,9.7753,9.7859,9.7718,9.7718,9.7691,9.7303,9.7515,9.7683,9.7824,9.7585,9.7429,9.7142,9.6754,9.6325,9.5697,9.4963,9.5113,9.4612,9.3501,9.1826,9.0393,8.9555,8.9318,8.9115,8.8967,8.9179,8.9518,8.931,8.8967,8.8601,8.8059,8.7593,8.6839,8.6581,8.6231,8.5877,8.5685,8.5062,8.4864,8.469,8.4748,8.478,8.478,8.478,8.4748,8.4748,8.4748,8.478,8.478,8.469,8.4632,8.4574,8.4574,8.4484,8.4484,8.4484,8.4484,8.4484,8.4484,8.4425,8.4367,8.4367,8.4367,8.4367,8.4542,8.4632,8.469,8.4748,8.478,8.4594,8.4247,8.3232,8.2074,8.123,7.9836,7.7497,7.5539,7.3659,7.2126,7.1378,7.1325,7.1889,7.1748,7.141,7.2171,7.2961,7.3328,7.3695,7.3836,7.3892,7.3735,7.3461,7.3256,7.2128,7.04,6.8985,9.272,9.272,9.272,9.272,9.272,9.272,9.1483,8.9899,8.9226,8.9367,8.9939,9.0617,9.1357,9.2403,9.3283,9.4374,9.5782,9.5747,9.5677,9.5395,9.5008,9.4726,9.455,9.448,9.4121,9.4198,9.455,9.5423,9.486,9.5057,9.4985,9.4114,9.3764,9.3537,9.3478,9.3391,9.3105,9.194,9.085,8.9791,8.9099,8.8702,8.8484,8.823,8.8146,8.8248,8.818,8.8026,8.782,8.7664,8.7612,8.7085,8.6527,8.6341,8.6099,8.5517,8.5004,8.4832,8.4658,8.469,8.4632,8.4632,8.4632,8.4504,8.4472,8.4214,8.4337,8.4304,8.4375,8.4387,8.4361,8.4335,8.4154,8.4031,8.4063,8.4063,8.4063,8.4031,8.3972,8.3882,8.385,8.3759,8.3972,8.4367,8.4452,8.4189,8.406,8.4086,8.3771,8.32,8.1978,8.1033,8.0113,7.9169,7.752,7.5562,7.3449,7.1661,7.054,7.0083,7.0563,7.0648,7.0478,7.1043,7.1805,7.2341,7.2764,7.3074,7.2933,7.2593,7.2153,7.1342,7.0018,6.8501,6.7345,9.1845,9.1417,9.1417,9.1382,9.1417,9.1382,9.0185,8.8144,8.7323,8.7288,8.8108,8.8859,8.9842,9.0361,9.1065,9.2262,9.3001,9.3353,9.3171,9.2638,9.1683,9.1361,9.1214,9.1103,9.0933,9.1285,9.2163,9.3069,9.2894,9.3301,9.3054,9.2071,9.2342,9.1986,9.1681,9.1194,9.0391,8.946,8.8844,8.8259,8.7999,8.8141,8.8185,8.8309,8.8444,8.885,8.8834,8.8651,8.8534,8.8383,8.823,8.7923,8.7205,8.7151,8.6776,8.5955,8.5225,8.4882,8.4774,8.4748,8.4574,8.4308,8.3374,8.3406,8.3239,8.295,8.3033,8.2719,8.2566,8.2437,8.2291,8.224,8.2125,8.2036,8.2036,8.2036,8.2036,8.2036,8.192,8.1862,8.181,8.181,8.1932,8.2387,8.2784,8.297,8.2996,8.2861,8.2476,8.1256,8.0193,7.9435,7.8533,7.756,7.6173,7.4756,7.2818,7.1051,6.9739,6.9011,6.9152,6.9209,6.9406,6.9717,7.014,7.0817,7.1551,7.1325,7.0986,7.079,7.0468,6.9265,6.8052,6.6807,6.5548,8.9818,8.8284,8.8214,8.832,8.8249,8.8284,8.8144,8.7968,8.7827,8.7756,8.7862,8.7721,8.8323,8.9516,8.8812,8.92,9.0181,8.916,8.8831,8.8435,8.8255,8.796,8.7735,8.7945,8.8435,8.9303,9.0353,9.1416,9.1955,9.2401,9.235,9.1829,9.1786,9.1081,9.0281,8.9543,8.8495,8.7802,8.7289,8.7157,8.7195,8.7495,8.7724,8.7985,8.8486,8.8998,8.9135,8.925,8.934,8.9443,8.9532,8.9526,8.9484,8.9586,8.9099,8.801,8.6209,8.5276,8.4594,8.404,8.3848,8.2812,8.141,8.0497,8.0426,8.0784,8.1114,8.1106,8.1057,8.0706,8.0426,8.0384,8.0284,8.0284,8.0252,8.022,8.0188,8.0188,8.0106,8.0086,8.0123,8.0097,8.0345,8.0417,8.0837,8.0773,8.0423,8.032,7.9538,7.8542,7.8137,7.7502,7.7105,7.6013,7.4671,7.3285,7.1568,7.0023,6.8808,6.8073,6.746,6.7431,6.7911,6.8334,6.8684,6.9136,6.987,6.9813,6.9418,6.8779,6.8479,6.7594,6.7291,6.5763,6.4829,8.8872,8.8301,8.8115,8.8038,8.7756,8.582,8.5011,8.4975,8.4975,8.4975,8.5046,8.5046,8.5468,8.5926,8.6208,8.7014,8.707,8.6578,8.6321,8.595,8.5145,8.4927,8.5097,8.5447,8.663,8.7159,8.8452,8.992,9.0612,9.1357,9.155,9.142,9.1576,9.022,8.8677,8.7941,8.7074,8.6616,8.615,8.6177,8.6334,8.6696,8.7092,8.7186,8.7521,8.7811,8.7707,8.7594,8.7549,8.7391,8.721,8.6797,8.5832,8.5295,8.4779,8.3664,8.2527,8.226,8.1933,8.1658,8.127,8.0662,8.0252,7.9672,7.9584,7.9322,7.9523,7.9587,7.9679,7.9623,7.9566,7.9337,7.9228,7.9228,7.9197,7.9134,7.9128,7.9033,7.9007,7.9108,7.9144,7.9113,7.9202,7.9084,7.8843,7.831,7.7716,7.6971,7.6227,7.6038,7.5761,7.5951,7.5792,7.5217,7.411,7.2579,7.1024,6.9154,6.8315,6.776,6.7223,6.683,6.683,6.7065,6.7572,6.8091,6.8458,6.8712,6.8797,6.8256,6.7302,6.6653,6.6251,6.5529,6.4736,8.7431,8.6861,8.66,8.6489,8.6208,8.4201,8.3428,8.3428,8.3428,8.3463,8.3391,8.3318,8.3318,8.3527,8.4365,8.4673,8.4701,8.4592,8.455,8.4215,8.3443,8.2985,8.3639,8.4819,8.5695,8.6811,8.803,8.9494,8.9501,9.0133,9.0577,9.0081,8.9292,8.8581,8.7151,8.6077,8.5557,8.5279,8.5203,8.5127,8.5085,8.5324,8.554,8.5575,8.6196,8.6488,8.6434,8.6722,8.635,8.5777,8.6381,8.5957,8.5097,8.4315,8.3579,8.2503,8.1899,8.125,8.0537,7.8662,7.8217,7.7818,7.7596,7.762,7.7818,7.8018,7.8098,7.7994,7.755,7.7533,7.7825,7.7473,7.7328,7.7334,7.7365,7.7334,7.7334,7.7334,7.7334,7.7365,7.7334,7.7139,7.7044,7.6772,7.682,7.6448,7.5446,7.4579,7.4831,7.4619,7.4312,7.4721,7.4737,7.4355,7.3971,7.3071,7.1654,7.0054,6.9,6.8008,6.7325,6.6895,6.683,6.683,6.698,6.7065,6.7149,6.7356,6.778,6.7788,6.6836,6.6133,6.5934,6.5388,6.4507,8.5348,8.3859,8.3677,8.3604,8.371,8.3428,8.3428,8.3428,8.3428,8.3428,8.3391,8.3279,8.3239,8.3199,8.3229,8.3325,8.3249,8.3067,8.3024,8.2973,8.269,8.3337,8.3911,8.4634,8.5584,8.82,8.8771,8.871,8.8875,8.9014,8.8277,8.761,8.6986,8.6361,8.6389,8.5175,8.3754,8.2472,8.2304,8.2361,8.2665,8.3472,8.3767,8.4111,8.4885,8.5256,8.5179,8.535,8.4989,8.4344,8.4902,8.4826,8.4408,8.3892,8.3483,8.3104,8.3238,8.2913,8.2063,7.8001,7.5867,7.5,7.4728,7.4783,7.4869,7.4869,7.4837,7.513,7.4914,7.4814,7.476,7.4728,7.4619,7.4564,7.4564,7.4564,7.4564,7.4564,7.4564,7.4564,7.4564,7.4659,7.469,7.4784,7.4965,7.4304,7.3211,7.3157,7.3809,7.3777,7.3525,7.3651,7.3566,7.3419,7.348,7.3062,7.2297,7.1115,6.9841,6.8714,6.7879,6.739,6.7027,6.683,6.6952,6.698,6.6557,6.6021,6.6453,6.6782,6.6032,6.5863,6.5634,6.5139,6.404,8.4569,8.3932,8.3753,8.3538,8.3428,8.3428,8.3428,8.3428,8.3428,8.3428,8.3391,8.3319,8.3279,8.3202,8.3054,8.2937,8.2741,8.2663,8.2546,8.2467,8.2354,8.2557,8.3211,8.4107,8.5217,8.573,8.6666,8.7394,8.7437,8.7394,8.6909,8.5973,8.4801,8.3968,8.3581,8.2904,8.2395,8.1933,8.1741,8.1665,8.17,8.2133,8.2298,8.2443,8.2795,8.3139,8.3036,8.3051,8.2837,8.2718,8.2583,8.2455,8.1973,8.1412,8.0978,8.0385,7.9907,7.9519,7.8351,7.579,7.3139,7.2583,7.2152,7.2068,7.1847,7.1847,7.2257,7.2278,7.2079,7.1794,7.1847,7.2162,7.2203,7.2487,7.2424,7.2518,7.2455,7.255,7.2392,7.2329,7.2739,7.3211,7.3368,7.3746,7.3422,7.2172,7.1637,7.193,7.2518,7.255,7.2424,7.2455,7.2424,7.2676,7.2905,7.241,7.1756,7.0645,7.0006,6.9064,6.8056,6.7943,6.7491,6.6834,6.6546,6.6782,6.6444,6.571,6.5626,6.5718,6.5815,6.5826,6.5406,6.413,6.3105,8.4177,8.4038,8.4533,8.4283,8.3501,8.3465,8.3428,8.3428,8.3428,8.3428,8.3391,8.3244,8.3094,8.3051,8.2937,8.2668,8.2507,8.2467,8.2354,8.2239,8.2378,8.2616,8.3309,8.4211,8.487,8.5661,8.6181,8.6562,8.5938,8.5869,8.5661,8.4725,8.3153,8.2223,8.1964,8.2043,8.1851,8.1651,8.1575,8.1492,8.1492,8.1408,8.1092,8.0646,8.0516,8.0351,7.9795,7.9815,7.9781,7.9706,7.9706,7.9965,7.9993,7.9603,7.8756,7.7568,7.7808,7.7186,7.5885,7.4403,7.2495,7.1442,7.0711,7.0693,7.0882,7.0693,7.0598,7.0452,7.0724,7.0944,7.0598,7.0535,7.0378,7.0483,7.0641,7.0766,7.0944,7.1133,7.1133,7.1238,7.1521,7.1741,7.2119,7.2465,7.127,7.0284,7.0472,7.0609,7.0892,7.1039,7.1228,7.1291,7.1322,7.1543,7.17,7.1485,7.1156,7.0577,7.0092,6.8575,6.7082,6.7139,6.6779,6.6422,6.6054,6.6125,6.594,6.5387,6.4836,6.4469,6.4723,6.509,6.42,6.2963,6.2211,8.4496,8.4321,8.5704,8.5348,8.3999,8.3572,8.3428,8.3428,8.3428,8.3428,8.3355,8.3054,8.2902,8.2784,8.2551,8.2393,8.2239,8.2239,8.2239,8.2239,8.2309,8.2893,8.3448,8.4038,8.4766,8.5702,8.5668,8.5113,8.4662,8.4101,8.313,8.2125,8.1197,8.1359,8.1105,8.0529,8.0544,8.0537,8.0337,8.0391,8.0307,8.0146,7.9644,7.8764,7.8506,7.8034,7.6532,7.7061,7.7141,7.6129,7.6865,7.761,7.851,7.8248,7.7339,7.6444,7.6486,7.5467,7.3788,7.2643,7.2481,7.1735,7.065,6.9705,6.9497,6.9917,7.0106,6.9677,6.9383,6.9634,6.9906,7.0189,6.956,6.9402,6.915,6.9182,6.9213,6.9465,6.9729,7.0137,7.0295,7.0274,7.0557,6.993,6.8864,6.8311,6.8436,6.8624,6.8958,6.906,6.9374,6.9603,6.976,6.9917,7.0075,7.0536,7.0524,7.0163,6.9815,6.8333,6.6382,6.5622,6.529,6.4838,6.4257,6.5023,6.5269,6.3532,6.2466,6.2776,6.2861,6.2691,6.1961,6.1855,6.1516,8.7196,8.6024,8.6236,8.6021,8.5413,8.3995,8.3428,8.3428,8.3428,8.3428,8.3355,8.3204,8.2934,8.2737,8.2546,8.2388,8.2239,8.2239,8.2239,8.2239,8.2309,8.2512,8.2858,8.2893,8.3136,8.3309,8.376,8.324,8.2506,8.1664,8.0857,8.0303,7.9276,7.8502,7.825,7.8297,7.8382,7.8307,7.8068,7.7801,7.7608,7.7457,7.7135,7.6746,7.6534,7.6398,7.6017,7.5945,7.4586,7.3831,7.4653,7.6,7.6825,7.6693,7.6127,7.5613,7.5487,7.4341,7.1903,7.0475,6.9135,6.8427,6.7782,6.8014,6.7658,6.7157,6.712,6.7452,6.7553,6.7608,6.7388,6.7514,6.7703,6.7797,6.7734,6.7451,6.7356,6.7545,6.7828,6.82,6.8476,6.8601,6.779,6.7232,6.6775,6.6401,6.6413,6.66,6.6619,6.6594,6.6838,6.6956,6.7163,6.7401,6.7936,6.8816,6.9646,6.9752,6.9481,6.8246,6.5813,6.4617,6.3679,6.2821,6.2065,6.2668,6.3452,6.1539,5.9785,6.0211,6.0465,6.0237,6.0403,6.1015,6.0787,8.8541,8.6873,8.6628,8.6059,8.5242,8.407,8.3573,8.3537,8.3465,8.3428,8.3391,8.3316,8.3089,8.2706,8.2472,8.2354,8.2239,8.2239,8.2239,8.2239,8.2239,8.2274,8.2205,8.2239,8.2239,8.2408,8.2165,8.1605,7.9918,7.897,7.8482,7.8339,7.7493,7.6722,7.7198,7.6719,7.653,7.634,7.6252,7.6122,7.5957,7.5915,7.5603,7.491,7.4808,7.4402,7.3921,7.3771,7.2639,7.1977,7.2354,7.3771,7.4049,7.4612,7.4518,7.4022,7.3853,7.2423,6.9943,6.9419,6.8523,6.7478,6.7119,6.6659,6.6206,6.6086,6.6019,6.5894,6.6171,6.6332,6.6412,6.6286,6.6286,6.6349,6.6727,6.6601,6.6601,6.6318,6.5969,6.6261,6.6457,6.5495,6.455,6.4159,6.3799,6.3692,6.3896,6.4114,6.4194,6.4274,6.442,6.4519,6.4756,6.5009,6.5874,6.6363,6.7019,6.6825,6.6596,6.5763,6.4047,6.2974,6.1753,6.0741,6.0182,6.0389,6.1128,5.9844,5.7889,5.7809,5.8094,5.7895,5.7839,5.8654,5.9373,8.9102,8.7175,8.6838,8.5951,8.4779,8.4038,8.3752,8.3716,8.3465,8.3428,8.3428,8.3319,8.3132,8.2787,8.2472,8.2279,8.2239,8.2239,8.2239,8.2095,8.1858,8.1645,8.1818,8.1818,8.112,8.0941,8.1149,7.971,7.8063,7.7084,7.6736,7.652,7.6157,7.6039,7.5486,7.5253,7.5694,7.5435,7.5285,7.5203,7.5045,7.4894,7.4094,7.3343,7.2897,7.2519,7.1662,7.1405,7.1055,7.0537,7.063,7.0731,7.1006,7.2104,7.185,7.0995,7.0443,7.0057,6.9137,6.8952,6.8467,6.7202,6.6717,6.6545,6.566,6.5243,6.55,6.575,6.6041,6.6094,6.578,6.5891,6.5846,6.5625,6.5216,6.5342,6.5468,6.4681,6.4616,6.4816,6.4451,6.3212,6.2099,6.1494,6.0999,6.1203,6.139,6.1576,6.1731,6.2042,6.2309,6.2591,6.2873,6.3046,6.3673,6.3517,6.3595,6.3125,6.2747,6.2209,6.146,6.089,5.9728,5.9293,5.835,5.8249,5.8362,5.7568,5.6093,5.5735,5.6324,5.6107,5.5719,5.6599,5.7891,8.9921,8.7782,8.7144,8.6625,8.5952,8.4498,8.3681,8.35,8.3428,8.3428,8.3391,8.3244,8.3092,8.2826,8.259,8.2324,8.2239,8.2101,8.1962,8.1679,8.0882,8.0361,7.9941,7.9205,7.8565,7.8768,7.827,7.764,7.6343,7.5475,7.5059,7.4711,7.3495,7.2862,7.3028,7.3179,7.2512,7.2393,7.2348,7.2302,7.2108,7.1831,7.1234,7.0733,7.07,7.0675,7.0174,7.0025,6.9908,6.9783,6.9925,7.0208,7.0357,7.079,7.0082,6.8387,6.8278,6.803,6.7652,6.7793,6.7543,6.6301,6.5216,6.4321,6.374,6.413,6.4527,6.5228,6.5646,6.5679,6.4927,6.4632,6.4224,6.369,6.3344,6.3092,6.3359,6.3438,6.3423,6.2593,6.2341,6.1622,6.0778,6.0159,5.9898,6.0039,6.0348,6.041,6.055,6.0642,6.1108,6.1203,6.1297,6.1484,6.1655,6.1748,6.1763,6.1467,6.0908,6.0319,5.9637,5.894,5.8924,5.8698,5.7681,5.6708,5.5528,5.4783,5.4789,5.4824,5.4796,5.4947,5.5362,5.6028,5.6347,8.8445,8.7026,8.6544,8.6163,8.576,8.4636,8.4002,8.379,8.361,8.3537,8.3391,8.3281,8.3094,8.2654,8.2044,8.0911,8.0161,7.998,7.9945,7.991,7.9178,7.8647,7.8004,7.7762,7.7158,7.6318,7.4724,7.3844,7.3969,7.3443,7.3285,7.3012,7.2456,7.1859,7.1744,7.1555,7.1427,7.1149,7.1063,7.0942,7.0697,7.0499,7.0258,7.0006,6.9922,6.9439,6.8966,6.8608,6.8184,6.759,6.7499,6.7433,6.7565,6.7962,6.833,6.8128,6.8224,6.8136,6.7863,6.7186,6.651,6.5429,6.4535,6.36,6.3178,6.3146,6.3627,6.4531,6.5223,6.5352,6.4603,6.4315,6.3752,6.3046,6.2574,6.2369,6.2289,6.232,6.1198,5.9817,5.9759,5.9514,5.9019,5.8987,5.8772,5.9003,5.931,5.9511,5.9603,6.0112,6.0854,6.087,6.0887,6.1108,6.125,6.136,6.1469,6.0613,5.9869,5.9082,5.8343,5.759,5.7484,5.7851,5.7208,5.6251,5.5308,5.4896,5.4551,5.441,5.4249,5.4279,5.4824,5.5031,5.4891,8.678,8.6155,8.5967,8.5593,8.5239,8.4847,8.4445,8.4175,8.3896,8.3681,8.3465,8.3393,8.3066,8.224,8.0973,7.9457,7.8321,7.7951,7.7739,7.7705,7.696,7.6403,7.5788,7.5356,7.5093,7.4116,7.2388,7.1088,7.1312,7.1359,7.1871,7.1928,7.1821,7.1744,7.1589,7.1399,7.1122,7.0726,7.0604,7.0432,7.0141,6.9898,6.9662,6.9071,6.8824,6.8122,6.7158,6.651,6.5883,6.4845,6.4482,6.4086,6.3807,6.449,6.5563,6.6409,6.7039,6.706,6.695,6.6848,6.6046,6.463,6.4071,6.3697,6.3371,6.3172,6.3715,6.4492,6.5115,6.5508,6.5253,6.4326,6.3749,6.3156,6.2419,6.1631,6.1614,6.1191,6.007,5.8325,5.7562,5.7184,5.7405,5.7483,5.7545,5.7821,5.802,5.8097,5.8158,5.8787,5.9693,6.0031,6.0245,6.0498,6.064,6.0722,6.0443,5.9405,5.8741,5.7957,5.7482,5.6521,5.6292,5.6931,5.6687,5.6155,5.5851,5.5558,5.5155,5.4854,5.4147,5.3479,5.4142,5.4704,5.4325,8.7456,8.7184,8.6627,8.6063,8.5617,8.5339,8.4833,8.4242,8.4002,8.3825,8.3717,8.35,8.2403,8.1234,8.0489,7.9462,7.8012,7.7217,7.6572,7.6353,7.507,7.4069,7.3201,7.2197,7.1116,6.9726,6.9646,7.0066,7.0324,7.057,7.1128,7.171,7.1623,7.1466,7.1433,7.1235,7.0774,7.0247,7.0082,6.995,6.9523,6.9184,6.8323,6.7451,6.7017,6.6288,6.5102,6.4692,6.4519,6.4398,6.4356,6.2606,6.0663,6.0089,6.0907,6.2599,6.4354,6.4677,6.4535,6.5324,6.5615,6.3719,6.3704,6.375,6.3793,6.3756,6.3918,6.4458,6.476,6.5246,6.4218,6.3547,6.3188,6.2356,6.101,6.0289,6.011,5.9155,5.8515,5.7273,5.7008,5.6831,5.6652,5.6593,5.6593,5.661,5.6596,5.6567,5.6567,5.6903,5.7713,5.8202,5.894,5.9312,5.9375,5.9437,5.8866,5.8064,5.7647,5.7293,5.7078,5.6593,5.6503,5.6652,5.6607,5.6458,5.6186,5.5973,5.5743,5.5448,5.4896,5.4293,5.4165,5.4337,5.4205,8.7809,8.7433,8.7148,8.6777,8.6275,8.5844,8.5333,8.4801,8.4483,8.3681,8.2693,8.2445,8.135,7.9586,7.853,7.772,7.6592,7.546,7.4858,7.4498,7.352,7.2268,7.1275,6.9658,6.838,6.7834,6.8572,6.9265,6.978,7.0275,7.0625,7.1354,7.1269,7.0873,7.0962,7.0841,6.9971,6.9026,6.8727,6.8162,6.72,6.6848,6.621,6.5539,6.513,6.4428,6.2897,6.2651,6.217,6.1215,5.9927,5.8462,5.7818,5.8497,5.9634,6.103,6.2537,6.2857,6.2451,6.346,6.4127,6.2615,6.2385,6.217,6.1963,6.1892,6.2215,6.2776,6.3061,6.3295,6.2858,6.2511,6.1908,6.1007,5.979,5.8829,5.8585,5.7928,5.7229,5.7172,5.6796,5.6574,5.6622,5.6593,5.6518,5.594,5.5866,5.6567,5.6445,5.6719,5.7084,5.7406,5.7958,5.8205,5.8266,5.8127,5.7651,5.7405,5.7128,5.7111,5.6848,5.6666,5.6622,5.6487,5.6397,5.6292,5.6489,5.6503,5.6292,5.5927,5.5509,5.5104,5.4626,5.3942,5.3675,8.7982,8.762,8.7221,8.6824,8.6364,8.5587,8.4869,8.4275,8.3829,8.2562,8.1346,8.0997,7.9836,7.8079,7.6851,7.5661,7.5101,7.3983,7.2972,7.2794,7.2061,7.1066,7.0091,6.8503,6.7293,6.7072,6.7848,6.8108,6.8127,6.8659,6.9483,6.9355,6.8946,6.9395,6.918,6.8832,6.8345,6.7053,6.678,6.6087,6.4916,6.4808,6.4617,6.4243,6.3471,6.2237,6.0743,6.0147,5.9192,5.7499,5.584,5.5396,5.595,5.6774,5.7671,5.8918,6.0409,6.1107,6.0623,6.1556,6.2604,6.2483,6.2194,6.1179,6.0492,6.0806,6.1169,6.1444,6.1371,6.1919,6.2219,6.1558,6.1292,6.0906,5.9582,5.8115,5.698,5.6273,5.6075,5.6081,5.5906,5.5673,5.5567,5.5339,5.5298,5.5363,5.5745,5.6611,5.6959,5.7155,5.737,5.751,5.7788,5.7606,5.7698,5.7759,5.7467,5.7345,5.7299,5.7268,5.6656,5.6397,5.6366,5.6276,5.6185,5.6352,5.6503,5.6593,5.6518,5.6292,5.5927,5.5351,5.4621,5.3531,5.3006,8.8195,8.8026,8.6398,8.5538,8.4937,8.3608,8.272,8.1699,8.1495,8.0749,7.9832,7.9471,7.8421,7.6775,7.5976,7.5172,7.3915,7.3393,7.2829,7.2136,7.1185,7.0133,6.9671,6.8017,6.7008,6.65,6.6497,6.6307,6.5855,6.5462,6.5311,6.5672,6.5503,6.5355,6.6311,6.5873,6.5429,6.5257,6.5174,6.4574,6.3858,6.3593,6.335,6.2966,6.1626,5.9757,5.8084,5.6789,5.5787,5.4017,5.357,5.3619,5.3682,5.3798,5.4348,5.516,5.6968,5.7684,5.6945,5.9916,6.2382,6.2891,6.2592,6.2776,6.229,6.2172,6.2279,6.2291,6.3277,6.2578,6.242,6.212,6.1709,6.1311,5.9958,5.7602,5.5104,5.3728,5.3555,5.4062,5.3604,5.3095,5.2834,5.2676,5.2712,5.3499,5.3309,5.393,5.4336,5.4833,5.55,5.6199,5.646,5.6658,5.6887,5.7039,5.6794,5.6655,5.6381,5.6519,5.5954,5.6033,5.6094,5.6185,5.6231,5.6352,5.6548,5.6593,5.6518,5.6337,5.6246,5.5574,5.4902,5.4176,5.347,8.5597,8.5326,8.4526,8.4074,8.3818,8.2958,8.2279,8.1719,8.126,8.0187,7.8753,7.8349,7.7087,7.5225,7.482,7.416,7.3498,7.3184,7.2971,7.2503,7.1799,7.0463,6.8773,6.7431,6.6135,6.5248,6.5202,6.4616,6.3677,6.3771,6.394,6.3856,6.3973,6.4588,6.5317,6.5065,6.4491,6.4044,6.3518,6.2539,6.1381,6.1234,6.1068,6.0571,5.9924,5.897,5.7829,5.6456,5.5214,5.4028,5.341,5.3283,5.3314,5.3896,5.3989,5.3295,5.4931,5.5672,5.5672,5.7371,5.9269,5.9895,6.063,6.0495,6.0429,6.0476,6.0816,6.0827,6.0689,6.0836,6.0878,6.0583,6.0391,6.0028,5.7799,5.5464,5.376,5.3018,5.2791,5.2627,5.2605,5.2592,5.2382,5.2309,5.2067,5.1604,5.1122,5.1324,5.158,5.1819,5.2341,5.2819,5.3148,5.3819,5.4222,5.431,5.4127,5.4432,5.4494,5.5247,5.5237,5.5562,5.5654,5.5882,5.614,5.6352,5.6532,5.6652,5.6454,5.6317,5.6427,5.611,5.5826,5.5265,5.4655,8.3734,8.3419,8.2831,8.261,8.2479,8.1778,8.129,8.094,8.0486,7.9134,7.7792,7.7222,7.6047,7.4328,7.3973,7.3566,7.3324,7.3149,7.3078,7.2971,7.2684,7.0987,6.8773,6.6846,6.5027,6.3484,6.3423,6.2841,6.1554,6.1655,6.1761,6.185,6.1333,6.2233,6.3685,6.273,6.2472,6.2311,6.1617,6.0483,5.931,5.9223,5.8812,5.8154,5.7809,5.7389,5.6906,5.5839,5.4623,5.3341,5.2359,5.1783,5.1529,5.2175,5.2092,5.1478,5.2489,5.3274,5.3611,5.5032,5.6055,5.643,5.7782,5.8164,5.7665,5.7923,5.8295,5.8526,5.8176,5.8173,5.8622,5.8253,5.782,5.7354,5.5671,5.3806,5.2941,5.2278,5.1569,5.116,5.1232,5.1079,5.0843,5.076,5.0522,5.0114,4.9817,4.9824,4.9892,5.0084,5.0631,5.06,5.0908,5.1402,5.1702,5.1715,5.1915,5.2375,5.291,5.3592,5.3813,5.4368,5.4862,5.5229,5.5317,5.5225,5.5693,5.6437,5.6249,5.5941,5.6147,5.6489,5.6275,5.6505,5.5933,8.3972,8.3546,8.1757,8.0989,8.0807,7.9415,7.8649,7.8028,7.7872,7.7427,7.6628,7.6203,7.5418,7.48,7.4131,7.3668,7.3324,7.3149,7.2972,7.2684,7.2113,7.1172,6.924,6.6421,6.3795,6.1812,6.1327,6.0489,5.9251,5.8912,5.7865,5.7055,5.7251,5.7215,5.8422,5.8064,5.8611,5.9381,5.904,5.8743,5.8469,5.8501,5.79,5.6511,5.5662,5.4703,5.377,5.3322,5.2472,5.0845,4.9615,4.8857,4.8021,4.769,4.8513,4.8382,4.8813,4.9855,5.0704,5.2503,5.3938,5.4603,5.5765,5.6728,5.6606,5.6682,5.6973,5.7261,5.678,5.6425,5.6365,5.5864,5.5189,5.4953,5.4018,5.3089,5.2149,5.06,4.9915,4.9452,4.8783,4.8398,4.8423,4.8313,4.796,4.7521,4.7404,4.7726,4.7999,4.8425,4.9069,4.9539,4.9847,5.0192,5.0259,5.0343,5.0552,5.0915,5.1284,5.156,5.1652,5.2616,5.3397,5.3965,5.4232,5.4131,5.448,5.5465,5.5812,5.5761,5.5976,5.6378,5.6796,5.7389,5.7225,8.0993,8.0727,7.9893,7.9464,7.9258,7.8597,7.8061,7.7928,7.7689,7.7313,7.6833,7.6271,7.5584,7.4937,7.4289,7.3767,7.3289,7.3254,7.2902,7.2253,7.135,6.9936,6.8179,6.5682,6.2834,6.0117,5.9119,5.818,5.6932,5.6499,5.6164,5.5819,5.5698,5.6292,5.7453,5.6562,5.6372,5.7184,5.6474,5.5832,5.5751,5.58,5.5498,5.4726,5.4276,5.3709,5.2997,5.1707,5.0836,5.0377,5.0426,5.0268,5.0215,5.0023,4.9657,4.901,4.9058,4.9298,4.9418,5.0389,5.1325,5.2442,5.3018,5.3452,5.3769,5.4027,5.4272,5.4556,5.4475,5.4479,5.4569,5.4264,5.323,5.1676,5.1593,5.1319,5.0755,4.994,4.9547,4.9367,4.9031,4.843,4.7876,4.759,4.7229,4.6934,4.6618,4.6651,4.6587,4.6692,4.6894,4.7314,4.8058,4.8476,4.8718,4.901,4.9216,4.9504,4.9903,5.021,5.0473,5.1546,5.2344,5.2905,5.3428,5.3344,5.3559,5.4544,5.5133,5.5659,5.5778,5.5935,5.6135,5.7071,5.7483,7.9309,7.9114,7.8947,7.8756,7.8578,7.835,7.8207,7.8116,7.7965,7.7648,7.7269,7.6664,7.5961,7.5191,7.457,7.3932,7.3289,7.287,7.2003,7.0666,6.9522,6.8298,6.6736,6.4467,6.1926,5.9522,5.777,5.6415,5.5629,5.5227,5.512,5.5172,5.4954,5.5462,5.6238,5.4836,5.4344,5.5103,5.4134,5.3463,5.3383,5.3766,5.3562,5.2932,5.271,5.2261,5.1484,5.0041,4.9312,4.9362,5.0068,5.0343,5.0114,5.0102,4.9585,4.8473,4.8336,4.8211,4.8059,4.8732,4.9659,5.0355,5.1189,5.1439,5.1622,5.1768,5.2043,5.2394,5.2247,5.2316,5.2456,5.2438,5.1315,4.928,4.9515,4.9856,4.9788,4.984,4.9845,4.9662,4.9225,4.8552,4.7807,4.744,4.7078,4.667,4.6423,4.6132,4.5867,4.5857,4.5712,4.5712,4.5712,4.6229,4.6969,4.7522,4.7894,4.8293,4.9237,4.9893,5.0236,5.0913,5.1455,5.2007,5.2471,5.2727,5.2937,5.3355,5.3761,5.4227,5.4793,5.5135,5.5335,5.5723,5.6274,7.9485,7.9155,7.9126,7.8947,7.8739,7.8573,7.8405,7.8208,7.8135,7.7943,7.7623,7.7044,7.628,7.5644,7.5056,7.4219,7.3041,7.1987,7.0263,6.8157,6.7424,6.6664,6.5678,6.2923,6.1113,6.0207,5.7252,5.5555,5.518,5.4837,5.4503,5.4088,5.3845,5.3806,5.3542,5.2443,5.2039,5.2339,5.1923,5.1798,5.2325,5.2554,5.2247,5.1205,5.0725,4.9734,4.7988,4.779,4.7761,4.7731,4.763,4.7034,4.683,4.6746,4.6404,4.6223,4.5955,4.5854,4.6168,4.7794,4.8481,4.8642,5.0217,5.0853,5.0392,5.0378,5.0582,5.0963,5.0545,5.0041,5.0141,4.9761,4.9075,4.8406,4.869,4.9069,4.9367,4.9913,5.0125,4.9552,4.9113,4.8391,4.7569,4.7199,4.6845,4.6311,4.6103,4.6007,4.55,4.5486,4.55,4.5372,4.5358,4.55,4.5809,4.6186,4.6734,4.746,4.8818,4.9772,5.0176,5.0773,5.1372,5.1544,5.2028,5.2134,5.235,5.2798,5.302,5.3082,5.3552,5.4026,5.4621,5.524,5.5479,7.9728,7.9515,7.9405,7.9249,7.8967,7.8749,7.8531,7.8298,7.8172,7.7982,7.7648,7.6952,7.6494,7.612,7.5584,7.4232,7.2085,7.0581,6.8948,6.7255,6.6122,6.5105,6.3898,6.1722,6.004,5.8726,5.7012,5.5574,5.4503,5.3972,5.3679,5.3482,5.3036,5.2736,5.2236,5.0582,4.9541,4.9372,4.8396,4.8008,4.8365,4.8978,4.9135,4.8852,4.8233,4.7699,4.74,4.7118,4.7027,4.7037,4.6752,4.6506,4.6299,4.6103,4.5906,4.5796,4.5796,4.5796,4.5912,4.6459,4.6778,4.669,4.7258,4.7534,4.7546,4.7877,4.8004,4.8109,4.8088,4.8303,4.8182,4.799,4.7758,4.7679,4.822,4.869,4.8873,4.973,5.0129,4.9985,4.9521,4.8697,4.7719,4.7148,4.6629,4.6186,4.5936,4.5669,4.52,4.51,4.51,4.5043,4.5056,4.5286,4.5551,4.6293,4.702,4.7929,4.9237,4.9818,5.0296,5.0967,5.1443,5.1446,5.1508,5.1563,5.1898,5.2334,5.2431,5.2338,5.2719,5.3212,5.378,5.4663,5.494,7.9823,7.9775,7.962,7.9405,7.9176,7.8989,7.877,7.8499,7.835,7.8154,7.773,7.6968,7.653,7.6291,7.4824,7.2793,7.039,6.8942,6.7445,6.5827,6.4523,6.3443,6.2568,6.0952,5.929,5.784,5.6871,5.5498,5.3923,5.3462,5.3164,5.2915,5.2411,5.1722,5.0743,4.8873,4.7721,4.7402,4.6379,4.6002,4.6636,4.7175,4.7315,4.7011,4.6533,4.6414,4.6582,4.6435,4.6382,4.6517,4.6269,4.6145,4.6103,4.5852,4.5556,4.5286,4.5257,4.5186,4.5129,4.5086,4.5071,4.52,4.5043,4.5172,4.5513,4.5899,4.6168,4.6232,4.6741,4.6782,4.6588,4.6629,4.6875,4.7239,4.7828,4.8336,4.8759,4.9436,5.0057,5.0129,4.9808,4.8962,4.7728,4.6764,4.6216,4.5725,4.55,4.5286,4.4985,4.4724,4.4681,4.474,4.487,4.5129,4.5399,4.6283,4.7447,4.844,4.9614,5.0361,5.1083,5.1818,5.2143,5.2239,5.2367,5.247,5.2665,5.3068,5.2701,5.2492,5.2112,5.2508,5.2649,5.2941,5.3632,7.9688,7.9568,7.9585,7.9447,7.931,7.929,7.9091,7.8747,7.8583,7.8256,7.7665,7.7106,7.6562,7.5848,7.2878,7.037,6.8481,6.7327,6.5771,6.391,6.2721,6.1888,6.1349,6.0383,5.9097,5.7594,5.6663,5.5265,5.3383,5.3185,5.2915,5.244,5.1794,5.0693,4.9264,4.7551,4.6468,4.6409,4.5745,4.5743,4.65,4.6994,4.6633,4.5666,4.5499,4.5397,4.5429,4.5484,4.5627,4.5738,4.5738,4.578,4.5767,4.5386,4.4999,4.4537,4.4318,4.4114,4.4114,4.3886,4.383,4.4086,4.413,4.4234,4.4841,4.5084,4.5372,4.5767,4.5977,4.5822,4.5314,4.5894,4.6435,4.7078,4.746,4.7985,4.869,4.9038,4.9447,4.9845,4.9767,4.8994,4.7488,4.6429,4.5612,4.4841,4.4626,4.4613,4.4339,4.4193,4.4053,4.4185,4.4572,4.5091,4.5005,4.6065,4.7518,4.8889,5.0252,5.1588,5.2239,5.2776,5.2986,5.313,5.3185,5.3367,5.3576,5.3469,5.3154,5.2822,5.2442,5.1904,5.1942,5.1668,5.2217,7.6213,7.6424,7.7514,7.8642,7.9568,7.948,7.929,7.8978,7.8775,7.7753,7.6392,7.6851,7.5812,7.3455,7.1053,6.9339,6.8034,6.6485,6.4807,6.3279,6.2787,6.2101,6.1272,6.0705,5.9443,5.7723,5.6867,5.5546,5.3699,5.2836,5.218,5.1714,5.1041,5.0352,4.9549,4.7708,4.6704,4.6571,4.5177,4.4779,4.5224,4.4665,4.4187,4.3953,4.3366,4.3397,4.4161,4.4086,4.4114,4.4306,4.4465,4.4596,4.4596,4.4434,4.4242,4.4082,4.4021,4.4021,4.3977,4.3876,4.3849,4.3949,4.3776,4.3926,4.445,4.4634,4.4722,4.4971,4.5881,4.6145,4.5767,4.6286,4.6588,4.6517,4.6875,4.749,4.846,4.8353,4.8667,4.9584,4.9399,4.8887,4.8514,4.7069,4.5314,4.393,4.33,4.2784,4.2293,4.2683,4.2773,4.2134,4.3035,4.3737,4.4203,4.5771,4.7768,4.929,5.0702,5.2071,5.313,5.3338,5.3537,5.4301,5.4083,5.4111,5.4362,5.4055,5.3678,5.338,5.3026,5.2531,5.1818,5.2284,5.2572,7.4766,7.4928,7.5968,7.6928,7.7625,7.7602,7.7377,7.7058,7.6561,7.5773,7.4749,7.3883,7.2487,7.0555,6.9098,6.8046,6.7313,6.5904,6.4603,6.3532,6.2954,6.2242,6.1385,6.0786,5.9363,5.7434,5.6717,5.5439,5.3767,5.2585,5.177,5.1146,5.0413,4.961,4.8751,4.7314,4.644,4.6253,4.47,4.3982,4.3972,4.2992,4.2339,4.2123,4.1653,4.1763,4.2431,4.2376,4.2374,4.2558,4.2695,4.2832,4.2923,4.2768,4.2822,4.3123,4.3168,4.3186,4.344,4.3485,4.3412,4.344,4.3771,4.4114,4.4653,4.4826,4.4841,4.4928,4.5754,4.6145,4.578,4.6228,4.6547,4.6559,4.6641,4.7169,4.8267,4.8042,4.8167,4.9106,4.9031,4.8766,4.8314,4.718,4.554,4.3649,4.2586,4.2137,4.171,4.204,4.2054,4.1566,4.1909,4.283,4.3872,4.5652,4.7616,4.9558,5.1191,5.2771,5.4175,5.474,5.4979,5.5506,5.5387,5.5325,5.5231,5.5114,5.4931,5.4431,5.4048,5.3629,5.2732,5.2738,5.2599,7.4184,7.4408,7.4668,7.4751,7.4687,7.4744,7.4634,7.4318,7.3286,7.2995,7.2756,6.9863,6.8447,6.7855,6.747,6.6973,6.6522,6.5584,6.484,6.4223,6.315,6.2311,6.1572,6.064,5.9161,5.7379,5.6392,5.5191,5.3669,5.2585,5.1644,5.0702,4.98,4.8645,4.7421,4.6488,4.5867,4.5598,4.4113,4.3108,4.2758,4.1858,4.0972,4.0314,4.0128,4.0194,4.0519,4.0519,4.0567,4.0663,4.0759,4.0828,4.1019,4.0781,4.0997,4.1664,4.1711,4.1945,4.2363,4.2501,4.2639,4.2804,4.3719,4.4387,4.474,4.5242,4.5538,4.5667,4.5906,4.6157,4.5751,4.6074,4.6447,4.6764,4.6711,4.7037,4.7925,4.7846,4.7955,4.8652,4.8652,4.8314,4.753,4.6908,4.5635,4.3277,4.1761,4.0811,4.0938,4.1247,4.1311,4.1264,4.1686,4.2456,4.3714,4.47,4.7205,5.0494,5.2002,5.3611,5.5435,5.6392,5.6716,5.6739,5.6705,5.6644,5.67,5.6747,5.6523,5.5752,5.5433,5.5074,5.3739,5.3019,5.2776,7.0828,7.1073,7.2456,7.3045,7.3114,7.4179,7.4644,7.4425,7.314,7.1682,7.0185,6.9255,6.8656,6.8258,6.7614,6.7172,6.6705,6.5972,6.5142,6.4274,6.3309,6.2415,6.1425,6.0333,5.9071,5.7743,5.6423,5.5128,5.3787,5.2348,5.1381,5.0597,4.8717,4.7842,4.7911,4.6413,4.593,4.6295,4.3227,4.1547,4.1407,4.009,3.9345,3.9095,3.7614,3.7398,3.8464,3.816,3.8462,3.955,3.9817,3.9937,3.9986,3.9768,3.9671,3.9817,3.9866,3.9914,4.0108,4.0781,4.159,4.2363,4.2895,4.344,4.4154,4.5314,4.6406,4.715,4.7509,4.7558,4.716,4.739,4.741,4.6782,4.67,4.7037,4.7867,4.7089,4.6856,4.8267,4.7994,4.76,4.727,4.647,4.4925,4.2445,3.9511,3.7877,3.8003,3.8548,3.9024,3.961,4.1259,4.2824,4.3444,4.5368,4.7965,5.0713,5.2368,5.422,5.6358,5.733,5.7566,5.8019,5.793,5.7746,5.7707,5.7513,5.7074,5.6864,5.6618,5.6207,5.5089,5.4152,5.3547,6.9495,6.9835,7.0821,7.1287,7.1412,7.2167,7.2464,7.2265,7.1509,7.0436,6.9273,6.917,6.8881,6.8473,6.7981,6.7459,6.7023,6.6414,6.5706,6.4827,6.3898,6.2541,6.0773,6.0164,5.8848,5.6991,5.6044,5.5001,5.3806,5.2117,5.0805,4.9692,4.8086,4.6856,4.6206,4.4995,4.4517,4.4762,4.0066,3.7316,3.6916,3.4482,3.3011,3.264,3.2567,3.2836,3.3599,3.3256,3.3793,3.5523,3.5095,3.5598,3.7459,3.7022,3.6972,3.7689,3.8386,3.871,3.871,3.9475,4.0156,4.0759,4.1751,4.2328,4.2393,4.3837,4.544,4.6999,4.7894,4.8253,4.8183,4.8206,4.7925,4.7239,4.6864,4.6986,4.747,4.66,4.6447,4.7639,4.736,4.6834,4.65,4.5919,4.4585,4.2179,3.9511,3.7241,3.644,3.6565,3.6969,3.7851,4.0604,4.2881,4.4154,4.6011,4.8118,5.0576,5.1793,5.3608,5.6423,5.7174,5.7665,5.8612,5.8644,5.8509,5.8486,5.8235,5.7974,5.7804,5.7565,5.7205,5.65,5.5446,5.4896,6.9374,6.9583,6.9749,6.9871,7.0007,7.0,6.9818,6.9653,6.9646,6.9542,6.9362,6.9204,6.8949,6.8618,6.8168,6.7745,6.7243,6.6782,6.6053,6.5104,6.4118,6.223,5.964,5.9611,5.8319,5.6076,5.5478,5.4775,5.3777,5.2089,5.0276,4.861,4.7642,4.6092,4.3879,4.3021,4.2304,4.1418,3.6134,3.3149,3.2787,2.9612,2.7204,2.5811,2.7518,2.8228,2.7877,2.769,2.8412,3.027,2.9012,3.0239,3.4482,3.3401,3.3297,3.5095,3.6294,3.7061,3.7253,3.7873,3.8292,3.8487,4.0176,4.0758,3.9789,4.15,4.3665,4.5957,4.7567,4.8521,4.9007,4.8894,4.8552,4.7916,4.728,4.6986,4.7159,4.6394,4.6157,4.7037,4.667,4.5965,4.5271,4.4942,4.3815,4.1478,3.9005,3.7435,3.5419,3.4582,3.4575,3.5752,3.8892,4.155,4.14,4.3355,4.4013,4.8171,4.8403,4.9629,5.5311,5.6658,5.7331,5.885,5.9053,5.8995,5.9006,5.9073,5.8841,5.8536,5.8235,5.7981,5.7561,5.6855,5.632,6.9513,6.9773,6.9774,6.985,7.0008,6.9988,6.9897,6.9778,0.0,0.0,0.0,6.8985,6.887,6.8751,6.8157,6.7725,6.7397,6.6449,6.5053,6.3205,6.2,6.0253,5.8087,5.6958,5.652,5.6653,5.5048,5.4246,5.4086,5.2564,5.0537,4.8283,4.7531,4.5748,4.2925,4.1858,3.9651,3.6275,3.3921,3.4002,3.6455,3.4886,3.1883,2.7451,2.7833,2.6841,2.437,2.4309,2.4827,2.5914,2.5249,2.7368,3.2679,2.9434,2.8568,3.1356,3.1508,3.1989,3.3401,3.4337,3.5235,3.6108,3.7636,3.7508,3.4909,3.8792,4.2379,4.4827,4.7313,4.9049,4.9594,5.0319,5.0078,4.8314,4.8089,4.7816,4.725,4.624,4.5864,4.6423,4.5484,4.4465,4.429,4.3302,4.1405,3.8733,3.7096,3.5285,3.275,3.0288,2.9114,3.1015,3.4343,3.4963,3.2549,3.0749,3.153,3.8987,3.9708,4.3318,5.2863,5.6698,5.7511,5.9037,5.9371,5.9416,5.9465,5.9374,5.9228,5.9125,5.8979,5.8749,5.817,5.7975,5.7946,6.9373,0.0,6.9782,6.9855,0.0,7.0008,6.99,6.9778,6.9717,6.952,6.9284,6.9006,6.8859,6.8693,6.8157,6.7837,6.7572,6.5881,6.4411,6.3066,6.118,5.895,5.663,5.611,5.5506,5.4754,5.3596,5.2726,5.1992,5.0532,4.8167,4.4896,4.4203,4.1579,3.719,3.7206,3.5462,3.1679,3.0365,3.0593,3.2202,2.9917,2.7434,2.516,2.566,0.0,0.0,0.0,0.0,0.0,0.0,0.0,0.0,0.0,0.0,2.8771,2.768,2.7047,2.7468,2.8551,2.972,3.0884,3.1678,3.121,2.9102,3.3201,3.739,4.0908,4.4063,4.6852,4.9326,5.0223,5.0396,4.9903,4.9019,4.833,4.8012,4.6663,4.5948,4.634,4.5057,4.3643,4.3077,4.199,4.0237,3.7484,3.5738,3.4223,3.2285,2.8336,2.7108,3.1099,3.4014,3.4232,3.0563,2.6467,2.5582,2.8428,3.2701,3.8435,4.5495,5.1988,5.7039,5.8681,5.9184,5.9289,5.9361,5.9527,5.9546,5.9415,5.9347,5.9162,5.8883,5.8838,5.8849,6.9267,6.9646,6.9778,6.9848,6.9919,6.9618,6.924,6.8816,6.8694,6.8586,6.8449,6.8522,6.8374,6.8142,6.773,6.7339,6.6747,6.4618,6.3222,6.2449,6.0106,5.7728,5.5302,5.5287,5.435,5.2732,5.2127,5.1118,4.9827,4.8613,4.5932,4.1916,4.1342,3.8141,3.2548,0.0,0.0,0.0,2.6997,2.6954,2.7471,2.475,2.2999,2.2293,2.3652,0.0,2.3619,2.3391,2.3236,2.32,2.4676,0.0,0.0,0.0,0.0,0.0,0.0,0.0,0.0,0.0,0.0,0.0,2.5711,2.5207,2.4709,2.7822,3.1579,3.5598,3.9731,4.3541,4.6835,4.796,4.902,5.0111,4.8933,4.8267,4.8756,4.716,4.6032,4.6257,4.4596,4.2923,4.1692,4.0725,3.9167,3.6465,3.436,3.2727,3.1412,2.5827,2.5499,3.2912,3.2983,3.1786,2.8197,2.2226,1.7472,1.876,2.4653,3.0626,3.6918,4.6218,5.2454,5.8166,5.8642,5.8771,5.8919,5.9309,5.9536,5.9451,5.9479,5.9492,5.9454,5.9394,5.9255,6.9298,6.9761,6.9749,6.988,6.9894,6.8411,6.6885,6.5384,6.5332,6.5222,6.5051,6.6282,6.6651,6.6386,6.6024,6.4891,6.3182,6.176,6.0314,5.8777,5.7415,5.5763,5.3901,5.2701,5.2295,5.2626,5.1299,5.0246,4.9475,4.9032,4.647,4.2162,4.25,3.989,3.4149,3.115,2.8059,2.4767,2.5426,2.662,2.8406,2.8631,2.6492,2.2252,2.432,2.3962,2.047,2.1156,2.367,2.7763,2.4356,2.4129,2.8278,2.5455,2.3777,0.0,2.245,0.0,0.0,0.0,0.0,0.0,0.0,0.0,0.0,2.5573,2.6883,2.8578,3.5623,3.9576,3.8482,4.1478,4.4208,4.5704,4.6385,4.7201,4.8258,4.725,4.6028,4.5043,4.3357,4.1825,4.0659,3.8612,3.6576,3.4542,3.1557,2.857,2.5777,2.0229,2.0732,3.4563,2.7487,2.1768,1.7231,0.9891,0.6085,0.9272,1.0459,1.52,3.4134,3.8579,4.3049,5.4184,5.7286,5.7748,5.8309,5.8647,5.8936,5.919,5.94,5.9455,5.9229,5.9366,5.9523,6.7769,6.8264,6.9275,6.8711,6.7123,6.6309,6.5477,6.4636,6.4543,6.4338,6.4031,6.4695,6.4758,6.432,6.3773,6.318,6.2347,6.0136,5.8702,5.7761,5.5519,5.3841,5.2743,5.1522,5.0927,5.0786,4.9406,4.8169,4.7201,4.622,4.3915,4.0324,3.9741,3.578,2.881,2.9161,2.793,2.4918,2.5279,2.5902,2.6549,2.6735,2.584,2.3753,2.4746,2.4847,2.3887,2.4197,2.5809,2.8712,2.7696,2.8479,3.1526,2.5637,2.2114,0.0,0.0,0.0,0.0,0.0,0.0,0.0,0.0,0.0,0.0,0.0,2.1913,2.2442,2.9273,3.3893,3.4305,3.6438,3.913,4.2274,4.2013,4.2537,4.4921,4.4571,4.365,4.2283,4.127,4.018,3.8739,3.6772,3.4682,3.2634,2.8163,2.4029,2.094,1.6654,1.5504,2.1995,2.4619,2.303,1.3489,0.6097,0.134,0.1923,0.3953,0.8534,1.8296,2.9712,3.9713,4.5589,5.2099,5.6602,5.6806,5.7325,5.7987,5.8397,5.8558,5.8616,5.8677,5.8965,5.9336,6.5925,6.6302,6.6046,6.4806,6.3047,6.2901,6.2966,6.3219,6.3047,6.2439,6.1674,6.2506,6.1846,6.014,5.9331,5.9294,5.9737,5.7207,5.6433,5.6823,5.4111,5.2556,5.2013,5.0914,5.0002,4.9231,4.7737,4.6364,4.5171,4.3204,4.0529,3.7332,3.6089,3.1819,2.4976,2.7078,2.7379,2.5542,2.4882,2.4528,2.4426,2.4092,2.4121,2.4539,2.4509,2.5216,2.6648,2.6765,2.7157,2.801,2.9215,3.074,3.2668,2.5005,0.0,0.0,0.0,0.0,0.0,0.0,0.0,0.0,0.0,1.7931,1.3055,0.0,1.8266,0.0,2.3634,2.7381,2.9018,3.0255,0.0,0.0,3.6624,3.7254,4.0317,4.1055,4.0602,3.8894,3.8753,3.8096,3.6185,3.4757,3.2894,3.0218,2.5199,2.0794,1.7999,1.5087,1.4044,1.7569,2.4937,2.7192,1.8603,1.0195,0.3238,-0.2965,0.0579,0.4834,0.5989,2.088,3.3736,3.824,4.6195,5.2328,5.5011,5.6032,5.6696,5.695,5.7096,5.7309,5.8048,5.8566,5.9038,6.4224,6.4208,5.8066,5.6311,5.753,5.7436,5.8159,5.9339,5.9201,5.7716,5.5631,5.8861,5.7243,5.2027,5.0744,0.0,5.2501,5.1339,5.229,5.4984,5.3405,5.2395,5.1849,5.0603,4.9735,4.9168,4.725,4.5696,4.4468,4.1241,3.7213,3.271,3.2488,3.0634,2.7174,2.5154,2.4722,2.5774,2.333,2.2444,2.3056,2.247,2.2485,2.3089,2.3348,2.4098,2.541,2.6221,2.6405,2.5963,2.5794,2.7462,3.0765,0.0,0.0,0.0,0.0,0.0,0.0,0.0,0.0,0.0,0.0,0.0,0.0,0.0,0.0,0.0,2.0109,0.0,1.9598,2.1264,0.0,0.0,0.0,3.2307,3.496,3.6898,3.7248,3.5108,0.0,0.0,3.2989,3.2512,3.1024,2.7166,2.3183,1.9876,1.7469,1.6452,1.9628,2.7267,2.799,2.7851,2.8175,2.1845,1.162,-0.0243,-0.379,-0.0182,0.7133,1.1435,1.91,3.5886,4.0697,4.3945,5.3094,5.4854,5.5008,5.4642,5.5055,5.5972,5.7453,5.83,5.8879,5.7767,5.5157,5.2417,5.1693,5.2219,5.1767,5.3056,5.5331,5.4571,5.3053,5.1198,5.225,4.9617,4.4411,4.3974,0.0,0.0,0.0,4.8461,5.1571,4.9582,4.9465,5.0682,4.9348,4.8314,4.756,4.599,4.4726,4.3776,4.1396,3.5409,2.625,0.0,0.0,2.0821,2.1847,2.2256,2.185,2.2039,2.1418,1.9946,1.9396,1.9323,1.9702,2.1273,2.2958,2.465,2.5658,2.5471,2.4055,2.4259,2.3741,0.0,0.0,0.0,0.0,0.0,0.0,0.0,0.0,0.0,0.0,0.0,1.3168,1.0747,0.0,0.0,0.0,1.3097,1.2545,1.3166,1.4169,0.0,0.0,0.0,0.0,0.0,0.0,0.0,3.1835,3.3565,3.4004,3.2098,3.1199,2.9142,2.4791,2.1569,1.8902,1.7096,0.0,1.4766,0.9346,2.1727,2.7225,1.4427,1.9289,2.1162,0.9918,0.3046,0.0431,0.3661,0.7241,1.4459,2.7199,3.5157,4.193,5.134,5.3118,5.3198,5.3585,5.4644,5.5957,5.7332,5.8181,5.8891,5.0943,0.0,0.0,0.0,0.0,4.6791,4.8086,5.0526,4.9539,4.7639,4.5224,4.5214,0.0,0.0,0.0,0.0,0.0,0.0,4.5076,4.7875,4.7571,4.8079,4.9336,4.7778,4.6959,4.661,4.4213,4.222,4.0528,3.8801,3.2558,2.2096,0.0,0.0,0.0,0.0,1.9602,1.8649,2.0136,1.9896,1.7597,1.6941,1.6592,1.6471,1.9109,2.1625,2.3903,2.423,2.3763,2.2459,2.129,0.0,0.0,0.0,0.0,0.0,0.0,0.0,0.0,0.0,0.0,0.0,0.0,0.0,0.0,0.0,0.0,0.0,0.0,0.0,0.8862,0.9165,1.0564,0.0,0.0,0.0,0.0,0.0,0.0,0.0,0.0,0.0,2.9765,2.9116,2.7406,0.0,0.0,1.7708,1.669,1.7627,1.4668,0.3787,2.0843,0.0,1.094,1.9904,2.6563,1.9793,1.014,0.2898,0.179,0.648,1.3487,2.2882,3.0799,3.8915,4.7382,4.9465,4.9846,5.1115,5.2476,5.3806,5.5128,5.6394,5.7269,0.0,0.0,0.0,0.0,0.0,0.0,0.0,0.0,4.4076,4.1184,0.0,3.837,0.0,0.0,0.0,0.0,0.0,3.9157,0.0,0.0,4.8231,4.9391,4.7537,4.5867,4.5728,4.6482,4.1965,3.7663,3.3795,3.2061,0.0,0.0,0.0,0.0,0.0,0.0,1.6783,1.6624,1.7374,1.7435,1.6953,1.5695,1.4756,1.4258,1.7035,2.0032,2.305,2.1674,2.0963,2.1133,1.6049,0.0,0.0,0.0,0.0,0.0,0.0,0.0,0.0,0.0,0.0,0.0,0.0,0.0,0.0,0.0,0.0,0.0,0.0,0.0,0.0,0.6749,0.0,0.0,0.0,0.0,0.0,0.0,0.0,0.0,0.0,0.0,2.5328,2.5943,2.5855,2.3914,0.0,0.0,0.0,0.0,2.2375,2.3626,2.9549,3.3682,3.3733,2.9496,2.5904,2.5249,0.0,0.0,0.4968,0.744,1.3398,2.3705,2.8514,3.3429,4.1705,4.3587,4.4431,4.6439,4.7651,4.8507,5.007,5.2179,5.3697,0.0,0.0,0.0,0.0,0.0,0.0,0.0,0.0,0.0,3.6313,0.0,3.2932,0.0,0.0,0.0,0.0,0.0,0.0,0.0,0.0,3.9543,4.0427,3.9806,4.0195,3.9808,0.0,3.6517,3.1896,0.0,0.0,0.0,0.0,0.0,0.0,0.0,0.0,1.5846,1.5241,1.6956,1.7141,1.5665,1.4529,1.3595,1.3047,1.5035,1.745,2.0079,2.0284,1.9483,0.0,0.0,0.0,0.0,0.0,0.0,0.0,0.0,0.0,0.0,0.0,0.0,0.0,0.0,0.0,0.0,0.0,0.0,0.0,0.0,0.0,0.0,0.0,0.5248,0.0,0.0,0.0,0.0,0.0,0.0,0.0,0.0,0.0,2.3496,2.4344,2.4376,2.2569,1.9197,1.6824,1.6692,0.0,0.0,0.0,0.0,0.0,0.0,0.0,3.1237,2.9544,2.1975,1.5378,1.2868,1.2044,1.5001,2.525,0.0,0.0,3.6536,3.9604,4.1691,4.284,4.5628,4.7733,4.7729,4.9313,5.0536,0.0,0.0,0.0,0.0,0.0,0.0,0.0,0.0,0.0,3.139,2.855,0.0,0.0,0.0,0.0,0.0,0.0,0.0,0.0,0.0,0.0,0.0,3.4556,3.5253,0.0,0.0,0.0,0.0,0.0,0.0,0.0,0.0,0.0,0.0,0.0,0.0,1.5643,1.449,1.6485,1.6754,1.4981,1.3532,1.2584,1.2159,1.3859,1.5425,1.6858,0.0,0.0,0.0,0.0,0.0,0.0,0.0,0.0,0.0,0.0,0.0,0.0,0.0,0.0,0.0,0.0,0.0,0.0,0.0,0.0,0.0,0.0,0.0,0.0,0.0,0.4153,0.0,0.0,0.0,0.0,0.0,0.0,0.0,0.0,0.0,0.0,0.0,2.1924,2.0602,1.7726,1.5962,1.6519,1.739,1.5248,0.0,0.0,0.0,0.0,0.0,0.0,0.0,0.0,0.0,0.0,0.0,0.0,0.0,0.0,2.7737,3.1203,3.4375,3.6688,3.7143,0.0,0.0,0.0,0.0,0.0,0.0,0.0,0.0,0.0,0.0,0.0,0.0,0.0,0.0,0.0,0.0,0.0,0.0,1.9995,0.0,0.0,0.0,0.0,0.0,0.0,0.0,0.0,0.0,0.0,0.0,0.0,0.0,0.0,0.0,0.0,0.0,0.0,0.0,0.0,0.0,0.0,1.6109,1.423,1.5742,1.6,1.4855,1.2648,1.1517,1.1517,1.3341,1.4164,1.3844,0.0,0.0,0.0,0.0,0.0,0.0,0.0,0.0,0.0,0.0,0.0,0.0,0.0,0.0,0.0,0.0,0.0,0.0,0.0,0.0,0.0,0.0,0.0,0.0,0.0,0.0,0.3248,0.5214,0.7877,0.0,0.0,0.0,0.0,0.0,0.0,0.0,0.0,0.0,0.0,1.4952,1.3439,1.5603,1.9091,2.1017,2.0729,2.8868,3.4913,3.4231,3.6249,3.7313,0.0,0.0,0.0,0.0,0.0,0.0,0.0,0.0,0.0,0.0,0.0,0.0,0.0,0.0,0.0,0.0,0.0,0.0,0.0,0.0,0.0,0.0,0.0,0.0,0.0,0.0,0.0,0.0,0.0,0.0,0.0,0.0,0.0,0.0,0.0,0.0,0.0,0.0,0.0,0.0,0.0,0.0,0.0,0.0,0.0,0.0,0.0,0.0,0.0,0.0,0.0,0.0,0.0,0.0,1.5683,1.3176,1.533,1.5549,1.3604,1.2208,1.1317,1.111,1.2329,1.2923,0.0,0.0,0.0,0.0,0.0,0.0,0.0,0.0,0.0,0.0,0.0,0.0,0.0,0.0,0.0,0.0,0.0,0.0,0.0,0.0,0.0,0.0,0.0,0.0,0.0,0.0,0.0,0.0,0.6461,0.7537,0.9953,0.0,0.0,0.0,0.0,0.0,0.0,0.0,0.0,0.0,0.0,1.3654,1.4227,1.4933,1.5891,1.7101,2.5913,3.2501,3.2619,3.6688,3.8898,3.5976,0.0,0.0,0.0,0.0,0.0,0.0,0.0,0.0,0.0,0.0,0.0,0.0,0.0,0.0,0.0,0.0,0.0,0.0,0.0,0.0,0.0,0.0,0.0,0.0,0.0,0.0,0.0,0.0,0.0,0.0,0.0,0.0,0.0,0.0,0.0,0.0,0.0,0.0,0.0,0.0,0.0,0.0,0.0,0.0,0.0,0.0,0.0,0.0,0.0,0.0,0.0,0.0,0.0,1.5394,1.2705,1.5043,1.5307,1.3214,1.1831,1.1124,1.1117,1.1736,1.1757,0.0,0.0,0.0,0.0,0.0,0.0,0.0,0.0,0.0,0.0,0.0,0.0,0.0,0.0,0.0,0.0,0.0,0.0,0.0,0.0,0.0,0.0,0.0,0.0,0.0,0.0,0.0,0.0,0.6919,0.7724,0.8998,0.0,0.0,0.0,0.0,0.0,0.0,0.0,0.0,0.0,0.0,1.3066,1.3668,1.5208,0.0,0.0,2.5988,3.2361,3.3384,3.6687,3.813,3.5307,3.2121,0.0,0.0,0.0,0.0,0.0,0.0,0.0,0.0,0.0,0.0,0.0,0.0,0.0,0.0,0.0,0.0,0.0,0.0,0.0,0.0,0.0,0.0,0.0,0.0,0.0,0.0,0.0,0.0,0.0,0.0,0.0,0.0,0.0,0.0,0.0,0.0,0.0,0.0,0.0,0.0,0.0,0.0,0.0,0.0,0.0,0.0,0.0,0.0,0.0,0.0,0.0,0.0,0.0,1.2722,1.4823,1.5117,1.3332,1.1495,1.081,1.1374,1.1417,1.0588,0.0,0.0,0.0,0.0,0.0,0.0,0.0,0.0,0.0,0.0,0.0,0.0,0.0,0.0,0.0,0.0,0.0,0.0,0.0,0.0,0.0,0.0,0.0,0.0,0.0,0.0,0.0,0.0,0.0,0.0,0.0,0.0,0.0,0.0,0.0,0.0,0.0,0.0,0.0,0.0,0.0,1.2081,1.3776,1.833,2.177,0.0,0.0,3.369,3.6171,3.6351,3.5675,3.4141,0.0,0.0,0.0,0.0,0.0,0.0,0.0,0.0,0.0,0.0,0.0,0.0,0.0,0.0,0.0,0.0,0.0,0.0,0.0,0.0,0.0,0.0,0.0,0.0,0.0,0.0,0.0,0.0,0.0,0.0,0.0,0.0,0.0,0.0,0.0,0.0,0.0,0.0,0.0,0.0,0.0,0.0,0.0,0.0,0.0,0.0,0.0,0.0,0.0,0.0,0.0,0.0,0.0,0.0,1.1626,1.4698,1.4991,1.208,1.1446,1.1182,1.1039,1.0351,0.0,0.0,0.0,0.0,0.0,0.0,0.0,0.0,0.0,0.0,0.0,0.0,0.0,0.0,0.0,0.0,0.0,0.0,0.0,0.0,0.0,0.0,0.0,0.0,0.0,0.0,0.0,0.4934,0.0,0.0,0.0,0.0,0.0,0.0,0.0,0.0,0.0,0.0,0.0,0.0,0.0,0.0,1.3112,1.4136,1.7153,2.0553,0.0,0.0,3.1735,3.6054,3.5605,3.4301,0.0,0.0,0.0,0.0,0.0,0.0,0.0,0.0,0.0,0.0,0.0,0.0,0.0,0.0,0.0,0.0,0.0,0.0,0.0,0.0,0.0,0.0,0.0,0.0,0.0,0.0,0.0,0.0,0.0,0.0,0.0,0.0,0.0,0.0,0.0,0.0,0.0,0.0,0.0,0.0,0.0,0.0,0.0,0.0,0.0,0.0,0.0,0.0,0.0,0.0,0.0,0.0,0.0,0.0,1.4416,1.1803,1.3951,1.3961,1.156,1.1196,1.0932,1.0732,0.9917,0.8933,0.0,0.0,0.0,0.0,0.0,0.0,0.0,0.0,0.0,0.0,0.0,0.0,0.0,0.0,0.0,0.0,0.0,0.0,0.0,0.0,0.0,0.0,0.0,0.0,0.0,0.0,0.0,0.0,0.0,0.0,0.0,0.0,0.0,0.0,0.0,0.0,0.0,0.0,0.0,0.0,0.0,0.0,1.4826,1.6716,0.0,0.0,0.0,2.8651,3.4118,0.0,0.0,0.0,0.0,0.0,0.0,0.0,0.0,0.0,0.0,0.0,0.0,0.0,0.0,0.0,0.0,0.0,0.0,0.0,0.0,0.0,0.0,0.0,0.0,0.0,0.0,0.0,0.0,0.0,0.0,0.0,0.0,0.0,0.0,0.0,0.0,0.0,0.0,0.0,0.0,0.0,0.0,0.0,0.0,0.0,0.0,0.0,0.0,0.0,0.0,0.0,0.0,0.0,0.0,0.0,0.0,0.0,1.2343,1.3074,1.2846,1.1523,1.0874,1.0552,1.0545,0.9944,0.915,0.0,0.0,0.0,0.0,0.0,0.0,0.0,0.0,0.0,0.0,0.0,0.0,0.0,0.0,0.0,0.0,0.0,0.0,0.0,0.0,0.0,0.0,0.0,0.0,0.0,0.0,0.0,0.0,0.0,0.0,0.0,0.0,0.0,0.0,0.0,0.0,0.0,0.0,0.0,0.0,0.0,1.4831,1.5663,1.6611,1.845,0.0,0.0,2.5002,3.0925,2.8731,0.0,0.0,0.0,0.0,0.0,0.0,0.0,0.0,0.0,0.0,0.0,0.0,0.0,0.0,0.0,0.0,0.0,0.0,0.0,0.0,0.0,0.0,0.0,0.0,0.0,0.0,0.0,0.0,0.0,0.0,0.0,0.0,0.0,0.0,0.0,0.0,0.0,0.0,0.0,0.0,0.0,0.0,0.0,0.0,0.0,0.0,0.0,0.0,0.0,0.0,0.0,0.0,0.0,0.0,0.0,0.0,1.2353,1.329,1.3122,1.1552,1.1317,1.1124,1.0847,1.1226,1.0362,0.0,0.0,0.0,0.0,0.0,0.0,0.0,0.0,0.0,0.0,0.0,0.0,0.0,0.0,0.0,0.0,0.0,0.0,0.0,0.0,0.0,0.0,0.0,0.0,0.0,0.0,0.0,0.0,0.0,0.0,0.0,0.0,0.0,0.0,0.0,0.0,0.0,0.0,0.0,0.0,0.0,1.5337,1.5845,1.6005,0.0,0.0,0.0,0.0,2.6249,2.5624,0.0,0.0,0.0,0.0,0.0,0.0,0.0,0.0,0.0,0.0,0.0,0.0,0.0,0.0,0.0,0.0,0.0,0.0,0.0,0.0,0.0,0.0,0.0,0.0,0.0,0.0,0.0,0.0,0.0,0.0,0.0,0.0,0.0,0.0,0.0,0.0,0.0,0.0,0.0,0.0,0.0,0.0,0.0,0.0,0.0,0.0,0.0,0.0,0.0,0.0,0.0,0.0,0.0,0.0,0.0,0.0,1.3156,1.3349,1.2833,1.1545,1.1638,1.1439,1.0911,1.1922,1.1285,0.0,0.0,0.0,0.0,0.0,0.0,0.0,0.0,0.0,0.0,0.0,0.0,0.0,0.0,0.0,0.0,0.0,0.0,0.0,0.0,0.0,0.0,0.0,0.0,0.0,0.0,0.0,0.0,0.0,0.0,0.0,0.0,0.0,0.0,0.0,0.0,0.0,0.0,0.0,0.0,1.6019,1.5682,1.6631,0.0,0.0,0.0,0.0,0.0,0.0,2.198,2.1644,0.0,0.0,0.0,0.0,0.0,0.0,0.0,0.0,0.0,0.0,0.0,0.0,0.0,0.0,0.0,0.0,0.0,0.0,0.0,0.0,0.0,0.0,0.0,0.0,0.0,0.0,0.0,0.0,0.0,0.0,0.0,0.0,0.0,0.0,0.0,0.0,0.0,0.0,0.0,0.0,0.0,0.0,0.0,0.0,0.0,0.0,0.0,0.0,0.0,0.0,0.0,0.0,0.0,0.0,0.0,1.3802,1.3191,1.2444,1.1528,1.1857,1.1752,1.1232,1.2614,1.2309,1.0132,0.0,0.0,0.0,0.0,0.0,0.0,0.0,0.0,0.0,0.0,0.0,0.0,0.0,0.0,0.0,0.0,0.0,0.0,0.0,0.0,0.0,0.0,0.0,0.0,0.0,0.0,0.0,0.0,0.0,0.0,0.0,0.0,0.0,0.0,0.0,0.0,0.0,0.0,0.0,1.5974,1.5688,0.0,0.0,0.0,0.0,0.0,0.0,0.0,0.0,1.864,0.0,0.0,0.0,0.0,0.0,0.0,0.0,0.0,0.0,0.0,0.0,0.0,0.0,0.0,0.0,0.0,0.0,0.0,0.0,0.0,0.0,0.0,0.0,0.0,0.0,0.0,0.0,0.0,0.0,0.0,0.0,0.0,0.0,0.0,0.0,0.0,0.0,0.0,0.0,0.0,0.0,0.0,0.0,0.0,0.0,0.0,0.0,0.0,0.0,0.0,0.0,0.0,0.0,0.0,0.0,0.0,1.253,1.207,1.1513,1.1871,1.208,1.2208,1.4099,1.3994,1.1617,0.0,0.0,0.0,0.0,0.0,0.0,0.0,0.0,0.0,0.0,0.0,0.0,0.0,0.0,0.0,0.0,0.0,0.0,0.0,0.0,0.0,0.0,0.0,0.0,0.0,0.0,0.0,0.0,0.0,0.0,0.0,0.0,0.0,0.0,0.0,0.0,0.0,0.0,1.4944,1.496,0.0,0.0,0.0,0.0,0.0,0.0,0.0,0.0,1.8022,0.0,0.0,0.0,0.0,0.0,0.0,0.0,0.0,0.0,0.0,0.0,0.0,0.0,0.0,0.0,0.0,0.0,0.0,0.0,0.0,0.0,0.0,0.0,0.0,0.0,0.0,0.0,0.0,0.0,0.0,0.0,0.0,0.0,0.0,0.0,0.0,0.0,0.0,0.0,0.0,0.0,0.0,0.0,0.0,0.0,0.0,0.0,0.0,0.0,0.0,0.0,0.0,0.0,0.0,0.0,0.0,0.0,0.0,1.2621,1.1567,1.1975,1.2464,1.2942,1.4314,1.4005,0.0,0.0,0.0,0.0,0.0,0.0,0.0,0.0,0.0,0.0,0.0,0.0,0.0,0.0,0.0,0.0,0.0,0.0,0.0,0.0,0.0,0.0,0.0,0.0,0.0,0.0,0.0,0.0,0.0,0.0,0.0,0.0,0.0,0.0,0.0,0.0,0.0,0.0,0.0,0.0,0.0,0.0,0.0,0.0,0.0,0.0,0.0,0.0,0.0,0.0,0.0,0.0,0.0,0.0,0.0,0.0,0.0,0.0,0.0,0.0,0.0,0.0,0.0,0.0,0.0,0.0,0.0,0.0,0.0,0.0,0.0,0.0,0.0,0.0,0.0,0.0,0.0,0.0,0.0,0.0,0.0,0.0,0.0,0.0,0.0,0.0,0.0,0.0,0.0,0.0,0.0,0.0,0.0,0.0,0.0,0.0,0.0,0.0,0.0,0.0,0.0,0.0,0.0,0.0,0.0,0.0,0.0,0.0,1.3073,1.1529,1.2133,1.2847,1.365,1.4267,1.3656,0.0,0.0,0.0,0.0,0.0,0.0,0.0,0.0,0.0,0.0,0.0,0.0,0.0,0.0,0.0,0.0,0.0,0.0,0.0,0.0,0.0,0.0,0.0,0.0,0.0,0.0,0.0,0.0,0.0,0.0,0.0,0.0,0.0,0.0,0.0,0.0,0.0,0.0,0.0,0.0,0.0,0.0,0.0,0.0,0.0,0.0,0.0,0.0,1.4402,0.0,0.0,0.0,0.0,0.0,0.0,0.0,0.0,0.0,0.0,0.0,0.0,0.0,0.0,0.0,0.0,0.0,0.0,0.0,0.0,0.0,0.0,0.0,0.0,0.0,0.0,0.0,0.0,0.0,0.0,0.0,0.0,0.0,0.0,0.0,0.0,0.0,0.0,0.0,0.0,0.0,0.0,0.0,0.0,0.0,0.0,0.0,0.0,0.0,0.0,0.0,0.0,0.0,0.0,0.0,0.0,0.0,0.0,0.0,1.2592,1.1485,1.2078,1.3103,1.4393,1.4555,1.3552,0.0,0.0,0.0,0.0,0.0,0.0,0.0,0.0,0.0,0.0,0.0,0.0,0.0,0.0,0.0,0.0,0.0,0.0,0.0,0.0,0.0,0.0,0.0,0.0,0.0,0.0,0.0,0.0,0.0,0.0,0.0,0.0,0.0,0.0,0.0,0.0,0.0,0.0,0.0,0.0,0.0,0.0,0.0,0.0,0.0,0.0,0.0,0.0,0.0,0.0,0.0,0.0,0.0,0.0,0.0,0.0,0.0,0.0,0.0,0.0,0.0,0.0,0.0,0.0,0.0,0.0,0.0,0.0,0.0,0.0,0.0,0.0,0.0,0.0,0.0,0.0,0.0,0.0,0.0,0.0,0.0,0.0,0.0,0.0,0.0,0.0,0.0,0.0,0.0,0.0,0.0,0.0,0.0,0.0,0.0,0.0,0.0,0.0,0.0,0.0,0.0,0.0,0.0,0.0,0.0,0.0,0.0,0.0,1.2283,1.1122,1.1817,1.2502,1.3061,1.2822,1.1801,0.0,0.0,0.0,0.0,0.0,0.0,0.0,0.0,0.0,0.0,0.0,0.0,0.0,0.0,0.0,0.0,0.0,0.0,0.0,0.0,0.0,0.0,0.0,0.0,0.0,0.0,0.0,0.0,0.0,0.0,0.0,0.0,0.0,0.0,0.0,0.0,0.0,0.0,0.0,0.0,0.0,0.0,0.0,0.0,0.0,0.0,0.0,0.0,0.0,0.0,0.0,0.0,0.0,0.0,0.0,0.0,0.0,0.0,0.0,0.0,0.0,0.0,0.0,0.0,0.0,0.0,0.0,0.0,0.0,0.0,0.0,0.0,0.0,0.0,0.0,0.0,0.0,0.0,0.0,0.0,0.0,0.0,0.0,0.0,0.0,0.0,0.0,0.0,0.0,0.0,0.0,0.0,0.0,0.0,0.0,0.0,0.0,0.0,0.0,0.0,0.0,0.0,0.0,0.0,0.0,0.0,0.0,0.0,0.0,1.0814,1.1242,1.1678,1.1928,1.1303,1.0314,0.0,0.0,0.0,0.0,0.0,0.0,0.0,0.0,0.0,0.0,0.0,0.0,0.0,0.0,0.0,0.0,0.0,0.0,0.0,0.0,0.0,0.0,0.0,0.0,0.0,0.0,0.0,0.0,0.0,0.0,0.0,0.0,0.0,0.0,0.0,0.0,0.0,0.0,0.0,0.0,0.0,0.0,0.0,0.0,0.0,0.0,0.0,0.0,0.0,0.0,0.0,0.0,0.0,0.0,0.0,0.0,0.0,0.0,0.0,0.0,0.0,0.0,0.0,0.0,0.0,0.0,0.0,0.0,0.0,0.0,0.0,0.0,0.0,0.0,0.0,0.0,0.0,0.0,0.0,0.0,0.0,0.0,0.0,0.0,0.0,0.0,0.0,0.0,0.0,0.0,0.0,0.0,0.0,0.0,0.0,0.0,0.0,0.0,0.0,0.0,0.0,0.0,0.0,0.0,0.0,0.0,0.0,0.0,0.0,1.0382,1.0284,1.0687,1.1628,1.0769,0.9714,0.0,0.0,0.0,0.0,0.0,0.0,0.0,0.0,0.0,0.0,0.0,0.0,0.0,0.0,0.0,0.0,0.0,0.0,0.0,0.0,0.0,0.0,0.0,0.0,0.0,0.0,0.0,0.0,0.0,0.0,0.0,0.0,0.0,0.0,0.0,0.0,0.0,0.0,0.0,0.0,0.0,0.0,0.0,0.0,0.0,0.0,0.0,0.0,0.0,0.0,0.0,0.0,0.0,0.0,0.0,0.0,0.0,0.0,0.0,0.0,0.0,0.0,0.0,0.0,0.0,0.0,0.0,0.0,0.0,0.0,0.0,0.0,0.0,0.0,0.0,0.0,0.0,0.0,0.0,0.0,0.0,0.0,0.0,0.0,0.0,0.0,0.0,0.0,0.0,0.0,0.0,0.0,0.0,0.0,0.0,0.0,0.0,0.0,0.0,0.0,0.0,0.0,0.0,0.0,0.0,0.0,0.0,0.0,0.0,0.9489,0.9907,1.0072,0.9746,0.8328,0.7259,0.6463,0.0,0.0,0.0,0.0,0.0,0.0,0.0,0.0,0.0,0.0,0.0,0.0,0.0,0.0,0.0,0.0,0.0,0.0,0.0,0.0,0.0,0.0,0.0,0.0,0.0,0.0,0.0,0.0,0.0,0.0,0.0,0.0,0.0,0.0,0.0,0.0,0.0,0.0,0.0,0.0,0.0,0.0,0.0,0.0,0.0,0.0,0.0,0.0,0.0,0.0,0.0,0.0,0.0,0.0,0.0,0.0,0.0,0.0,0.0,0.0,0.0,0.0,0.0,0.0,0.0,0.0,0.0,0.0,0.0,0.0,0.0,0.0,0.0,0.0,0.0,0.0,0.0,0.0,0.0,0.0,0.0,0.0,0.0,0.0,0.0,0.0,0.0,0.0,0.0,0.0,0.0,0.0,0.0,0.0,0.0,0.0,0.0,0.0,0.0,0.0,0.0,0.0,0.0,0.0,0.0,0.0,0.0,0.0,0.9911,0.9848,0.9461,0.8675,0.7319,0.6066,0.0,0.0,0.0,0.0,0.0,0.0,0.0,0.0,0.0,0.0,0.0,0.0,0.0,0.0,0.0,0.0,0.0,0.0,0.0,0.0,0.0,0.0,0.0,0.0,0.0,0.0,0.0,0.0,0.0,0.0,0.0,0.0,0.0,0.0,0.0,0.0,0.0,0.0,0.0,0.0,0.0,0.0,0.0,0.0,0.0,0.0,0.0,0.0,0.0,0.0,0.0,0.0,0.0,0.0,0.0,0.0,0.0,0.0,0.0,0.0,0.0,0.0,0.0,0.0,0.0,0.0,0.0,0.0,0.0,0.0,0.0,0.0,0.0,0.0,0.0,0.0,0.0,0.0,0.0,0.0,0.0,0.0,0.0,0.0,0.0,0.0,0.0,0.0,0.0,0.0,0.0,0.0,0.0,0.0,0.0,0.0,0.0,0.0,0.0,0.0,0.0,0.0,0.0,0.0,0.0,0.0,0.0,0.0,1.2262,1.227,0.9984,0.8832,0.8936,0.8093,0.6455,0.0,0.0,0.0,0.0,0.0,0.0,0.0,0.0,0.0,0.0,0.0,0.0,0.0,0.0,0.0,0.0,0.0,0.0,0.0,0.0,0.0,0.0,0.0,0.0,0.0,0.0,0.0,0.0,0.0,0.0,0.0,0.0,0.0,0.0,0.0,0.0,0.0,0.0,0.0,0.0,0.0,0.0,0.0,0.0,0.0,0.0,0.0,0.0,0.0,0.0,0.0,0.0,0.0,0.0,0.0,0.0,0.0,0.0,0.0,0.0,0.0,0.0,0.0,0.0,0.0,0.0,0.0,0.0,0.0,0.0,0.0,0.0,0.0,0.0,0.0,0.0,0.0,0.0,0.0,0.0,0.0,0.0,0.0,0.0,0.0,0.0,0.0,0.0,0.0,0.0,0.0,0.0,0.0,0.0,0.0,0.0,0.0,0.0,0.0,0.0,0.0,0.0,0.0,0.0,0.0,0.0,0.0,0.0,0.0,1.1481,0.9251,0.859,0.9461,0.748,0.6061,0.0,0.0,0.0,0.0,0.0,0.0,0.0,0.0,0.0,0.0,0.0,0.0,0.0,0.0,0.0,0.0,0.0,0.0,0.0,0.0,0.0,0.0,0.0,0.0,0.0,0.0,0.0,0.0,0.0,0.0,0.0,0.0,0.0,0.0,0.0,0.0,0.0,0.0,0.0,0.0,0.0,0.0,0.0,0.0,0.0,0.0,0.0,0.0,0.0,0.0,0.0,0.0,0.0,0.0,0.0,0.0,0.0,0.0,0.0,0.0,0.0,0.0,0.0,0.0,0.0,0.0,0.0,0.0,0.0,0.0,0.0,0.0,0.0,0.0,0.0,0.0,0.0,0.0,0.0,0.0,0.0,0.0,0.0,0.0,0.0,0.0,0.0,0.0,0.0,0.0,0.0,0.0,0.0,0.0,0.0,0.0,0.0,0.0,0.0,0.0,0.0,0.0,0.0,0.0,0.0,0.0,0.0,0.0,0.0,1.1829,1.0551,0.9736,0.9463,0.7741,0.6291,0.0,0.0,0.0,0.0,0.0,0.0,0.0,0.0,0.0,0.0,0.0,0.0,0.0,0.0,0.0,0.0,0.0,0.0,0.0,0.0,0.0,0.0,0.0,0.0,0.0,0.0,0.0,0.0,0.0,0.0,0.0,0.0,0.0,0.0,0.0,0.0,0.0,0.0,0.0,0.0,0.0,0.0,0.0,0.0,0.0,0.0,0.0,0.0,0.0,0.0,0.0,0.0,0.0,0.0,0.0,0.0,0.0,0.0,0.0,0.0,0.0,0.0,0.0,0.0,0.0,0.0,0.0,0.0,0.0,0.0,0.0,0.0,0.0,0.0,0.0,0.0,0.0,0.0,0.0,0.0,0.0,0.0,0.0,0.0,0.0,0.0,0.0,0.0,0.0,0.0,0.0,0.0,0.0,0.0,0.0,0.0,0.0,0.0,0.0,0.0,0.0,0.0,0.0,0.0,0.0,0.0,0.0,0.0,0.0,1.3172,1.3228,1.1853,0.8884,0.8724,0.7113,0.0,0.0,0.0,0.0,0.0,0.0,0.0,0.0,0.0,0.0,0.0,0.0,0.0,0.0,0.0,0.0,0.0,0.0,0.0,0.0,0.0,0.0,0.0,0.0,0.0,0.0,0.0,0.0,0.0,0.0,0.0,0.0,0.0,0.0,0.0,0.0,0.0,0.0,0.0,0.0,0.0,0.0,0.0,0.0,0.0,0.0,0.0,0.0,0.0,0.0,0.0,0.0,0.0,0.0,0.0,0.0,0.0,0.0,0.0,0.0,0.0,0.0,0.0,0.0,0.0,0.0,0.0,0.0,0.0,0.0,0.0,0.0,0.0,0.0,0.0,0.0,0.0,0.0,0.0,0.0,0.0,0.0,0.0,0.0,0.0,0.0,0.0,0.0,0.0,0.0,0.0,0.0,0.0,0.0,0.0,0.0,0.0,0.0,0.0,0.0,0.0,0.0,0.0,0.0,0.0,0.0,0.0,0.0,0.0,0.0,1.2587,1.1488,0.8891,0.8073,0.7259,0.6238,0.0,0.0,0.0,0.0,0.0,0.0,0.0,0.0,0.0,0.0,0.0,0.0,0.0,0.0,0.0,0.0,0.0,0.0,0.0,0.0,0.0,0.0,0.0,0.0,0.0,0.0,0.0,0.0,0.0,0.0,0.0,0.0,0.0,0.0,0.0,0.0,0.0,0.0,0.0,0.0,0.0,0.0,0.0,0.0,0.0,0.0,0.0,0.0,0.0,0.0,0.0,0.0,0.0,0.0,0.0,0.0,0.0,0.0,0.0,0.0,0.0,0.0,0.0,0.0,0.0,0.0,0.0,0.0,0.0,0.0,0.0,0.0,0.0,0.0,0.0,0.0,0.0,0.0,0.0,0.0,0.0,0.0,0.0,0.0,0.0,0.0,0.0,0.0,0.0,0.0,0.0,0.0,0.0,0.0,0.0,0.0,0.0,0.0,0.0,0.0,0.0,0.0,0.0,0.0,0.0,0.0,0.0,0.0,0.0,0.0,1.1549,0.9203,0.8508,0.7667,0.0,0.0,0.0,0.0,0.0,0.0,0.0,0.0,0.0,0.0,0.0,0.0,0.0,0.0,0.0,0.0,0.0,0.0,0.0,0.0,0.0,0.0,0.0,0.0,0.0,0.0,0.0,0.0,0.0,0.0,0.0,0.0,0.0,0.0,0.0,0.0,0.0,0.0,0.0,0.0,0.0,0.0,0.0,0.0,0.0,0.0,0.0,0.0,0.0,0.0,0.0,0.0,0.0,0.0,0.0,0.0,0.0,0.0,0.0,0.0,0.0,0.0,0.0,0.0,0.0,0.0,0.0,0.0,0.0,0.0,0.0,0.0,0.0,0.0,0.0,0.0,0.0,0.0,0.0,0.0,0.0,0.0,0.0,0.0,0.0,0.0,0.0,0.0,0.0,0.0,0.0,0.0,0.0,0.0,0.0,0.0,0.0,0.0,0.0,0.0,0.0,0.0,0.0,0.0,0.0,0.0,0.0,0.0,0.0,0.0,0.0,1.1921,0.9721,0.9475,0.0,0.5892,0.0,0.0,0.0,0.0,0.0,0.0,0.0,0.0,0.0,0.0,0.0,0.0,0.0,0.0,0.0,0.0,0.0,0.0,0.0,0.0,0.0,0.0,0.0,0.0,0.0,0.0,0.0,0.0,0.0,0.0,0.0,0.0,0.0,0.0,0.0,0.0,0.0,0.0,0.0,0.0,0.0,0.0,0.0,0.0,0.0,0.0,0.0,0.0,0.0,0.0,0.0,0.0,0.0,0.0,0.0,0.0,0.0,0.0,0.0,0.0,0.0,0.0,0.0,0.0,0.0,0.0,0.0,0.0,0.0,0.0,0.0,0.0,0.0,0.0,0.0,0.0,0.0,0.0,0.0,0.0,0.0,0.0,0.0,0.0,0.0,0.0,0.0,0.0,0.0,0.0,0.0,0.0,0.0,0.0,0.0,0.0,0.0,0.0,0.0,0.0,0.0,0.0,0.0,0.0,0.0,0.0,0.0,0.0,0.0,0.0,0.0,0.0,0.9668,0.8896,0.6768,0.0,0.0,0.0,0.0,0.0,0.0,0.0,0.0,0.0,0.0,0.0,0.0,0.0,0.0,0.0,0.0,0.0,0.0,0.0,0.0,0.0,0.0,0.0,0.0,0.0,0.0,0.0,0.0,0.0,0.0,0.0,0.0,0.0,0.0,0.0,0.0,0.0,0.0,0.0,0.0,0.0,0.0,0.0,0.0,0.0,0.0,0.0,0.0,0.0,0.0,0.0,0.0,0.0,0.0,0.0,0.0,0.0,0.0,0.0,0.0,0.0,0.0,0.0,0.0,0.0,0.0,0.0,0.0,0.0,0.0,0.0,0.0,0.0,0.0,0.0,0.0,0.0,0.0,0.0,0.0,0.0,0.0,0.0,0.0,0.0,0.0,0.0,0.0,0.0,0.0,0.0,0.0,0.0,0.0,0.0,0.0,0.0,0.0,0.0,0.0,0.0,0.0,0.0,0.0,0.0,0.0,0.0,0.0,0.0,0.0,1.159,0.9469,0.9729,0.9183,0.7657,0.0,0.0,0.0,0.0,0.0,0.0,0.0,0.0,0.0,0.0,0.0,0.0,0.0,0.0,0.0,0.0,0.0,0.0,0.0,0.0,0.0,0.0,0.0,0.0,0.0,0.0,0.0,0.0,0.0,0.0,0.0,0.0,0.0,0.0,0.0,0.0,0.0,0.0,0.0,0.0,0.0,0.0,0.0,0.0,0.0,0.0,0.0,0.0,0.0,0.0,0.0,0.0,0.0,0.0,0.0,0.0,0.0,0.0,0.0,0.0,0.0,0.0,0.0,0.0,0.0,0.0,0.0,0.0,0.0,0.0,0.0,0.0,0.0,0.0,0.0,0.0,0.0,0.0,0.0,0.0,0.0,0.0,0.0,0.0,0.0,0.0,0.0,0.0,0.0,0.0,0.0,0.0,0.0,0.0,0.0,0.0,0.0,0.0,0.0,0.0,0.0,0.0,0.0,0.0,0.0,0.0,0.0,0.0,0.0,0.0,1.1644,0.0,0.0,0.0,0.8391,0.0,0.0,0.0,0.0,0.0,0.0,0.0,0.0,0.0,0.0,0.0,0.0,0.0,0.0,0.0,0.0,0.0,0.0,0.0,0.0,0.0,0.0,0.0,0.0,0.0,0.0,0.0,0.0,0.0,0.0,0.0,0.0,0.0,0.0,0.0,0.0,0.0,0.0,0.0,0.0,0.0,0.0,0.0,0.0,0.0,0.0,0.0,0.0,0.0,0.0,0.0,0.0,0.0,0.0,0.0,0.0,0.0,0.0,0.0,0.0,0.0,0.0,0.0,0.0,0.0,0.0,0.0,0.0,0.0,0.0,0.0,0.0,0.0,0.0,0.0,0.0,0.0,0.0,0.0,0.0,0.0,0.0,0.0,0.0,0.0,0.0,0.0,0.0,0.0,0.0,0.0,0.0,0.0,0.0,0.0,0.0,0.0,0.0,0.0,0.0,0.0,0.0,0.0,0.0,0.0,0.0,0.0,0.0,0.0,0.0,0.0,0.0,0.0,0.0,0.0,0.0,0.0,0.0,0.0,0.0,0.0,0.0,0.0,0.0,0.0,0.0,0.0,0.0,0.0,0.0,0.0,0.0,0.0,0.0,0.0,0.0,0.0,0.0,0.0,0.0,0.0,0.0,0.0,0.0,0.0,0.0,0.0,0.0,0.0,0.0,0.0,0.0,0.0,0.0,0.0,0.0,0.0,0.0,0.0,0.0,0.0,0.0,0.0,0.0,0.0,0.0,0.0,0.0,0.0,0.0,0.0,0.0,0.0,0.0,0.0,0.0,0.0,0.0,0.0,0.0,0.0,0.0,0.0,0.0,0.0,0.0,0.0,0.0,0.0,0.0,0.0,0.0,0.0,0.0,0.0,0.0,0.0,0.0,0.0,0.0,0.0,0.0,0.0,0.0,0.0,0.0,0.0,0.0,0.0,0.0,0.0,0.0,0.0,0.0,0.0,0.0,0.0,0.0,0.0,0.0,0.0,0.0,0.0,0.0,0.0,0.0,0.0,0.0,0.0,0.0,0.0,0.0,0.0,0.0,0.0,0.0,0.0,0.0,0.0,0.0,0.0,0.0,0.0,0.0,0.0,0.0,0.0,0.0,0.0,0.0,0.0,0.0,0.0,0.0,0.0,0.0,0.0,0.0,0.0,0.0,0.0,0.0,0.0,0.0,0.0,0.0,0.0,0.0,0.0,0.0,0.0,0.0,0.0,0.0,0.0,0.0,0.0,0.0,0.0,0.0,0.0,0.0,0.0,0.0,0.0,0.0,0.0,0.0,0.0,0.0,0.0,0.0,0.0,0.0,0.0,0.0,0.0,0.0,0.0,0.0,0.0,0.0,0.0,0.0,0.0,0.0,0.0,0.0,0.0,0.0,0.0,0.0,0.0,0.0,0.0,0.0,0.0,0.0,0.0,0.0,0.0,0.0,0.0,0.0,0.0,0.0,0.0,0.0,0.0,0.0,0.0,0.0,0.0,0.0,0.0,0.0,0.0,0.0,0.0,0.0,0.0,0.0,0.0,0.0,0.0,0.0,0.0,0.0,0.0,0.0,0.0,0.0,0.0,0.0,0.0,0.0,0.0,0.0,0.0,0.0,0.0,0.0,0.0,0.0,0.0,0.0,0.0,0.0,0.0,0.0,0.0,0.0,0.0,0.0,0.0,0.0,0.0,0.0,0.0,0.0,0.0,0.0,0.0,0.0,0.0,0.0,0.0,0.0,0.0,0.0,0.0,0.0,0.0,0.0,0.0,0.0,0.0,0.0,0.0,0.0,0.0,0.0,0.0,0.0,0.0,0.0,0.0,0.0,0.0,0.0,0.0,0.0,0.0,0.0,0.0,0.0,0.0,0.0,0.0,0.0,0.0,0.0,0.0,0.0,0.0,0.0,0.0,0.0,0.0,0.0,0.0,0.0,0.0,0.0,0.0,0.0,0.0,0.0,0.0,0.0,0.0,0.0,0.0,0.0,0.0,0.0,0.0,0.0,0.0,0.0,0.0,0.0,0.0,0.0,0.0,0.0,0.0,0.0,0.0,0.0,0.0,0.0,0.0,0.0,0.0,0.0,0.0,0.0,0.0,0.0,0.0,0.0,0.0,0.0,0.0,0.0,0.0,0.0,0.0,0.0,0.0,0.0,0.0,0.0,0.0,0.0,0.0,0.0,0.0,0.0,0.0,0.0,0.0,0.0,0.0,0.0,0.0,0.0,0.0,0.0,0.0,0.0,0.0,0.0,0.0,0.0,0.0,0.0,0.0,0.0,0.0,0.0,0.0,0.0,0.0,0.0,0.0,0.0,0.0,0.0,0.0,0.0,0.0,0.0,0.0,0.0,0.0,0.0,0.0,0.0,0.0,0.0,0.0,0.0,0.0,0.0,0.0,0.0,0.0,0.0,0.0,0.0,0.0,0.0,0.0,0.0,0.0,0.0,0.0,0.0,0.0,0.0,0.0,0.0,0.0,0.0,0.0,0.0,0.0,0.0,0.0,0.0,0.0,0.0,0.0,0.0,0.0,0.0,0.0,0.0,0.0,0.0,0.0,0.0,0.0,0.0,0.0,0.0,0.0,0.0,0.0,0.0,0.0,0.0,0.0,0.0,0.0,0.0,0.0,0.0,0.0,0.0,0.0,0.0,0.0,0.0,0.0,0.0,0.0,0.0,0.0,0.0,0.0,0.0,0.0,0.0,0.0,0.0,0.0,0.0,0.0,0.0,0.0,0.0,0.0,0.0,0.0,0.0,0.0,0.0,0.0,0.0,0.0,0.0,0.0,0.0,0.0,0.0,0.0,0.0,0.0,0.0,0.0,0.0,0.0,0.0,0.0,0.0,0.0,0.0,0.0,0.0,0.0,0.0,0.0,0.0,0.0,0.0,0.0,0.0,0.0,0.0,0.0,0.0,0.0,0.0,0.0,0.0,0.0,0.0,0.0,0.0,0.0,0.0,0.0,0.0,0.0,0.0,0.0,0.0,0.0,0.0,0.0,0.0,0.0,0.0,0.0,0.0,0.0,0.0,0.0,0.0,0.0,0.0,0.0,0.0,0.0,0.0,0.0,0.0,0.0,0.0,0.0,0.0,0.0,0.0,0.0,0.0,0.0,0.0,0.0,0.0,0.0,0.0,0.0,0.0,0.0,0.0,0.0,0.0,0.0,0.0,0.0,0.0,0.0,0.0,0.0,0.0,0.0,0.0,0.0,0.0,0.0,0.0,0.0,0.0,0.0,0.0,0.0,0.0,0.0,0.0,0.0,0.0,0.0,0.0,0.0,0.0,0.0,0.0,0.0,0.0,0.0,0.0,0.0,0.0,0.0,0.0,0.0,0.0,0.0,0.0,0.0,0.0,0.0,0.0,0.0,0.0,0.0,0.0,0.0,0.0,0.0,0.0,0.0,0.0,0.0,0.0,0.0,0.0,0.0,0.0,0.0,0.0,0.0,0.0,0.0,0.0,0.0,0.0,0.0,0.0,0.0,0.0,0.0,0.0,0.0,0.0,0.0,0.0,0.0,0.0,0.0,0.0,0.0,0.0,0.0,0.0,0.0,0.0,0.0,0.0,0.0,0.0,0.0,0.0,0.0,0.0,0.0,0.0,0.0,0.0,0.0,0.0,0.0,0.0,0.0,0.0,0.0,0.0,0.0,0.0,0.0,0.0,0.0,0.0,0.0,0.0,0.0,0.0,0.0,0.0,0.0,0.0,0.0,0.0,0.0,0.0,0.0,0.0,0.0,0.0,0.0,0.0,0.0,0.0,0.0,0.0,0.0,0.0,0.0,0.0,0.0,0.0,0.0,0.0,0.0,0.0,0.0,0.0,0.0,0.0,0.0,0.0,0.0,0.0,0.0,0.0,0.0,0.0,0.0,0.0,0.0,0.0,0.0,0.0,0.0,0.0,0.0,0.0,0.0,0.0,0.0,0.0,0.0,0.0,0.0,0.0,0.0,0.0,0.0,0.0,0.0,0.0,0.0,0.0,0.0,0.0,0.0,0.0,0.0,0.0,0.0,0.0,0.0,0.0,0.0,0.0,0.0,0.0,0.0,0.0,0.0,0.0,0.0,0.0,0.0,0.0,0.0,0.0,0.0,0.0,0.0,0.0,0.0,0.0,0.0,0.0,0.0,0.0,0.0,0.0,0.0,0.0,0.0,0.0,0.0,0.0,0.0,0.0,0.0,0.0,0.0,0.0,0.0,0.0,0.0,0.0,0.0,0.0,0.0,0.0,0.0,0.0,0.0,0.0,0.0,0.0,0.0,0.0,0.0,0.0,0.0,0.0,0.0,0.0,0.0,0.0,0.0,0.0,0.0,0.0,0.0,0.0,0.0,0.0,0.0,0.0,0.0,0.0,0.0,0.0,0.0,0.0,0.0,0.0,0.0,0.0]}]]]